[[{"header":{"parameterUnit":"m.s-1","parameterCategory":1,"la1":30.6,"la2":29.2853,"lo1":-89.7004,"lo2":-87.6739,"dy":0.0162,"dx":0.0183,"nx":112,"ny":82,"refTime":"2023-09-21T18:00:00:Z","depth":0,"parameterNumber":2,"parameterNumberName":"U-component_of_WINDS"},"data":[0.0,0.0,0.0,0.0,0.0,0.0,0.0,0.0,0.0,0.0,0.0,0.0,0.0,0.0,0.0,0.0,0.0,0.0,0.0,0.0,0.0,0.0,0.0,0.0,0.0,0.0,0.0,0.0,0.0,0.0,0.0,0.0,0.0,0.0,0.0,0.0,0.0,0.0,0.0,0.0,0.0,0.0,0.0,0.0,0.0,0.0,0.0,0.0,0.0,0.0,0.0,0.0,0.0,0.0,0.0,0.0,0.0,0.0,0.0,0.0,0.0,0.0,0.0,0.0,0.0,0.0,0.0,0.0,0.0,0.0,0.0,0.0,0.0,0.0,0.0,0.0,0.0,0.0,0.0,0.0,0.0,0.0,0.0,0.0,0.0,0.0,0.0,0.0,0.0,0.0,2.377,2.422,2.3879,2.3595,2.3595,2.3595,2.3595,2.3595,0.0,0.0,0.0,0.0,0.0,0.0,0.0,0.0,0.0,0.0,0.0,0.0,0.0,0.0,0.0,0.0,0.0,0.0,0.0,0.0,0.0,0.0,0.0,0.0,0.0,0.0,0.0,0.0,0.0,0.0,0.0,0.0,0.0,0.0,0.0,0.0,0.0,0.0,0.0,0.0,0.0,0.0,0.0,0.0,0.0,0.0,0.0,0.0,0.0,0.0,0.0,0.0,0.0,0.0,0.0,0.0,0.0,0.0,0.0,0.0,0.0,0.0,0.0,0.0,0.0,0.0,0.0,0.0,0.0,0.0,0.0,0.0,0.0,0.0,0.0,0.0,0.0,0.0,0.0,0.0,0.0,0.0,0.0,0.0,0.0,0.0,0.0,0.0,0.0,0.0,0.0,0.0,0.0,0.0,0.0,0.0,0.0,0.0,0.0,0.0,0.0,0.0,0.0,0.0,2.4602,2.3822,2.3638,2.3595,2.3595,2.3595,2.3595,2.3595,0.0,0.0,0.0,0.0,0.0,0.0,0.0,0.0,0.0,0.0,0.0,0.0,0.0,0.0,0.0,0.0,0.0,0.0,0.0,0.0,0.0,0.0,0.0,0.0,0.0,0.0,0.0,0.0,0.0,0.0,0.0,0.0,0.0,0.0,0.0,0.0,0.0,0.0,0.0,0.0,0.0,0.0,0.0,0.0,0.0,0.0,0.0,0.0,0.0,0.0,0.0,0.0,0.0,0.0,0.0,0.0,0.0,0.0,0.0,0.0,0.0,0.0,0.0,0.0,0.0,0.0,0.0,0.0,0.0,0.0,0.0,0.0,0.0,0.0,0.0,0.0,0.0,0.0,0.0,0.0,0.0,0.0,0.0,0.0,0.0,0.0,0.0,0.0,0.0,0.0,0.0,0.0,0.0,0.0,0.0,0.0,0.0,0.0,0.0,0.0,0.0,0.0,0.0,2.4689,2.4471,2.3681,2.3595,2.3595,2.3595,2.3595,2.3595,2.3595,2.3595,0.0,0.0,0.0,0.0,0.0,0.0,0.0,0.0,0.0,0.0,0.0,0.0,0.0,0.0,0.0,0.0,0.0,0.0,0.0,0.0,0.0,0.0,0.0,0.0,0.0,0.0,0.0,0.0,0.0,0.0,0.0,0.0,0.0,0.0,0.0,0.0,0.0,0.0,0.0,0.0,0.0,0.0,0.0,0.0,0.0,0.0,0.0,0.0,0.0,0.0,0.0,0.0,0.0,0.0,0.0,0.0,0.0,0.0,0.0,0.0,0.0,0.0,0.0,0.0,0.0,0.0,0.0,0.0,0.0,0.0,0.0,0.0,0.0,0.0,0.0,0.0,0.0,0.0,0.0,0.0,0.0,0.0,0.0,0.0,0.0,0.0,0.0,0.0,0.0,0.0,0.0,0.0,0.0,0.0,0.0,0.0,0.0,0.0,0.0,0.0,0.0,0.0,2.4389,2.4032,2.3638,2.3595,2.367,2.3819,2.3849,2.3909,2.4059,2.4073,0.0,0.0,0.0,0.0,0.0,0.0,0.0,0.0,0.0,0.0,0.0,0.0,0.0,0.0,0.0,0.0,0.0,0.0,0.0,0.0,0.0,0.0,0.0,0.0,0.0,0.0,0.0,0.0,0.0,0.0,0.0,0.0,0.0,0.0,0.0,0.0,0.0,0.0,0.0,0.0,0.0,0.0,0.0,0.0,0.0,0.0,0.0,0.0,0.0,0.0,0.0,0.0,0.0,0.0,0.0,0.0,0.0,0.0,0.0,0.0,0.0,0.0,0.0,0.0,0.0,0.0,0.0,0.0,0.0,0.0,0.0,0.0,0.0,0.0,0.0,0.0,0.0,0.0,0.0,0.0,0.0,0.0,0.0,0.0,0.0,0.0,0.0,0.0,0.0,0.0,0.0,0.0,0.0,0.0,0.0,0.0,0.0,0.0,0.0,0.0,0.0,0.0,2.4266,2.3638,2.3595,2.3595,2.3864,2.4462,2.4507,2.4822,2.5435,2.5465,0.0,0.0,0.0,0.0,0.0,0.0,0.0,0.0,0.0,0.0,0.0,0.0,0.0,0.0,0.0,0.0,0.0,0.0,0.0,0.0,0.0,0.0,0.0,0.0,0.0,0.0,0.0,0.0,0.0,0.0,0.0,0.0,0.0,0.0,0.0,0.0,0.0,0.0,0.0,0.0,0.0,0.0,0.0,0.0,0.0,0.0,0.0,0.0,0.0,0.0,0.0,0.0,0.0,0.0,0.0,0.0,0.0,0.0,0.0,0.0,0.0,0.0,0.0,0.0,0.0,0.0,0.0,0.0,0.0,0.0,0.0,0.0,0.0,0.0,0.0,0.0,0.0,0.0,0.0,0.0,0.0,0.0,0.0,0.0,0.0,0.0,0.0,0.0,0.0,0.0,0.0,0.0,0.0,0.0,0.0,0.0,0.0,0.0,0.0,0.0,0.0,0.0,2.4942,2.4602,0.0,2.4612,2.4956,2.5211,2.5241,2.5345,2.56,0.0,0.0,0.0,0.0,0.0,0.0,0.0,0.0,0.0,0.0,0.0,0.0,0.0,0.0,0.0,0.0,0.0,0.0,0.0,0.0,0.0,0.0,0.0,0.0,0.0,0.0,0.0,0.0,0.0,0.0,0.0,0.0,0.0,0.0,0.0,0.0,0.0,0.0,0.0,0.0,0.0,0.0,0.0,0.0,0.0,0.0,0.0,0.0,0.0,0.0,0.0,0.0,0.0,0.0,0.0,0.0,0.0,0.0,0.0,0.0,0.0,0.0,0.0,0.0,0.0,0.0,0.0,0.0,0.0,0.0,0.0,0.0,0.0,0.0,0.0,0.0,0.0,0.0,0.0,0.0,0.0,0.0,0.0,0.0,0.0,0.0,0.0,0.0,0.0,0.0,0.0,0.0,0.0,0.0,0.0,0.0,0.0,0.0,0.0,0.0,0.0,0.0,2.5901,2.5628,2.5317,0.0,2.5345,2.5689,2.5899,2.5914,2.6019,2.6213,0.0,0.0,0.0,0.0,0.0,0.0,0.0,0.0,0.0,0.0,0.0,0.0,0.0,0.0,0.0,0.0,0.0,0.0,0.0,0.0,0.0,0.0,0.0,0.0,0.0,0.0,0.0,0.0,0.0,0.0,0.0,0.0,0.0,0.0,0.0,0.0,0.0,0.0,0.0,0.0,0.0,0.0,0.0,0.0,0.0,0.0,0.0,0.0,0.0,0.0,0.0,0.0,0.0,0.0,0.0,0.0,0.0,0.0,0.0,0.0,0.0,0.0,0.0,0.0,0.0,0.0,0.0,0.0,0.0,0.0,0.0,0.0,0.0,0.0,0.0,0.0,0.0,0.0,0.0,0.0,0.0,0.0,0.0,0.0,0.0,0.0,0.0,0.0,0.0,0.0,0.0,0.0,0.0,0.0,0.0,0.0,0.0,0.0,0.0,0.0,0.0,0.0,2.7214,2.6287,2.5615,2.5615,2.563,2.5899,2.6542,2.6602,2.6871,0.0,0.0,0.0,0.0,0.0,0.0,0.0,0.0,0.0,0.0,0.0,0.0,0.0,0.0,0.0,0.0,0.0,0.0,0.0,0.0,0.0,0.0,0.0,0.0,0.0,0.0,0.0,0.0,0.0,0.0,0.0,0.0,0.0,0.0,0.0,0.0,0.0,0.0,0.0,0.0,0.0,0.0,0.0,0.0,0.0,0.0,0.0,0.0,0.0,0.0,0.0,0.0,0.0,0.0,0.0,0.0,0.0,0.0,0.0,0.0,0.0,0.0,0.0,0.0,0.0,0.0,0.0,0.0,0.0,0.0,0.0,0.0,0.0,0.0,0.0,0.0,0.0,0.0,0.0,0.0,0.0,0.0,0.0,0.0,0.0,0.0,0.0,0.0,0.0,0.0,0.0,0.0,0.0,0.0,0.0,0.0,0.0,0.0,0.0,0.0,0.0,0.0,0.0,2.7262,2.6703,2.6303,2.6303,2.6722,2.7066,2.726,2.7325,2.7415,2.761,0.0,0.0,0.0,0.0,0.0,0.0,0.0,0.0,0.0,0.0,0.0,0.0,0.0,0.0,0.0,0.0,0.0,0.0,0.0,0.0,0.0,0.0,0.0,0.0,0.0,0.0,0.0,0.0,0.0,0.0,0.0,0.0,0.0,0.0,0.0,0.0,0.0,0.0,0.0,0.0,0.0,0.0,0.0,0.0,0.0,0.0,0.0,0.0,0.0,0.0,0.0,0.0,0.0,0.0,0.0,0.0,0.0,0.0,0.0,0.0,0.0,0.0,0.0,0.0,0.0,0.0,0.0,0.0,0.0,0.0,0.0,0.0,0.0,0.0,0.0,0.0,0.0,0.0,0.0,0.0,0.0,0.0,0.0,0.0,0.0,0.0,0.0,0.0,0.0,0.0,0.0,0.0,0.0,0.0,0.0,0.0,0.0,0.0,0.0,0.0,0.0,0.0,2.8094,2.7489,2.6976,2.6976,2.7335,2.7625,2.7625,2.7625,2.7625,2.7625,0.0,0.0,0.0,0.0,0.0,0.0,0.0,0.0,0.0,0.0,0.0,0.0,0.0,0.0,0.0,0.0,0.0,0.0,0.0,0.0,0.0,0.0,0.0,0.0,0.0,0.0,0.0,0.0,0.0,0.0,0.0,0.0,0.0,0.0,0.0,0.0,0.0,0.0,0.0,0.0,0.0,0.0,0.0,0.0,0.0,0.0,0.0,0.0,0.0,0.0,0.0,0.0,0.0,0.0,0.0,0.0,0.0,0.0,0.0,0.0,0.0,0.0,0.0,0.0,0.0,0.0,0.0,0.0,0.0,0.0,0.0,0.0,0.0,0.0,0.0,0.0,0.0,0.0,0.0,0.0,0.0,0.0,0.0,0.0,0.0,0.0,0.0,0.0,0.0,0.0,0.0,0.0,0.0,0.0,0.0,0.0,0.0,0.0,0.0,0.0,0.0,0.0,2.9326,2.8352,2.7625,2.7625,2.7625,2.7625,2.7625,2.7625,2.7625,2.7625,0.0,0.0,0.0,0.0,0.0,0.0,0.0,0.0,0.0,0.0,0.0,0.0,0.0,0.0,0.0,0.0,0.0,0.0,0.0,0.0,0.0,0.0,0.0,0.0,0.0,0.0,0.0,0.0,0.0,0.0,0.0,0.0,0.0,0.0,0.0,0.0,0.0,0.0,0.0,0.0,0.0,0.0,0.0,0.0,0.0,0.0,0.0,0.0,0.0,0.0,0.0,0.0,0.0,0.0,0.0,0.0,0.0,0.0,0.0,0.0,2.341,0.0,0.0,0.0,0.0,0.0,0.0,0.0,0.0,0.0,0.0,0.0,0.0,0.0,0.0,0.0,0.0,0.0,0.0,0.0,0.0,0.0,0.0,0.0,0.0,0.0,0.0,0.0,0.0,0.0,0.0,0.0,0.0,0.0,0.0,0.0,0.0,0.0,0.0,0.0,0.0,0.0,2.939,2.8352,2.7625,2.7625,2.7625,2.7625,2.7625,2.7625,2.7625,2.7625,2.7625,0.0,0.0,0.0,0.0,0.0,0.0,0.0,0.0,0.0,0.0,0.0,0.0,0.0,0.0,0.0,0.0,0.0,0.0,0.0,0.0,0.0,0.0,0.0,0.0,0.0,0.0,0.0,0.0,0.0,0.0,0.0,0.0,0.0,0.0,0.0,0.0,0.0,0.0,0.0,0.0,0.0,0.0,0.0,0.0,0.0,0.0,0.0,0.0,0.0,0.0,0.0,0.0,0.0,0.0,0.0,0.0,0.0,0.0,0.0,0.0,2.3369,0.0,0.0,0.0,0.0,0.0,0.0,0.0,0.0,0.0,0.0,0.0,0.0,0.0,0.0,0.0,0.0,0.0,0.0,0.0,0.0,0.0,0.0,0.0,0.0,0.0,0.0,0.0,0.0,0.0,0.0,0.0,0.0,0.0,0.0,0.0,0.0,0.0,0.0,0.0,0.0,2.9451,2.8591,2.7894,2.7625,2.7625,2.7625,2.7625,2.7625,2.7625,2.7625,2.7625,0.0,0.0,0.0,0.0,0.0,0.0,0.0,0.0,0.0,0.0,0.0,0.0,0.0,0.0,0.0,0.0,0.0,0.0,0.0,0.0,0.0,0.0,0.0,0.0,0.0,0.0,0.0,0.0,0.0,0.0,0.0,0.0,0.0,0.0,0.0,0.0,0.0,0.0,0.0,0.0,0.0,0.0,0.0,0.0,0.0,0.0,0.0,0.0,0.0,0.0,0.0,0.0,0.0,2.499,2.5116,2.5339,2.562,2.5438,2.485,2.385,2.33,2.3198,2.442,0.0,0.0,0.0,0.0,0.0,0.0,0.0,0.0,0.0,0.0,0.0,0.0,0.0,0.0,0.0,0.0,0.0,0.0,0.0,0.0,0.0,0.0,0.0,0.0,2.8209,2.8416,2.815,0.0,0.0,0.0,0.0,0.0,0.0,0.0,0.0,0.0,0.0,0.0,2.9451,2.8779,2.814,2.766,2.7625,2.767,2.7739,2.7754,2.7799,2.797,2.797,2.797,0.0,0.0,0.0,0.0,0.0,0.0,0.0,0.0,0.0,0.0,0.0,0.0,0.0,0.0,0.0,0.0,0.0,0.0,0.0,0.0,0.0,0.0,0.0,0.0,0.0,0.0,0.0,0.0,0.0,0.0,0.0,0.0,2.5486,2.5409,0.0,0.0,0.0,0.0,0.0,0.0,0.0,0.0,0.0,0.0,0.0,0.0,0.0,2.5783,2.6305,2.6243,2.5937,2.5417,2.5417,2.5127,2.4611,2.4671,2.4641,2.455,2.4407,0.0,2.4711,2.4927,0.0,0.0,0.0,0.0,0.0,0.0,0.0,0.0,0.0,0.0,0.0,0.0,0.0,0.0,0.0,0.0,0.0,0.0,0.0,0.0,0.0,0.0,2.7759,2.7794,2.8388,2.8897,0.0,2.9111,2.9332,2.9332,2.9672,0.0,0.0,0.0,0.0,0.0,0.0,0.0,2.9406,2.84,2.766,2.7625,2.7625,2.7814,2.8412,2.8472,2.8712,2.928,2.9325,2.9325,2.9325,2.9325,0.0,0.0,0.0,0.0,0.0,0.0,0.0,0.0,0.0,0.0,0.0,0.0,0.0,0.0,0.0,0.0,0.0,0.0,0.0,0.0,0.0,0.0,0.0,0.0,0.0,0.0,0.0,0.0,0.0,2.5524,2.5466,2.537,2.5341,2.5514,0.0,0.0,0.0,0.0,0.0,0.0,0.0,0.0,0.0,2.6377,2.6245,2.6329,2.6612,2.6845,2.6934,2.6798,2.7278,2.736,2.7046,2.7212,2.7196,2.7046,2.7046,2.7097,2.7161,2.6109,2.5762,2.5939,0.0,0.0,0.0,0.0,2.6619,2.6672,2.6947,2.704,2.711,2.7455,0.0,0.0,0.0,0.0,0.0,0.0,0.0,0.0,0.0,0.0,2.8467,2.8467,2.9059,2.9617,2.9617,3.0054,3.0338,0.0,3.0289,3.0717,3.0717,0.0,0.0,0.0,0.0,2.9761,2.9451,2.8638,2.8096,2.8165,2.8143,2.8412,2.9101,2.9146,2.928,2.9564,2.9579,2.9579,2.9579,2.9579,2.9579,0.0,0.0,0.0,0.0,0.0,0.0,0.0,0.0,0.0,0.0,0.0,0.0,0.0,0.0,0.0,0.0,0.0,0.0,0.0,0.0,0.0,0.0,0.0,0.0,0.0,0.0,0.0,0.0,2.614,2.6101,2.5986,2.5967,2.6217,0.0,0.0,0.0,0.0,0.0,0.0,2.7409,2.749,2.7488,2.7452,2.7488,2.7622,2.7824,2.8076,2.8255,2.8423,2.8928,2.9117,2.9011,2.9264,2.9246,2.9011,2.9011,2.9011,2.8876,2.7499,2.6923,2.7006,2.7853,2.8172,2.8172,2.8172,2.8172,2.8141,2.7829,2.7732,2.7732,2.7732,2.7797,2.7907,2.8215,0.0,0.0,0.0,0.0,2.8797,2.9231,2.9329,2.9262,2.9262,2.9837,3.0378,3.0378,3.0818,3.1038,0.0,3.0818,3.119,3.119,0.0,0.0,0.0,0.0,2.9913,2.9464,2.8918,2.8625,2.8824,2.8846,2.9116,2.9759,2.9819,2.9894,3.0073,3.0088,3.0088,3.0088,3.0088,3.0088,3.0088,0.0,0.0,0.0,0.0,0.0,0.0,0.0,0.0,0.0,0.0,0.0,0.0,0.0,0.0,0.0,0.0,0.0,0.0,0.0,0.0,0.0,0.0,0.0,0.0,0.0,0.0,0.0,0.0,0.0,2.7775,2.7775,0.0,0.0,0.0,0.0,2.789,2.7852,2.7649,2.7236,2.7924,2.8521,2.8874,2.9622,3.0393,3.1146,3.0803,3.0431,3.0061,2.9685,2.9317,2.9011,2.9011,2.9011,2.9011,2.9011,2.9011,2.9011,2.8892,2.8842,2.8842,2.8912,2.8929,2.8929,2.8929,2.8929,2.8929,2.8929,2.8892,2.8892,2.8892,2.9126,2.9384,2.9418,2.9697,0.0,0.0,2.947,2.9386,2.9085,2.9553,3.004,3.004,3.0615,3.114,3.114,3.1173,3.119,0.0,3.1173,3.119,3.119,0.0,3.1015,3.0435,2.9805,2.9464,2.9492,2.8966,2.8854,2.946,2.9535,2.9789,3.0402,3.0447,3.0731,3.1332,3.1377,3.1377,3.1377,3.1377,3.1377,3.1377,3.1377,0.0,0.0,0.0,0.0,0.0,0.0,0.0,0.0,0.0,0.0,0.0,0.0,0.0,0.0,0.0,0.0,0.0,0.0,0.0,0.0,0.0,0.0,0.0,0.0,0.0,0.0,0.0,0.0,2.7909,2.789,0.0,2.8621,2.8659,2.914,3.0256,3.0184,3.0194,3.041,3.0527,3.0581,3.0564,3.0815,3.1109,3.1384,3.1511,3.1345,3.091,3.1464,3.1534,3.1162,3.1613,3.1833,3.1833,3.1833,3.1833,3.1833,3.1833,3.07,2.9011,2.9011,2.9011,2.9011,2.9011,2.9011,2.9011,2.9011,2.9011,2.9011,2.9011,2.9066,2.9193,2.9193,2.9281,2.9454,2.9773,2.989,2.9955,3.0315,3.0598,3.0818,3.0818,3.1004,3.119,3.119,3.119,3.119,3.119,3.119,3.119,3.119,3.0878,3.0684,3.0919,3.0078,2.9639,3.0092,2.9613,2.9475,3.0103,3.0178,3.0447,3.1106,3.1165,3.127,3.1452,3.1482,3.1482,3.1482,3.1482,3.1482,3.1482,3.1482,3.1482,0.0,0.0,0.0,0.0,0.0,0.0,0.0,0.0,0.0,0.0,0.0,0.0,0.0,0.0,0.0,0.0,0.0,0.0,0.0,0.0,0.0,0.0,0.0,0.0,0.0,0.0,2.8821,2.8756,2.9006,2.939,2.9929,3.0217,3.0828,3.1897,3.1809,3.1813,3.205,3.2163,3.2085,3.1806,3.2339,3.2535,3.2365,3.2757,3.2699,3.2248,3.2862,3.2952,3.2679,3.3186,3.3406,3.3406,3.3406,3.3406,3.3406,3.3406,3.2256,3.048,3.048,3.0311,3.0129,3.0129,2.9939,2.9719,2.9719,2.9719,2.9719,2.9719,2.9719,2.9719,2.9719,2.9719,2.982,3.0328,3.048,3.0581,3.1072,3.119,3.119,3.119,3.1376,3.1562,3.1562,3.1765,3.1935,3.1935,3.1529,3.119,3.119,3.0899,3.0777,3.1254,3.0466,3.0072,3.0804,3.0296,3.0133,3.0776,3.0851,3.1046,3.1437,3.1482,3.1482,3.1482,3.1482,3.1482,3.1482,3.1482,3.1482,3.1482,3.1482,3.1482,3.1482,0.0,0.0,0.0,0.0,0.0,0.0,0.0,0.0,0.0,0.0,0.0,0.0,0.0,0.0,0.0,0.0,0.0,0.0,0.0,0.0,0.0,0.0,0.0,3.0506,3.0525,3.0506,3.0436,3.1218,3.1737,3.1737,3.2468,3.2831,3.2569,3.2575,3.2408,3.1927,3.2683,3.2988,3.2724,3.422,3.479,3.4348,3.4654,3.4566,3.4086,3.3656,3.344,3.344,3.3457,3.3474,3.3474,3.3474,3.3474,3.3474,3.3474,3.3474,3.3474,3.3423,3.2949,3.2307,3.2307,3.1867,3.1258,3.1258,3.1258,3.1258,3.1258,3.1258,3.1258,3.1258,3.1258,3.1258,3.1258,3.1258,3.1258,3.1258,3.1258,3.1258,3.1258,3.1799,3.2307,3.2307,3.2899,3.3406,3.3406,3.2239,3.1219,3.1219,3.1266,3.1325,3.1369,3.0895,0.0,3.1517,3.0964,3.0791,3.1407,3.1482,3.1482,3.1482,3.1482,3.1482,3.1482,3.1482,3.1482,3.1482,3.1482,3.1482,3.1482,3.1482,3.1482,3.1482,0.0,0.0,0.0,0.0,0.0,0.0,0.0,0.0,0.0,0.0,0.0,0.0,0.0,0.0,0.0,0.0,0.0,0.0,0.0,0.0,0.0,0.0,3.1225,3.0602,3.1006,3.1371,3.1352,3.2064,3.2564,3.2564,3.3333,3.3728,3.3462,3.4395,3.4821,3.4503,3.5066,3.5358,3.5293,3.5716,3.5695,3.5191,3.4903,3.4566,3.4086,3.4184,3.4201,3.4218,3.4759,3.5013,3.5013,3.5013,3.5013,3.5013,3.5013,3.5013,3.4912,3.3829,3.3288,3.3102,3.3102,3.2966,3.2797,3.2797,3.2797,3.2797,3.2797,3.2797,3.2797,3.2797,3.2797,3.2797,3.2797,3.2797,3.2797,3.2797,3.2797,3.2797,3.2797,3.2949,3.3102,3.3102,3.3271,3.3406,3.3406,3.267,3.2067,3.2067,3.1736,3.1454,3.141,3.0867,0.0,3.1434,3.1354,3.133,3.1452,3.1482,3.1482,3.1482,3.1482,3.1482,3.1482,3.1482,3.1482,3.1482,3.1482,3.1482,3.1482,3.1482,3.1482,0.0,0.0,0.0,0.0,0.0,0.0,0.0,0.0,0.0,0.0,0.0,0.0,0.0,0.0,0.0,0.0,0.0,0.0,0.0,0.0,0.0,0.0,3.1763,3.2071,3.1583,3.191,3.2199,3.2199,3.2929,3.3583,3.3949,3.4654,3.5111,3.5172,3.584,3.6128,3.584,3.6122,3.6303,3.6303,3.6615,3.6455,3.5665,3.5776,3.5437,3.4727,3.4873,3.4962,3.4979,3.5419,3.5622,3.5622,3.5622,3.5622,3.5622,3.5622,3.5622,0.0,0.0,0.0,0.0,0.0,3.3406,3.3406,3.3406,3.3406,3.3406,3.3406,3.3406,3.3406,3.3406,3.3406,3.3406,3.3406,3.3406,3.3406,3.3406,3.3406,3.3406,3.3406,3.3643,3.3863,3.3863,3.4117,3.4336,3.4336,3.3996,0.0,3.3028,3.211,3.1549,3.182,3.1311,3.1189,3.1849,3.1697,3.1482,3.1482,3.1482,3.1482,3.1482,3.1482,0.0,0.0,0.0,3.1482,3.1482,3.1482,0.0,0.0,0.0,3.1482,3.1482,3.1482,0.0,0.0,3.2237,3.2423,0.0,0.0,0.0,0.0,0.0,0.0,0.0,0.0,0.0,0.0,0.0,0.0,0.0,0.0,0.0,0.0,3.2609,3.3083,3.3179,3.3276,3.3295,3.3199,3.4045,3.4916,3.5638,3.616,3.6616,3.7012,3.6919,3.6719,3.646,0.0,0.0,0.0,0.0,3.7047,3.6056,3.6743,3.6603,3.5622,3.5622,3.5622,3.5622,3.5622,3.5622,3.5622,3.5622,3.5622,3.5622,3.5622,3.5622,3.5622,3.5622,3.5216,3.4539,3.3897,3.366,3.366,3.366,0.0,0.0,3.366,3.366,3.366,3.366,3.366,3.366,3.366,3.366,3.366,3.366,3.366,3.366,3.366,3.415,3.4624,3.4624,3.5148,3.5622,3.5622,3.547,3.5005,3.3786,3.2541,3.1836,3.2333,3.1873,3.1754,3.2382,3.1894,3.1482,3.1482,0.0,0.0,3.1482,3.1482,3.1482,3.1482,3.1482,3.1482,3.1482,3.1482,3.1482,3.1482,3.1482,3.1482,3.1482,3.1482,3.1482,3.1539,3.216,3.212,0.0,0.0,0.0,0.0,0.0,0.0,0.0,0.0,0.0,0.0,0.0,0.0,0.0,0.0,0.0,3.2704,3.3436,3.418,3.4911,3.5565,3.5718,3.5084,3.6334,3.7237,3.712,3.7202,3.7126,3.6801,3.7329,3.7553,3.7287,3.7881,3.8248,3.8248,3.7958,3.7539,3.6943,3.6694,3.6207,3.5622,0.0,0.0,3.5622,3.5622,3.5622,3.5622,3.5622,3.5622,3.5622,3.5622,3.5622,3.5622,3.5622,3.552,3.5385,3.525,3.5182,3.5182,3.5182,3.5182,3.5182,3.5182,3.5182,3.5182,3.5182,3.5182,0.0,3.5182,3.5182,3.5182,3.5182,3.5182,3.5182,3.5182,3.5301,3.5402,3.5402,3.552,3.5622,3.5622,3.4704,3.3887,3.3633,3.3367,3.2819,3.185,3.1607,3.1524,3.1682,3.1582,3.1482,3.1482,3.1482,3.1482,3.1482,3.1482,3.1482,3.1482,3.1482,3.1482,3.1482,3.1482,3.1482,3.1482,3.1482,3.1482,3.1482,3.1482,3.1482,3.1482,3.164,3.164,0.0,0.0,0.0,0.0,0.0,0.0,0.0,0.0,0.0,0.0,0.0,3.1769,0.0,0.0,3.3445,3.4186,3.4955,3.5757,3.6642,3.7469,3.77,3.6853,3.7488,3.8031,3.8136,3.8003,3.7882,3.7895,3.8146,3.8224,3.8132,3.8487,3.8707,3.8707,3.8183,3.7685,3.721,3.6684,3.6139,3.5622,3.5622,3.5825,3.6197,3.6197,3.64,3.6772,3.6772,3.6772,3.6738,3.6349,3.596,3.5622,3.5622,3.5622,3.5622,3.5622,3.5622,3.5622,3.5622,3.5622,3.5622,3.5622,3.5622,3.5622,3.5622,3.5622,3.5622,3.5622,3.5622,3.5622,3.5622,3.5622,3.5622,3.5622,3.5622,3.5622,3.5622,3.5622,3.5622,3.5622,3.48,3.3987,3.3633,3.3339,3.2734,3.1682,3.1482,3.1482,3.1482,3.1482,3.1482,3.1482,3.1482,3.1482,3.1482,3.1482,3.1482,3.1482,3.1482,3.1482,3.1482,3.1482,3.1482,3.1482,3.1482,3.1482,3.1482,3.1482,3.1482,3.1482,3.1482,3.1482,0.0,0.0,0.0,0.0,0.0,0.0,0.0,0.0,3.2245,3.2385,3.2419,3.2635,3.3371,3.4164,3.4966,3.5696,3.644,3.7257,3.8123,3.8854,3.9069,3.8485,3.8408,3.8542,3.8918,3.8647,3.8627,3.898,3.8815,3.8658,3.8546,3.8546,3.8515,3.8401,3.7877,3.7433,3.7076,3.6522,3.6096,3.5842,3.5842,3.6248,3.6992,3.6992,3.733,3.7905,3.7905,3.7821,3.7635,3.7043,3.6315,3.5622,3.5622,3.5622,3.5622,3.5622,3.5622,3.5622,3.5622,3.5622,3.5622,3.5622,3.5622,3.5622,3.5622,3.5622,3.5622,3.5622,3.5622,3.5622,3.5622,3.5622,3.5622,3.5622,3.5622,3.5622,3.5622,3.5515,3.5453,3.5577,3.4847,3.4087,3.3684,3.2933,3.216,3.1582,3.1482,3.1482,3.1482,3.1482,3.1482,3.1482,3.1482,3.1482,3.1482,3.1482,3.1482,3.1482,3.1482,3.1482,3.1482,3.1482,3.1482,3.1482,3.1482,3.1482,3.1482,3.1482,3.1482,3.1482,3.1482,3.1482,3.0857,3.0898,3.1094,3.1855,3.1543,3.1211,0.0,0.0,3.2385,3.3053,3.3179,3.3378,3.4063,3.4894,3.5715,3.6454,3.7296,3.8161,3.9027,3.9238,3.9445,3.9814,3.9872,3.9775,3.9517,3.9208,3.8943,3.8762,3.8719,3.8496,3.8013,3.798,3.7808,3.7377,3.6843,3.6522,3.6498,3.5985,3.6005,3.6654,3.6654,3.7043,3.7787,3.7787,3.7821,3.7905,3.7905,3.7533,3.6907,3.6806,3.6315,3.5622,3.5622,3.5622,3.5622,3.5622,3.5622,3.5622,3.5622,3.5622,3.5622,3.5622,3.5622,3.5622,3.5622,3.5622,3.5622,3.5622,3.5622,3.5622,3.5622,3.5622,3.5622,3.5622,3.5622,3.5622,3.5622,3.5144,3.4894,3.547,3.4103,3.2986,3.3479,3.2516,3.1582,3.1524,3.1482,3.1482,3.1482,3.1482,3.1482,3.1482,3.1482,3.1482,3.1482,3.1482,3.1482,3.1482,3.1482,3.1482,3.1482,3.1482,3.1482,3.1482,3.1482,3.1482,3.1482,3.1482,3.1482,3.1482,3.1482,3.1482,3.0868,0.0,0.0,0.0,3.2285,3.2441,3.2812,3.3281,3.3729,3.3998,3.4049,3.4428,3.5595,3.6113,3.6748,0.0,3.8527,3.9046,3.9873,3.9857,3.985,4.0082,3.9754,3.9462,3.9314,3.9186,3.8999,3.8719,3.8707,3.8465,3.7946,3.7893,3.7685,3.721,3.6684,3.6582,3.7032,3.6563,3.6671,3.7432,3.7432,3.7821,3.8531,3.8531,3.8768,3.9174,3.9174,3.8514,3.7432,3.7432,3.6721,3.5622,3.5622,3.5622,3.5622,3.5622,3.5622,3.5622,3.5622,3.5622,3.5622,3.5622,3.5622,3.5622,3.5622,3.5622,3.5622,3.5622,3.5316,3.5005,3.5005,3.4752,3.4544,3.4941,3.4704,3.4544,3.4941,3.4496,3.4087,3.4399,3.3751,3.3145,3.3039,3.2532,3.2007,3.1582,3.1482,3.1482,3.1482,3.1482,3.1482,3.1482,3.1482,3.1482,3.1482,3.1482,3.1482,3.1482,3.1482,3.1482,3.1482,3.1482,3.1482,3.1482,3.1482,3.1482,3.1482,3.1482,3.1482,3.1482,3.1928,3.2108,3.1867,0.0,0.0,3.2832,3.3144,3.3457,3.3691,3.4226,3.472,3.4872,3.4892,3.5268,3.6608,3.7031,3.7647,3.9065,3.9488,3.98,4.0312,4.0213,4.0022,3.9859,3.9408,3.9072,3.8999,3.8999,3.8923,3.8719,3.8747,3.8561,3.8061,3.8043,3.7869,3.7393,3.7015,3.7076,3.7627,3.7274,3.7466,3.821,3.821,3.8582,3.9292,3.9292,3.958,4.007,4.007,3.9242,3.7905,3.7905,3.7009,3.5622,3.5622,3.5622,3.5622,3.5622,3.5622,3.5622,3.5622,3.5622,3.5622,3.5622,3.5622,3.5577,3.5362,3.5316,3.5316,3.5115,3.4704,3.4333,3.4333,3.3987,3.3735,3.4186,3.3937,3.3735,3.4235,3.3786,3.3391,3.3582,3.3287,3.2933,3.2641,3.2437,3.212,3.1582,3.1482,3.1482,3.1482,3.1482,3.1482,3.1482,3.1482,3.1482,3.1482,3.1482,3.1482,3.1482,3.1482,3.1482,3.1482,3.1482,3.1482,3.1482,3.1482,3.1482,3.1482,3.1719,3.1809,3.1824,3.2482,3.2781,3.4355,0.0,3.3574,3.4414,3.4004,3.3613,3.4473,3.462,3.4808,3.5523,3.5609,3.5795,3.6584,3.7411,3.8257,3.9142,3.995,4.0386,4.0139,4.0101,3.9859,3.9212,3.9125,3.8999,0.0,3.8689,3.8707,3.8707,3.8891,3.8779,3.8306,3.8465,3.835,3.7868,3.7885,3.7855,3.7872,3.7872,3.8244,3.8954,3.8954,3.9343,4.0054,4.0054,4.0054,4.007,4.007,3.9242,3.7905,3.7905,3.7009,3.5622,3.5622,3.5622,3.5622,3.5622,3.5622,3.5622,3.5622,3.5622,3.5622,3.5622,3.5622,3.547,3.4847,3.4624,3.4479,3.3836,3.3633,3.3633,3.3633,3.3649,3.3582,3.3633,3.3582,3.3582,3.3633,3.3093,3.2841,3.3479,3.2516,3.1796,3.2492,3.2007,3.1524,3.1482,3.1482,3.1482,3.1482,3.1482,3.1482,3.1482,3.1482,3.1482,3.1482,3.1482,3.1482,3.1482,3.1482,3.1482,3.1482,3.1482,3.1482,3.1482,3.1482,3.1482,3.1482,3.2168,3.2482,3.2497,3.3155,3.3469,3.3906,0.0,3.4336,3.4629,3.4473,3.4484,3.531,3.5485,3.5495,3.5608,3.6087,3.6685,3.743,3.8277,3.9123,3.995,4.0183,4.0195,4.012,3.9731,3.9339,3.9125,3.8933,0.0,0.0,0.0,0.0,3.8876,3.8957,3.8863,3.8534,3.8538,3.8373,3.7905,3.7905,3.8142,3.8633,3.8633,3.8988,3.9715,3.9715,3.9834,4.007,4.007,4.007,4.0054,3.9563,3.8802,3.7872,3.7364,3.6552,3.5622,3.5622,3.5622,3.5622,3.5622,3.5622,3.5622,3.5622,3.5622,3.5515,3.5098,3.4941,3.4783,3.4137,3.3937,3.3887,3.3684,3.3287,3.2949,3.2949,3.2571,3.2312,3.2841,3.2571,3.2367,3.2841,3.2367,3.2088,3.2726,3.2859,3.2883,3.3137,3.3358,3.3358,3.2886,3.2093,3.1482,3.1482,3.1482,3.1482,3.1482,3.1482,3.1482,3.1482,3.1482,3.1482,3.1482,3.1482,3.1482,3.1482,3.1482,3.1482,3.1482,3.1482,3.1691,3.2183,3.2407,3.2736,3.3185,3.3844,3.4143,3.4473,3.4746,3.5156,3.5156,3.5156,3.5296,3.5794,3.5853,3.5795,3.5641,3.6031,3.6628,3.7411,3.7988,3.8738,3.9892,3.9934,3.9852,3.9905,3.9552,3.9205,3.8971,3.8803,3.8627,0.0,0.0,0.0,3.8977,3.9149,3.9171,3.8987,3.9055,3.8982,3.8684,3.8684,3.8903,3.9377,3.9377,3.9614,4.007,3.9782,3.9833,4.007,4.007,4.007,4.0037,3.9309,3.8582,3.7838,3.7094,3.6315,3.5622,3.5622,3.5622,3.5622,3.5622,3.5622,3.5622,3.5622,3.5453,3.5161,3.4736,3.4431,3.4137,3.3443,3.3235,3.3182,3.2917,3.2516,3.2231,3.2231,3.1853,3.164,3.212,3.1853,3.164,3.212,3.2034,3.2003,3.2437,3.3061,3.3526,3.3471,3.3864,3.3969,3.3546,3.2781,3.2228,3.2228,3.2228,3.2228,3.2228,3.2228,3.2228,3.2228,3.2228,3.2228,3.2228,3.2228,3.2228,3.2228,3.2228,3.2228,3.2228,3.2228,3.2437,3.2871,3.3095,3.344,3.3858,3.4532,3.4846,3.5996,3.5996,3.5996,3.5996,3.5996,3.5979,3.5913,3.579,3.568,3.5622,3.5584,3.5795,0.0,0.0,3.73,3.8935,3.9208,3.9293,3.9498,3.9557,3.9327,0.0,0.0,0.0,0.0,0.0,0.0,3.896,0.0,3.9721,3.9727,3.9944,4.007,4.007,4.007,4.007,4.007,4.007,4.002,4.002,3.9246,3.9315,4.002,4.007,4.0054,3.9986,3.9242,3.8531,3.7787,3.7026,3.6282,3.5622,3.5622,3.5622,3.5622,3.5622,3.5622,3.5622,3.5622,3.5144,3.4576,3.4576,3.4087,3.3427,3.2734,3.2532,3.2382,3.1697,3.1482,3.1482,3.1482,3.1482,3.1482,3.1482,3.1482,3.1482,3.1511,3.2078,3.2542,3.2602,3.314,3.3604,3.3604,3.3604,3.3604,3.3604,3.3604,3.3574,3.3499,3.3499,3.3499,3.3499,3.3499,3.3499,3.3499,3.3499,3.3499,3.3499,3.3499,3.3499,3.3499,3.3499,3.3499,3.3499,3.3499,3.3514,3.3544,3.4173,3.4502,3.4547,3.519,3.5504,3.582,3.5996,3.5996,3.5996,3.5996,3.595,3.5787,3.572,3.568,3.5565,3.5988,3.6469,0.0,0.0,0.0,3.7957,3.815,0.0,3.8347,3.8682,0.0,3.8738,0.0,3.8065,3.7893,3.7884,0.0,0.0,3.9328,3.9795,3.998,4.0069,4.007,4.007,4.007,4.007,4.007,3.9489,3.9209,3.9193,3.9016,3.9032,3.9209,3.985,3.9783,3.9225,3.8497,3.7753,3.7009,3.6231,3.5808,3.5622,3.5622,3.5622,3.5622,3.5622,3.5622,3.5622,3.5622,3.5144,3.4528,3.4037,3.3391,3.2734,3.2007,3.1796,3.1739,3.1524,3.1482,3.1482,3.1482,3.1482,3.1482,3.1482,3.1482,3.1616,3.2153,3.2392,3.2811,3.3784,3.4532,3.4996,3.4996,3.4996,3.4996,3.4996,3.4996,3.4637,3.3619,3.3499,3.3499,3.3499,3.3499,3.3499,3.3499,3.3499,3.3499,3.3499,3.3499,3.3499,3.3499,3.3499,3.3499,3.3499,3.3499,3.3739,3.4233,3.4397,3.4741,3.525,3.5429,3.5504,3.5762,3.5996,3.5996,3.5996,3.5988,3.5905,3.5749,3.5678,3.5641,3.5526,3.5872,0.0,3.618,3.6342,0.0,0.0,0.0,0.0,3.7802,3.8173,3.8332,0.0,3.8099,0.0,3.7268,3.7405,3.7724,0.0,3.8973,3.9583,4.0087,4.007,4.007,4.007,4.007,3.9952,3.961,3.8816,3.8414,3.8414,3.806,3.806,3.8414,3.8595,3.846,3.7961,0.0,3.6257,3.5811,3.5368,3.5005,3.4752,3.5052,3.5005,3.4704,3.4704,3.4911,3.5144,3.5144,3.4736,3.4087,3.3735,3.2933,3.2064,3.164,3.1482,3.1482,3.1482,3.1482,3.1482,3.1482,3.1482,3.1482,3.1482,3.1482,3.1661,3.2377,3.2736,3.3335,3.4666,3.5235,3.5504,3.5504,3.5504,3.5504,3.5504,3.5504,3.5235,3.4472,3.4382,3.4382,3.4382,3.4382,3.4382,3.4382,3.4382,3.4382,3.4382,3.4382,3.4382,3.4382,3.4382,3.4382,3.4382,3.4382,3.4562,3.4921,3.4921,3.513,3.5504,3.5504,3.5504,3.5723,3.5996,3.5996,3.5989,3.5931,3.5856,3.5724,3.5637,3.5545,3.5372,0.0,3.5295,3.518,3.4894,3.4977,3.5794,0.0,3.6066,3.7322,3.7652,3.7745,3.776,3.7736,3.7342,3.6481,3.692,3.7435,3.7885,3.8481,3.9208,4.0037,4.007,4.007,4.007,4.002,3.961,3.8908,3.8076,3.7632,3.7632,3.6904,3.6964,3.7616,3.7054,3.6726,3.6565,3.5268,3.4643,3.4567,3.4496,3.4137,3.3633,3.4235,3.4137,3.3582,3.3582,3.3987,3.4479,3.4479,3.4037,3.3495,3.3582,3.2664,3.1482,3.1482,3.1482,3.1482,3.1482,3.1482,3.1482,3.1482,3.1482,3.1482,3.1482,3.1482,3.1676,3.2482,3.323,3.4113,3.528,3.5504,3.5504,3.5504,3.5504,3.5504,3.5504,3.5504,3.5504,3.5504,3.5504,3.5504,3.5504,3.5504,3.5504,3.5504,3.5504,3.5504,3.5504,3.5504,3.5504,3.5504,3.5504,3.5504,3.5504,3.5504,3.5504,3.5504,3.5504,3.5504,3.5504,3.5504,3.5504,3.5566,3.5996,3.5986,3.5931,3.5907,3.5848,3.5663,3.5605,0.0,0.0,3.443,3.4199,3.3487,3.2988,3.2977,3.3771,0.0,0.0,0.0,0.0,3.6888,0.0,0.0,0.0,0.0,0.0,0.0,0.0,0.0,3.8667,4.0003,4.007,4.007,4.007,3.9437,3.9032,3.8908,3.7541,3.6783,3.6783,3.6676,3.6661,3.6828,3.681,3.6469,3.5838,3.5059,0.0,3.3809,3.3799,3.3684,3.3582,3.3735,3.3684,3.3582,3.3582,3.3684,3.3786,3.3786,3.3339,3.2841,3.3443,3.2664,3.1482,3.1482,3.1482,3.1482,3.1482,3.1482,3.1482,3.1482,3.1482,3.1482,3.1482,3.1482,3.1869,3.3066,3.4292,3.522,3.5459,3.5504,3.5504,3.5504,3.5504,3.5504,3.5504,3.5504,3.5504,3.5504,3.5504,3.5504,3.5504,3.5504,3.5504,3.5504,3.5504,3.5504,3.5504,3.5504,3.5504,3.5504,3.5504,3.5504,3.5504,3.5504,3.5504,3.5504,3.5504,3.5504,3.5504,3.5504,3.5504,3.4937,3.5592,3.5927,3.5825,3.577,3.5603,3.5045,0.0,0.0,0.0,3.3526,3.3365,3.2842,3.2452,0.0,3.2535,3.2736,3.312,3.3967,0.0,0.0,0.0,0.0,0.0,0.0,0.0,0.0,0.0,0.0,3.807,4.0003,3.9714,3.9332,3.8941,3.8541,3.8117,3.77,3.6948,3.6384,3.6054,3.6054,3.5872,3.5491,3.5212,3.4709,3.3986,3.3361,3.281,3.2571,3.2933,3.2826,3.2571,3.2933,3.2826,3.2516,3.2516,3.2772,3.3093,3.3093,3.2895,3.2641,3.3002,3.2367,3.1482,3.1482,3.1482,3.1482,3.1482,3.1482,3.1482,3.1482,3.1482,3.1482,3.1482,3.2063,3.2721,3.3365,3.4562,3.5504,3.5504,3.5504,3.5504,3.5504,3.5504,3.5504,3.5504,3.5504,3.5504,3.5504,3.5504,3.5504,3.5504,3.5504,3.5504,3.5504,3.5504,3.5504,3.5504,3.5504,3.5504,3.5504,3.5504,3.5504,3.5504,3.5504,3.5504,3.5504,3.5504,3.5504,3.5504,3.5504,3.5504,3.408,3.4809,3.5297,3.5174,3.5104,3.4872,3.416,3.3949,0.0,0.0,3.2641,3.2513,3.2134,0.0,3.1638,0.0,3.1733,3.2115,3.2852,3.3865,3.4674,0.0,0.0,0.0,0.0,0.0,0.0,0.0,3.6671,3.7557,3.9492,3.8978,3.8414,3.7822,3.7632,3.7219,3.6615,3.6446,3.6054,3.5504,3.5355,3.4996,3.4442,3.3649,3.3006,3.2482,3.1824,3.1482,3.1524,3.212,3.2007,3.1582,3.212,3.2007,3.1482,3.1482,3.1853,3.2382,3.2382,3.2382,3.2382,3.2382,3.1951,3.1482,3.1482,3.1482,3.1482,3.1482,3.1482,3.1482,3.1482,3.1482,3.1482,3.1482,3.2542,3.3499,3.3499,3.4562,3.5504,3.5504,3.5504,3.5504,3.5504,3.5504,3.5504,3.5504,3.5504,3.5504,3.5504,3.5504,3.5504,3.5504,3.5504,3.5504,3.5504,3.5504,3.5504,3.5504,3.5504,3.5504,3.5504,3.5504,3.5504,3.5504,3.5504,3.5504,3.5504,3.5504,3.5504,3.5504,3.5504,3.5504,3.3096,3.3384,3.3423,3.3357,3.3326,3.3269,3.3064,0.0,0.0,3.1987,3.1814,3.1495,3.0424,3.0073,3.0095,0.0,0.0,3.1616,3.204,3.303,3.3846,3.4164,0.0,0.0,3.5554,3.5622,0.0,3.5778,3.6425,3.7142,3.7946,3.7921,3.7863,3.7822,3.7084,3.6661,3.6615,3.5958,3.5569,3.5489,3.4861,3.4532,3.4442,3.3185,3.2572,3.2482,3.1824,3.1482,0.0,3.1582,3.1582,3.1539,3.1582,3.1582,3.1482,3.1482,3.1524,3.1582,3.1582,3.1582,3.1582,3.1582,3.1582,3.1482,3.1482,3.1482,3.1482,3.1482,3.1482,3.1482,3.1482,3.1482,3.1482,3.1482,3.2542,3.3499,3.3499,3.4562,3.5504,3.5504,3.5504,3.5504,3.5504,3.5504,3.5504,3.5504,3.5504,3.5504,3.5504,3.5504,3.5504,3.5504,3.5504,3.5504,3.5504,3.5504,3.5504,3.5504,3.5504,3.5504,3.5504,3.5504,3.5504,3.5504,3.5504,3.5504,3.5504,3.5504,3.5504,3.5504,3.5504,3.5504,3.2271,3.2748,3.3115,3.3019,3.2981,3.2846,3.2295,0.0,3.1885,3.0866,3.068,3.0467,2.9771,2.957,2.9547,0.0,0.0,0.0,3.1171,3.1989,3.2908,3.3969,3.4353,0.0,0.0,0.0,3.484,3.4399,3.5023,3.556,3.5814,3.664,3.6874,3.643,3.6133,3.5943,3.5943,3.5262,3.4891,3.4876,3.4203,3.3679,3.3275,3.2751,3.2302,3.1855,3.1644,3.1482,0.0,3.1482,3.1482,3.1482,3.1482,3.1482,3.1482,3.1482,3.1482,3.1482,3.1482,3.1482,3.1482,3.1482,3.1482,3.1482,3.1482,3.1482,3.1482,3.1482,3.1482,3.1482,3.1482,3.1482,3.1482,3.1482,3.2542,3.3499,3.3499,3.4562,3.5504,3.5504,3.5504,3.5504,3.5504,3.5504,3.5504,3.5504,3.5504,3.5504,3.5504,3.5504,3.5504,3.5504,3.5504,3.5504,3.5504,3.5504,3.5504,3.5504,3.5504,3.5504,3.5504,3.5504,3.5504,3.5504,3.5504,3.5504,3.5504,3.5504,3.5504,3.5504,3.5504,3.5504,3.1398,3.1833,3.2288,3.2179,3.216,3.2006,0.0,0.0,3.1072,3.0176,2.9999,2.9877,2.9455,2.9412,2.931,2.9044,0.0,3.0016,3.0702,3.1303,3.2262,0.0,0.0,0.0,0.0,3.4235,3.387,3.3541,3.3725,3.3969,3.4205,3.5124,3.5643,3.5489,3.531,3.519,3.519,3.4517,3.4188,3.4188,3.3514,3.2961,3.2497,3.2317,3.1973,3.1482,3.1482,3.1482,0.0,3.1482,3.1482,3.1482,3.1482,3.1482,3.1482,3.1482,3.1482,3.1482,3.1482,3.1482,3.1482,3.1482,3.1482,3.1482,3.1482,3.1482,3.1482,3.1482,3.1482,3.1482,3.1482,3.1482,3.1482,3.1482,3.2392,3.326,3.3455,3.4397,3.5265,3.5474,3.5504,3.5504,3.5504,3.5504,3.5504,3.5504,3.5504,3.5504,3.5504,3.5504,3.5504,3.5504,3.5504,3.5504,3.5504,3.5504,3.5504,3.5504,3.5504,3.5504,3.5504,3.5504,3.5504,3.5504,3.5504,3.5504,3.5504,3.5504,3.5504,3.5504,3.5504,3.5504,3.0398,3.0417,3.0417,3.0417,3.0417,3.0417,0.0,3.0398,3.0343,3.0061,2.9999,2.9877,2.9455,2.9412,2.931,2.9044,2.9677,0.0,3.073,3.1105,0.0,0.0,0.0,3.3705,3.4539,3.3391,3.2865,3.3444,3.2879,0.0,3.3469,3.3499,3.4128,3.5459,3.4846,3.4487,3.4487,3.3844,3.3499,3.3499,3.2841,3.2527,3.2497,3.1839,3.1482,3.1482,3.1482,3.1482,0.0,3.1482,3.1482,3.1482,3.1482,3.1482,3.1482,3.1482,3.1482,3.1482,3.1482,3.1482,3.1482,3.1482,3.1482,3.1482,3.1482,3.1482,3.1482,3.1482,3.1482,3.1482,3.1482,3.1482,3.1482,3.1482,3.2048,3.2706,3.3365,3.4023,3.4696,3.537,3.5504,3.5504,3.5504,3.5504,3.5504,3.5504,3.5504,3.5504,3.5504,3.5504,3.5504,3.5504,3.5504,3.5504,3.5504,3.5504,3.5504,3.5504,3.5504,3.5504,3.5504,3.5504,3.5504,3.5504,3.5504,3.5504,3.5504,3.5504,3.5504,3.5504,3.5504,3.5504,3.0398,3.0398,3.0398,3.0398,3.0398,3.0398,3.0398,3.0254,3.0061,2.9829,2.9678,2.9513,2.9181,2.9134,2.9089,2.9017,2.9195,0.0,0.0,0.0,0.0,3.3134,3.3039,3.2965,0.0,0.0,3.1928,3.214,3.236,3.2602,3.2811,3.3245,3.3694,3.4113,3.3918,3.3799,3.3799,3.3155,3.2826,3.2826,3.2153,3.1839,3.1839,3.1571,3.1482,3.1482,3.1482,3.1482,3.1482,3.1482,3.1482,3.1482,3.1482,3.1482,3.1482,3.1482,3.1482,3.1482,3.1482,3.1482,3.1482,3.1482,3.1482,3.1482,3.1482,3.1482,3.1482,3.1482,3.1482,3.1482,3.1482,3.1482,3.1482,3.1482,3.2033,3.2572,3.2781,3.3694,3.4547,3.4756,3.519,3.5504,3.5504,3.5504,3.5504,3.5504,3.5504,3.5504,3.5504,3.5504,3.5504,3.5504,3.5504,3.5504,3.5504,3.5504,3.5504,3.5504,3.5504,3.5504,3.5504,3.5504,3.5504,3.5504,3.5504,3.5504,3.5504,3.5504,3.5504,3.5504,3.5504,3.5504,0.0,3.0398,3.0386,3.0267,3.0254,0.0,3.0142,3.0003,2.9829,2.9644,2.9474,2.931,2.9044,2.8994,2.8994,2.8994,2.8863,0.0,0.0,0.0,0.0,3.2187,0.0,0.0,0.0,3.1951,3.1482,3.1482,3.1913,3.2138,3.2138,3.2527,3.2766,3.2766,3.2991,3.3125,3.3125,3.2482,3.2138,3.2138,3.1676,3.1482,3.1482,3.1482,3.1482,3.1482,3.1482,3.1482,0.0,3.1482,3.1482,3.1482,3.1482,3.1482,3.1482,3.1482,3.1482,3.1482,3.1482,3.1482,3.1482,3.1482,3.1482,3.1482,3.1482,3.1482,3.1482,3.1482,3.1482,3.1482,3.1482,3.1482,3.1482,3.1482,3.1795,3.2213,3.2467,3.3155,3.3888,3.4382,3.4816,3.519,3.5459,3.5504,3.5504,3.5504,3.5504,3.5504,3.5504,3.5504,3.5504,3.5504,3.5504,3.5504,3.5504,3.5504,3.5504,3.5504,3.5504,3.5504,3.5504,3.5504,3.5504,3.5504,3.5504,3.5504,3.5504,3.5504,3.5504,3.5504,3.5504,3.5504,0.0,3.0355,3.0299,0.0,0.0,0.0,2.9729,2.9696,0.0,2.9434,2.9392,2.9289,2.9062,2.8994,2.897,2.897,2.8633,0.0,0.0,2.9573,0.0,0.0,3.1526,0.0,3.2524,3.1951,3.1482,3.1482,3.1482,3.1482,3.1482,3.1482,3.1482,3.1482,3.2064,3.2378,3.2437,3.1839,3.1482,3.1482,3.1482,3.1482,3.1482,3.1409,3.1409,0.0,3.1351,3.1351,3.1409,3.1409,3.1409,3.1409,3.1467,3.1409,3.1351,3.1409,3.1409,3.1409,3.1351,3.1351,3.1409,3.1409,3.1467,3.1482,3.1482,3.1482,3.1482,3.1482,3.1482,3.1482,3.1482,3.1482,3.1482,3.1482,3.1482,3.1646,3.2317,3.2482,3.2871,3.4098,3.4412,3.4681,3.5325,3.5474,3.5504,3.5504,3.5504,3.5504,3.5504,3.5504,3.5504,3.5504,3.5504,3.5504,3.5504,3.5504,3.5504,3.5504,3.5504,3.5504,3.5504,3.5504,3.5504,3.5504,3.5504,3.5504,3.5504,3.5504,3.5504,3.5504,3.5504,3.5504,2.9848,0.0,2.9848,2.9799,2.9763,2.9765,0.0,2.9589,2.9454,0.0,0.0,2.9067,2.9017,2.8749,2.854,2.854,0.0,0.0,2.9624,0.0,0.0,3.1374,3.1062,3.1247,3.247,3.1951,3.1482,3.1482,3.1482,3.1482,3.1482,3.1482,3.1482,3.1482,3.1057,3.1116,3.1706,3.1556,3.1482,3.1482,3.1482,3.1482,3.1467,3.0837,3.0584,3.0524,2.9889,2.995,3.0584,3.0584,3.0584,3.0644,3.1278,3.0718,2.969,3.0329,3.0584,3.0524,2.9827,3.0011,3.0584,3.0584,3.1029,3.1482,3.1482,3.1482,3.1482,3.1482,3.1482,3.1482,3.1482,3.1482,3.1482,3.1482,3.1482,3.1511,3.1676,3.2153,3.2602,3.2916,3.3784,3.4532,3.4696,3.516,3.5504,3.5504,3.5504,3.5504,3.5504,3.5504,3.5504,3.5504,3.5504,3.5504,3.5504,3.5504,3.5504,3.5504,3.5504,3.5504,3.5504,3.5504,3.5504,3.5504,3.5504,3.5504,3.5504,3.5504,3.5504,3.5504,3.5504,3.5504,2.9304,2.9533,2.9678,2.9589,2.9551,2.9533,2.9397,0.0,0.0,0.0,0.0,2.8707,2.8707,2.8412,0.0,0.0,2.8152,0.0,0.0,0.0,0.0,3.1018,3.1025,3.1302,0.0,3.1739,3.1482,3.1482,3.1482,3.1351,3.097,3.1278,3.1161,3.0389,3.0329,3.0524,3.097,3.0524,3.0329,3.0329,3.0329,3.0584,3.0896,3.0072,2.995,3.0269,2.938,2.9254,2.969,2.969,2.969,2.9766,3.0208,2.9827,2.9066,2.9504,2.969,2.9628,2.9192,2.9317,2.9766,3.0147,3.0584,3.1029,3.1409,3.1482,3.1482,3.1482,3.1482,3.1482,3.1482,3.1482,3.1482,3.1482,3.1482,3.1482,3.1482,3.1824,3.2153,3.2452,3.3095,3.3769,3.4367,3.4786,3.5145,3.5459,3.5504,3.5504,3.5504,3.5504,3.5504,3.5504,3.5504,3.5504,3.5504,3.5504,3.5504,3.5504,3.5504,3.5504,3.5504,3.5504,3.5504,3.5504,3.5504,3.5504,3.5504,3.5504,3.5504,3.5504,3.5504,3.5504,2.868,2.9161,2.9476,2.9373,2.933,2.9267,2.9044,0.0,0.0,0.0,0.0,0.0,0.0,2.8047,0.0,0.0,0.0,0.0,2.887,3.0087,3.0852,3.0534,3.0963,0.0,3.1664,3.1582,3.1482,3.1482,3.1409,3.1029,3.0329,3.0837,3.0464,2.9066,2.9566,2.9889,2.9889,2.9317,2.9002,2.9002,2.9002,2.938,3.0072,2.9192,2.9192,2.9889,0.0,0.0,2.8812,2.8812,2.8812,2.8812,2.8939,2.8812,2.862,2.8748,2.8812,2.8812,2.8812,2.8812,2.8939,2.9827,3.0208,3.045,3.1278,3.1482,3.1482,3.1482,3.1482,3.1482,3.1482,3.1482,3.1482,3.1482,3.1482,3.1482,3.1482,3.1482,3.1704,3.2258,3.2437,3.2871,3.3978,3.4337,3.4666,3.5265,3.5429,3.5504,3.5504,3.5504,3.5504,3.5504,3.5504,3.5504,3.5504,3.5504,3.5504,3.5504,3.5504,3.5504,3.5504,3.5504,3.5504,3.5504,3.5504,3.5504,3.5504,3.5504,3.5504,3.5504,3.5504,3.5504,2.7974,2.8273,2.8676,2.898,2.9044,2.9044,2.9017,0.0,0.0,0.0,0.0,0.0,0.0,0.0,0.0,0.0,0.0,2.8036,0.0,0.0,2.9357,3.0472,0.0,3.0561,3.2259,3.1853,3.1482,3.1482,3.0896,3.045,3.0329,2.969,2.9254,2.9002,2.8427,2.8117,2.8117,2.8684,2.9002,2.9002,2.9002,2.9066,2.9192,2.8298,2.7986,2.8051,0.0,2.7297,2.792,2.792,2.792,2.7986,2.8684,2.8117,2.6973,2.767,2.792,2.792,2.792,2.792,2.8051,2.8939,2.969,3.045,3.1278,3.1482,3.1482,3.1482,3.1482,3.1482,3.1482,3.1482,3.1482,3.1482,3.1482,3.1482,3.1482,3.1482,3.1497,3.1601,3.2138,3.2587,3.2781,3.3739,3.4502,3.4622,3.513,3.5504,3.5504,3.5504,3.5504,3.5504,3.5504,3.5504,3.5504,3.5504,3.5504,3.5504,3.5504,3.5504,3.5504,3.5504,3.5504,3.5504,3.5504,3.5504,3.5504,3.5504,3.5504,3.5504,3.5504,3.5504,2.7504,2.7659,2.7717,2.8474,2.8533,2.8404,2.8404,0.0,0.0,0.0,0.0,0.0,0.0,0.0,2.7162,2.7636,0.0,2.8281,2.8458,2.9122,2.9831,0.0,0.0,3.1051,3.1916,3.1306,3.0837,3.0837,3.0072,2.938,2.8939,2.8939,2.8556,2.767,2.767,2.7484,2.704,2.7484,2.767,2.767,2.767,2.7855,2.8233,2.7417,2.7284,2.767,0.0,2.6714,2.704,2.704,2.704,2.7095,2.7484,2.7162,2.6521,2.6905,2.704,2.704,2.704,2.704,2.7162,2.8051,2.8876,2.9766,3.0584,3.1161,3.1482,3.1482,3.1482,3.1482,3.1482,3.1482,3.1482,3.1482,3.1482,3.1482,3.1482,3.1482,3.1482,3.1482,3.1779,3.2093,3.2452,3.3305,3.4068,3.4427,3.5055,3.5504,3.5504,3.5504,3.5504,3.5504,3.5504,3.5504,3.5504,3.5504,3.5504,3.5504,3.5504,3.5504,3.5504,3.5504,3.5504,3.5504,3.5504,3.5504,3.5504,3.5504,3.5504,3.5504,3.5504,3.5504,2.6936,2.7022,2.6914,2.7888,0.0,2.7897,2.7897,0.0,0.0,0.0,0.0,0.0,0.0,2.6927,0.0,2.7765,2.8014,2.8281,2.8886,2.9485,2.9956,3.0243,3.0775,3.1204,3.145,3.0777,3.0329,3.0329,2.9317,2.8427,2.7736,2.8182,2.7868,2.6521,2.7095,2.7095,2.6533,2.6533,2.6533,2.6533,2.6533,2.685,2.7417,2.6782,2.685,2.7351,2.6782,2.6533,2.6533,2.6533,2.6533,2.6533,2.6533,2.6533,2.6533,2.6533,2.6533,2.6533,2.6533,2.6533,2.6658,2.7417,2.8182,2.8876,2.9752,3.0584,3.1161,3.097,3.1087,3.1219,3.1219,3.1219,3.1219,3.1219,3.1351,3.1482,3.1482,3.1482,3.1482,3.1482,3.1482,3.1631,3.2198,3.2764,3.3386,3.4173,3.4743,3.5213,3.5439,3.5504,3.5504,3.5504,3.5504,3.5504,3.5504,3.5504,3.5504,3.5504,3.5504,3.5359,3.5133,3.5359,3.5504,3.5504,3.5504,3.5504,3.5504,3.5504,3.5504,3.5504,3.5279,3.5133,2.5912,2.6189,2.6427,2.7187,0.0,0.0,2.7897,2.7897,0.0,0.0,0.0,0.0,0.0,2.6831,2.6967,2.7224,2.7397,2.7534,2.7705,0.0,2.8267,2.9522,2.9717,3.0203,3.142,3.0777,3.0329,3.0329,2.8748,2.7802,2.767,2.704,2.6589,2.6533,2.6589,2.6589,2.6533,2.6533,2.6533,2.6533,2.6533,2.6521,2.6589,2.6521,2.6521,2.6589,2.6521,2.6533,2.6533,2.6533,2.6533,2.6533,2.6533,2.6533,2.6533,2.6533,2.6533,2.6533,2.6533,2.6533,2.6658,2.7417,2.7736,2.7986,2.8812,2.969,3.0208,2.938,2.9766,3.0389,3.0389,3.0389,3.0389,3.0389,3.097,3.1482,3.1482,3.1482,3.1482,3.1482,3.1482,3.1497,3.1541,3.1936,3.2504,3.3421,3.3885,3.4461,3.5359,3.5504,3.5504,3.5504,3.5504,3.5504,3.5504,3.5504,3.5504,3.5504,3.5504,3.5067,3.4177,3.4986,3.5504,3.5504,3.5504,3.5504,3.5504,3.5504,3.5504,3.5504,3.4543,3.4095,2.4753,2.5065,2.5377,2.6359,0.0,0.0,0.0,0.0,0.0,0.0,0.0,0.0,0.0,0.0,2.6883,2.7753,2.7659,2.7557,2.758,2.7625,2.7919,2.8861,2.934,2.9744,3.009,2.9722,2.9254,2.8748,2.7604,2.6973,2.6973,2.6658,2.6533,2.6533,2.6533,2.6533,2.6533,2.6533,2.6533,2.6533,2.6533,2.6533,2.6533,2.6533,2.6533,2.6533,2.6533,2.6533,2.6533,2.6533,2.6533,2.6533,2.6533,2.6533,2.6533,2.6533,2.6533,2.6533,2.6533,2.6533,2.6521,2.685,2.7284,2.7736,2.8117,2.8812,2.9442,2.9066,2.8876,2.8812,2.938,2.9504,2.9628,3.0147,3.0524,3.0896,3.1409,3.1482,3.1482,3.1482,3.1482,3.1482,3.1482,3.1831,3.2219,3.2553,3.3419,3.3959,3.3754,3.4192,3.4543,3.4543,3.5133,3.5504,3.5504,3.5504,3.5213,3.461,3.5133,3.5359,3.4986,3.5294,3.5504,3.5504,3.4905,3.4543,3.4543,3.3973,3.3685,3.3685,3.3325,3.3449,2.3962,2.4361,2.4737,0.0,0.0,0.0,0.0,0.0,0.0,0.0,0.0,0.0,0.0,0.0,0.0,0.0,2.7777,2.7625,2.7625,2.7408,2.7491,2.8172,2.8468,2.8708,2.8938,2.8602,2.816,2.7723,2.6973,2.6533,2.6533,2.6533,2.6533,2.6533,2.6533,2.6533,2.6533,2.6533,2.6533,2.6533,2.6533,2.6533,2.6533,2.6533,2.6533,2.6533,2.6533,2.6533,2.6533,2.6533,2.6533,2.6533,2.6533,2.6533,2.6533,2.6533,2.6533,2.6533,2.6533,2.6533,2.6533,2.6533,2.6837,2.7284,2.7284,2.792,2.8556,2.8298,2.7986,2.7802,2.8117,2.8427,2.8748,2.9317,2.969,3.0011,3.0584,3.0896,3.1087,3.1087,3.1351,3.1482,3.1482,3.1409,3.1511,3.2048,3.2567,3.2821,3.265,3.3171,3.3533,3.3533,3.4192,3.4558,3.4558,3.4558,3.4259,3.3602,3.4192,3.4558,3.4558,3.4854,3.492,3.4558,3.3891,3.3533,3.3533,3.289,3.2593,3.2593,3.2593,3.2961,2.3673,2.4196,0.0,0.0,0.0,0.0,0.0,0.0,0.0,0.0,0.0,0.0,2.639,0.0,0.0,2.7488,2.7519,2.7625,2.7625,2.6982,2.6741,2.7414,2.6877,2.6882,2.8028,2.7422,2.7103,2.7617,2.696,2.6521,2.6533,2.6533,2.6533,2.6533,2.6533,2.6533,2.6533,2.6533,2.6533,2.6533,2.6533,2.6533,2.6533,2.6533,2.6533,2.6533,2.6533,2.6533,2.6533,2.6533,2.6533,2.6521,2.6521,2.6521,2.6508,2.6521,2.6521,2.6521,2.6533,2.6533,2.6533,2.6533,2.6533,2.6533,2.6533,2.704,2.755,2.6714,2.7095,2.7484,2.6714,2.7095,2.767,2.767,2.8363,2.9002,2.9002,2.969,3.0269,3.0269,3.0896,3.1467,3.1482,3.0525,3.0304,3.1847,3.1131,3.0908,3.2382,3.2593,3.2593,3.2593,3.2593,3.2593,3.2593,3.2593,3.2593,3.2593,3.2593,3.2593,3.2593,3.3518,3.3518,3.2593,3.2593,3.2593,3.2593,3.2593,3.2593,3.2593,3.2593,3.2593,2.2716,0.0,0.0,0.0,0.0,0.0,0.0,0.0,0.0,0.0,0.0,2.5751,2.6757,0.0,0.0,2.7952,2.7856,2.7625,2.7625,2.6982,2.6582,2.6769,2.6553,2.6318,2.6036,2.6206,2.6319,2.6253,2.5971,2.6025,2.6508,2.6533,2.6533,2.6533,2.6533,2.6533,2.6533,2.6533,2.6533,2.6533,2.6533,2.6533,2.6533,2.6533,2.6533,2.6533,2.6533,2.6533,2.6533,2.6533,2.6214,2.585,2.585,2.5636,2.5347,2.5724,2.585,2.5912,2.6314,2.6533,2.6533,2.6533,2.6533,2.6533,2.6533,2.6658,2.6782,2.6589,2.6658,2.6782,2.6589,2.6658,2.6973,2.7537,2.792,2.8247,2.8876,2.9192,2.938,2.938,2.9566,2.995,3.0524,2.9678,2.9363,3.0835,3.0659,3.0705,3.1529,3.1609,3.1609,3.1609,3.2249,3.2593,3.2593,3.2593,3.2593,3.2593,3.2593,3.2593,3.2593,3.289,3.289,3.2593,3.196,3.1609,3.1609,3.0983,3.0633,3.0633,3.0633,3.0983,2.1827,0.0,0.0,0.0,0.0,0.0,0.0,0.0,0.0,0.0,0.0,2.5466,2.6451,2.6458,0.0,2.7957,2.7595,2.7152,2.7152,2.6283,2.5618,2.5618,2.532,2.5004,2.4667,2.5003,2.5255,2.5313,2.5285,2.5435,2.5787,2.5812,2.5812,2.5812,2.5812,2.5812,2.5812,2.5812,2.5812,2.5812,2.5812,2.5812,2.5812,2.6025,2.6113,2.6101,2.59,2.5812,2.5812,2.5812,2.5598,2.5285,2.5285,2.5096,2.4858,2.5172,2.5285,2.5335,2.5686,2.5937,2.6113,2.6113,2.6264,2.6533,2.6533,2.6533,2.6533,2.6533,2.6533,2.6533,2.6533,2.6533,2.6589,2.7095,2.7229,2.7351,2.7855,2.8247,2.8492,2.8492,2.8748,2.9192,2.969,2.8906,2.8637,2.9929,3.0177,3.0258,3.0581,3.062,3.062,3.062,3.1119,3.1476,3.1476,3.1476,3.1476,3.1476,3.1476,3.1476,3.1476,3.1829,3.1888,3.1476,3.0908,3.062,3.062,3.0075,2.9792,2.9792,3.0216,3.062,2.115,0.0,0.0,0.0,0.0,0.0,0.0,0.0,0.0,0.0,0.0,2.5973,2.565,2.6565,2.738,2.749,2.693,2.6457,2.6404,2.5175,2.4292,2.4292,2.3603,2.3339,2.3866,2.3916,2.4155,2.4707,2.4745,2.477,2.482,2.482,2.482,2.482,2.482,2.482,2.482,2.482,2.482,2.482,2.482,2.482,2.4845,2.531,2.5523,2.5498,2.5021,2.482,2.482,2.482,2.4795,2.4745,2.4745,2.4707,2.4682,2.4732,2.4745,2.4757,2.4808,2.5134,2.5536,2.5573,2.595,2.6458,2.6508,2.6533,2.6533,2.6533,2.6533,2.6533,2.6533,2.6533,2.6533,2.6533,2.6533,2.6533,2.6533,2.7095,2.7604,2.7604,2.8247,2.8812,2.8876,2.8182,2.7998,2.9083,2.9551,2.9792,2.9792,2.9792,2.9792,2.9792,2.9792,2.9792,2.9792,2.9792,2.9792,2.9792,2.9792,2.9792,2.9792,3.062,3.0696,2.9792,2.9792,2.9792,2.9792,2.9792,2.9792,2.9792,3.0696,3.1031,0.0,2.1566,0.0,0.0,0.0,0.0,0.0,0.0,0.0,2.4348,2.4265,2.447,2.5422,2.5798,2.6168,2.6637,2.6616,2.6283,2.5728,2.4851,2.4292,2.4292,2.3603,2.3128,2.3314,2.3265,2.3552,2.413,2.418,2.4368,2.4795,2.482,2.482,2.482,2.482,2.482,2.482,2.482,2.482,2.482,2.482,2.482,2.482,2.4933,2.4983,2.4983,2.487,2.482,2.482,2.482,2.4569,2.418,2.418,2.3891,2.3552,2.4004,2.418,2.4243,2.4669,2.4895,2.5059,2.546,2.5686,2.5862,2.6395,2.6533,2.6533,2.6533,2.6533,2.6533,2.6533,2.6533,2.6533,2.6533,2.6533,2.6533,2.6533,2.6658,2.6782,2.6782,2.6905,2.7229,2.7855,2.7284,2.7163,2.821,2.9214,2.9792,2.9792,2.9792,2.9792,2.9792,2.9792,2.9792,2.9792,2.9792,2.9792,2.9792,2.9792,2.9792,2.9792,2.9998,2.9998,2.9792,2.9792,2.9792,2.9792,2.9792,2.9792,2.9792,2.9998,3.0075,0.0,0.0,0.0,0.0,0.0,0.0,0.0,0.0,2.3681,2.3964,2.3794,2.3909,2.4941,2.5094,2.5258,2.5928,2.5694,2.5287,2.4951,2.4221,2.3721,2.3721,2.3365,2.3078,2.3078,2.3078,2.3263,2.3565,2.359,2.3703,2.3991,2.4017,2.4017,2.4017,2.4017,2.4017,2.4017,2.4017,2.4017,2.4017,2.4017,2.4017,2.4029,2.4305,2.428,2.4017,2.4017,2.4017,2.4017,2.4017,2.3841,2.359,2.359,2.3401,2.3115,2.3477,2.359,2.3627,2.3916,2.4192,2.4469,2.4745,2.5172,2.5649,2.595,2.6239,2.6533,2.6533,2.6533,2.6533,2.6533,2.6533,2.6533,2.6533,2.6533,2.6533,2.6533,2.6533,2.6533,2.6533,2.6533,2.6658,2.704,2.7227,2.7444,2.8021,2.9063,2.9792,2.9792,2.9792,2.9792,2.9792,2.9792,2.9792,2.9792,2.9792,2.9792,2.9792,2.9792,2.9792,2.9792,2.9792,2.9792,2.9792,2.9792,2.9792,2.9792,2.9792,2.9792,2.9792,2.9792,2.9792,0.0,0.0,0.0,0.0,0.0,0.0,0.0,0.0,2.3406,2.3319,2.345,2.3761,2.4357,2.4425,2.4554,2.5029,2.4573,2.4116,2.4105,2.3543,2.3078,2.3078,2.3078,2.3078,2.3078,2.3078,2.3078,2.3078,2.3078,2.3078,2.3078,2.3078,2.3078,2.3078,2.3078,2.3078,2.3078,2.3078,2.3078,2.3078,2.3078,2.3078,2.309,2.3627,2.359,2.3078,2.3078,2.3078,2.3078,2.3078,2.3078,2.3078,2.3078,2.3078,2.3078,2.3078,2.3078,2.3078,2.3078,2.3452,2.3866,2.3966,2.4594,2.5347,2.5536,2.5937,2.6395,2.6496,2.6533,2.6533,2.6533,2.6533,2.6533,2.6533,2.6533,2.6533,2.6533,2.6533,2.6533,2.6533,2.6533,2.6533,2.6533,2.7293,2.7996,2.8097,2.8976,2.9679,2.9779,2.9792,2.9792,2.9792,2.9792,2.9792,2.9792,2.9792,2.9792,2.9792,2.9792,2.9792,2.9792,2.9792,2.9792,2.9792,2.9792,2.9792,2.9792,2.9792,2.9792,2.9792,2.9792,2.9792,0.0,0.0,0.0,0.0,0.0,0.0,0.0,0.0,2.2634,0.0,2.2831,2.3658,2.381,2.3811,2.3794,2.3676,2.3615,2.3459,2.3289,2.3198,2.3078,2.3078,2.3078,2.3078,2.3078,2.3078,2.3078,2.3078,2.3078,2.3078,2.3078,2.3078,2.3078,2.3078,2.3078,2.3078,2.3078,2.3078,2.3078,2.3078,2.3078,2.3078,2.3078,2.3153,2.3213,2.3078,2.3078,2.3078,2.3078,2.3078,2.3078,2.3078,2.3078,2.3078,2.3078,2.3078,2.3078,2.3078,2.3078,2.3128,2.3339,2.3841,2.4104,2.4381,2.5322,2.5649,2.5812,2.6314,2.6533,2.6533,2.6533,2.6533,2.6533,2.6533,2.6533,2.6533,2.6533,2.6533,2.6533,2.6533,2.6533,2.6533,2.6533,2.6979,2.7557,2.8034,2.8649,2.9227,2.9729,2.9792,2.9792,2.9792,2.9792,2.9792,2.9792,2.9792,2.9792,2.9792,2.9792,2.9792,2.9792,2.9792,2.9792,2.9792,2.9792,2.9792,2.9792,2.9792,2.9792,2.9792,2.9792,2.9792,2.0049,0.0,0.0,0.0,0.0,0.0,0.0,0.0,2.2053,2.1758,2.2179,2.254,2.2546,2.2561,2.2478,2.2379,2.2587,2.2777,2.2636,2.2937,2.3078,2.3078,2.3078,2.3078,2.3078,2.3078,2.3078,2.3078,2.3078,2.3078,2.3078,2.3078,2.3078,2.3078,2.3078,2.3078,2.3078,2.3078,2.3078,2.3078,2.3078,2.3078,2.3078,2.3078,2.3078,2.3078,2.3078,2.3078,2.3078,2.3078,2.3078,2.3078,2.3078,2.3078,2.3078,2.3078,2.3078,2.3078,2.3078,2.3078,2.3115,2.3427,2.3728,2.4142,2.4921,2.536,2.5724,2.6302,2.6533,2.6533,2.6533,2.6533,2.6533,2.6533,2.6533,2.6533,2.6533,2.6533,2.6533,2.6533,2.6533,2.6533,2.6533,2.6917,2.7369,2.7607,2.8373,2.9026,2.9277,2.9591,2.9792,2.9792,2.9792,2.9792,2.9792,2.9792,2.9792,2.9792,2.9792,2.9792,2.9792,2.9792,2.9792,2.9792,2.9792,2.9792,2.9792,2.9792,2.9792,2.9792,2.9792,2.9792,0.0,0.0,0.0,0.0,0.0,0.0,0.0,0.0,2.1424,0.0,2.1232,2.1232,2.1232,2.1326,2.1392,2.1394,2.1661,2.1945,2.2083,2.246,2.2761,2.2852,2.2924,2.2975,2.3065,2.3078,2.3078,2.3078,2.3078,2.3078,2.3078,2.3078,2.3078,2.3078,2.3078,2.3078,2.3078,2.3078,2.3078,2.3078,2.3078,2.3078,2.3078,2.3078,2.3078,2.3078,2.3078,2.3078,2.3078,2.3078,2.3078,2.3078,2.3078,2.3078,2.3078,2.3078,2.3078,2.3078,2.3078,2.3078,2.3078,2.3078,2.3427,2.3879,2.4443,2.4983,2.5523,2.6088,2.6352,2.6533,2.6533,2.6533,2.6533,2.6533,2.6533,2.6533,2.6533,2.6533,2.6533,2.6533,2.6533,2.6533,2.6533,2.6804,2.7118,2.7256,2.8109,2.8775,2.8913,2.944,2.9792,2.9792,2.9792,2.9792,2.9792,2.9792,2.9792,2.9792,2.9792,2.9792,2.9792,2.9792,2.9792,2.9792,2.9792,2.9792,2.9792,2.9792,2.9792,2.9792,2.9792,2.9792,0.0,0.0,0.0,0.0,0.0,0.0,0.0,0.0,0.0,2.0042,1.9901,1.9901,1.9901,2.0422,2.0832,2.079,2.0769,2.0941,2.1455,2.1556,2.1769,2.2297,2.2347,2.256,2.3027,2.3078,2.3078,2.3078,2.3078,2.3078,2.3078,2.3078,2.3078,2.3078,2.3078,2.3078,2.3078,2.3078,2.3078,2.3078,2.3078,2.3078,2.3078,2.3078,2.3078,2.3078,2.3078,2.3078,2.3078,2.3078,2.3078,2.3078,2.3078,2.3078,2.3078,2.3078,2.3078,2.3078,2.3078,2.3078,2.3078,2.3078,2.309,2.3288,2.3866,2.4431,2.4971,2.5485,2.6038,2.6533,2.6533,2.6533,2.6533,2.6533,2.6533,2.6533,2.6533,2.6533,2.6533,2.6533,2.6533,2.6533,2.6533,2.6546,2.6678,2.7205,2.777,2.8335,2.8863,2.944,2.9792,2.9792,2.9792,2.9792,2.9792,2.9792,2.9792,2.9792,2.9792,2.9792,2.9792,2.9792,2.9792,2.9792,2.9792,2.9792,2.9792,2.9792,2.9792,2.9792,2.9792,2.9792,0.0,0.0,0.0,0.0,0.0,0.0,0.0,2.0003,2.0105,1.985,1.9798,1.9798,1.9798,2.0003,2.0169,2.0127,2.0426,2.0794,2.0983,2.1267,2.1556,2.1757,2.1782,2.1995,2.2548,2.2611,2.2761,2.3053,2.3078,2.3078,2.3078,2.3078,2.3078,2.3078,2.3078,2.3078,2.3078,2.3078,2.3078,2.3078,2.3078,2.3078,2.3078,2.3078,2.3078,2.3078,2.3078,2.3078,2.3078,2.3078,2.3078,2.3078,2.3078,2.3078,2.3078,2.3078,2.3078,2.3078,2.3078,2.3078,2.3078,2.3078,2.3078,2.3178,2.3828,2.4381,2.4933,2.5448,2.6013,2.6533,2.6533,2.6533,2.6533,2.6533,2.6533,2.6533,2.6533,2.6533,2.6533,2.6533,2.6533,2.6533,2.6533,2.6533,2.6596,2.6798,2.7218,2.7645,2.7846,2.8674,2.9239,2.9239,2.9566,2.9792,2.9792,2.9792,2.9792,2.9792,2.9792,2.9792,2.9792,2.9792,2.9792,2.9792,2.9792,2.9792,2.9792,2.9792,2.9792,2.9792,2.9792,2.9792,2.0573,0.0,0.0,0.0,0.0,2.032,1.9901,0.0,1.9798,1.9798,1.9798,1.9798,1.9798,1.9798,1.9798,1.9798,2.0125,2.0376,2.0376,2.069,2.0991,2.1192,2.1204,2.143,2.1983,2.2033,2.2184,2.256,2.2761,0.0,2.2862,2.2977,2.3078,2.3078,2.3078,2.3078,2.3078,2.3078,2.3078,2.3078,2.3078,2.3078,2.3078,2.3078,2.3078,2.3078,2.3078,2.3078,2.3078,2.3078,2.3078,2.3078,2.3078,2.3078,2.3078,2.3078,2.3078,2.3078,2.3078,2.3078,2.3078,2.3078,2.3078,2.314,2.359,2.4104,2.4657,2.5184,2.5737,2.6214,2.6483,2.6533,2.6533,2.6533,2.6533,2.6533,2.6533,2.6533,2.6533,2.6533,2.6533,2.6533,2.6533,2.6533,2.6533,2.6533,2.6929,2.7281,2.7281,2.8084,2.8725,2.8913,2.9277,2.9578,2.9779,2.9792,2.9792,2.9792,2.9792,2.9792,2.9792,2.9792,2.9792,2.9792,2.9792,2.9792,2.9792,2.9792,2.9792,2.9792,2.9792,2.9792,0.0,0.0,0.0,0.0,0.0,0.0,2.0093,0.0,1.9798,1.9798,1.9798,1.9798,1.9798,1.9798,1.9798,1.9798,1.9798,1.9798,1.9798,1.9798,2.0012,2.0618,2.0693,2.0853,2.1405,2.1468,2.1468,2.1493,2.1983,2.2284,2.2284,2.2752,2.3053,2.3078,2.3078,2.3078,2.3078,2.3078,2.3078,2.3078,2.3078,2.3078,2.3078,2.3078,2.3078,2.3078,2.3078,2.3078,2.3078,2.3078,2.3078,2.3078,2.3078,2.3078,2.3078,2.3078,2.3078,2.3078,2.3078,2.3078,2.3078,2.3078,2.3078,2.3078,2.3078,2.354,2.4117,2.4669,2.5197,2.5724,2.6314,2.6533,2.6533,2.6533,2.6533,2.6533,2.6533,2.6533,2.6533,2.6533,2.6533,2.6533,2.6533,2.6533,2.6533,2.6533,2.6917,2.7256,2.7256,2.7745,2.8285,2.8825,2.8913,2.9151,2.9716,2.9779,2.9792,2.9792,2.9792,2.9792,2.9792,2.9792,2.9792,2.9792,2.9792,2.9792,2.9792,2.9792,2.9792,2.9792,2.9792,2.9792,2.0688,0.0,0.0,0.0,0.0,0.0,0.0,0.0,0.0,1.9798,1.9798,1.9798,1.9798,1.9798,1.9798,1.9798,1.9798,1.9798,1.9798,1.9798,1.9861,2.0024,2.0037,2.0263,2.084,2.0891,2.1054,0.0,2.1631,2.1719,2.1719,2.2234,2.2723,2.3065,2.3078,2.3078,2.3078,2.3078,2.3078,2.3078,2.3078,2.3078,2.3078,2.3078,2.3078,2.3078,2.3078,2.3078,2.3078,2.3078,2.3078,2.3078,2.3078,2.3078,2.3078,2.3078,2.3078,2.3078,2.3078,2.3078,2.3078,2.3078,2.3078,2.3078,2.3078,2.354,2.4117,2.4669,2.5197,2.5724,2.6314,2.6533,2.6533,2.6533,2.6533,2.6533,2.6533,2.6533,2.6533,2.6533,2.6533,2.6533,2.6533,2.6533,2.6533,2.6533,2.6659,2.6691,2.6691,2.7168,2.757,2.772,2.8448,2.9001,2.9151,2.9553,2.9792,2.9792,2.9792,2.9792,2.9792,2.9792,2.9792,2.9792,2.9792,2.9792,2.9792,2.9792,2.9792,2.9792,2.9792,2.9792,0.0,0.0,0.0,0.0,0.0,0.0,1.985,1.9798,1.9798,0.0,1.9798,1.9798,1.9798,1.9798,1.9798,1.9798,1.9798,1.9798,1.9798,1.9798,1.9798,1.9798,1.9798,1.9936,2.0275,2.03,2.0439,2.0765,2.1004,2.1242,2.1481,2.1794,2.2221,2.2774,2.2786,2.284,2.3078,2.3078,2.3078,2.3078,2.3078,2.3078,2.3078,2.3078,2.3078,2.3078,2.3078,2.3078,2.3078,2.3078,2.3078,2.3078,2.3078,2.3078,2.3078,2.3078,2.3078,2.3078,2.3078,2.3078,2.3078,2.3078,2.3078,2.3078,2.3078,2.3376,2.3753,2.4318,2.5021,2.5724,2.6314,2.6533,2.6533,2.6533,2.6533,2.6533,2.6533,2.6533,2.6533,2.6533,2.6533,2.6533,2.6533,2.6533,2.6533,2.6533,2.6533,2.6533,2.6533,2.6741,2.703,2.7256,2.7858,2.8335,2.8561,2.9101,2.9428,2.9428,2.9666,2.9792,2.9792,2.9792,2.9792,2.9792,2.9792,2.9792,2.9792,2.9792,2.9792,2.9792,2.9792,2.9792,0.0,0.0,0.0,0.0,0.0,0.0,1.9952,1.9798,1.9798,0.0,1.9798,1.9798,1.9798,1.9798,1.9798,1.9798,1.9798,1.9798,1.9798,1.9798,1.9798,1.9798,1.9798,1.9798,1.9798,1.9798,1.9798,1.9798,2.0275,2.0869,2.1368,2.1393,2.1656,2.2196,2.2221,2.2485,2.3037,2.2977,2.3015,2.3078,2.3078,2.3078,2.3078,2.3078,2.3078,2.3078,2.3078,2.3078,2.3078,2.3078,2.3078,2.3078,2.3078,2.3078,2.3078,2.3078,2.3078,2.3078,2.3078,2.3078,2.3078,2.3078,2.3078,2.3078,2.3078,2.3078,2.3215,2.3904,2.482,2.5724,2.6314,2.6533,2.6533,2.6533,2.6533,2.6533,2.6533,2.6533,2.6533,2.6533,2.6533,2.6533,2.6533,2.6533,2.6533,2.6533,2.6533,2.6533,2.6533,2.6533,2.6653,2.7143,2.7243,2.7482,2.7971,2.8511,2.8863,2.8925,2.9415,2.9729,2.9792,2.9792,2.9792,2.9792,2.9792,2.9792,2.9792,2.9792,2.9792,2.9792,2.9792,2.9792,0.0,0.0,0.0,0.0,0.0,0.0,1.985,1.9798,1.9798,0.0,1.9798,1.9798,1.9798,1.9798,1.9798,1.9798,1.9798,1.9798,1.9798,1.9798,1.9798,1.9798,1.9798,1.9798,1.9798,1.9798,1.9798,1.9798,1.9911,2.0225,2.079,2.0882,2.1079,2.1631,2.1656,2.192,2.2472,2.2472,2.2698,2.3078,2.3078,2.3078,2.3078,2.3078,2.3078,2.3078,2.3078,2.3078,2.3078,2.3078,2.3078,2.3078,2.3078,2.3078,2.3078,2.3078,2.3078,2.3078,2.3078,2.3078,2.3078,2.3078,2.3078,2.3078,2.3078,2.3078,2.3351,2.4368,2.5109,2.5724,2.6314,2.6533,2.6533,2.6533,2.6533,2.6533,2.6533,2.6533,2.6533,2.6533,2.6533,2.6533,2.6533,2.6533,2.6533,2.6533,2.6533,2.6533,2.6533,2.6533,2.6571,2.6603,2.7017,2.7318,2.7431,2.7946,2.8461,2.89,2.9038,2.9302,2.9779,2.9792,2.9792,2.9792,2.9792,2.9792,2.9792,2.9792,2.9792,2.9792,2.9792,2.9792,0.0,0.0,0.0,1.9901,0.0,0.0,0.0,1.9798,1.9798,1.9798,1.9798,1.9798,1.9798,1.9798,1.9798,1.9798,1.9798,1.9798,1.9798,1.9798,1.9798,1.9798,1.9798,1.9798,1.9798,1.9798,1.9798,1.9798,1.9798,1.9924,2.0213,2.0238,2.0489,2.1054,2.1079,2.1343,2.1895,2.1895,2.1927,2.2031,2.2474,2.2623,2.2506,2.2944,2.2884,2.2506,2.2506,2.2506,2.2445,2.2051,2.2372,2.3078,2.3078,2.3078,2.3078,2.3078,2.3078,2.3078,2.3078,2.3078,2.3078,2.3078,2.3078,2.3078,2.3078,2.3078,2.3315,2.4506,2.5008,2.5398,2.6239,2.6533,2.6533,2.6533,2.6533,2.6533,2.6533,2.6533,2.6533,2.6533,2.6533,2.6533,2.6533,2.6533,2.6533,2.6533,2.6533,2.6533,2.6533,2.6533,2.6533,2.6533,2.6703,2.6866,2.6866,2.7381,2.7934,2.8486,2.8775,2.9189,2.9767,2.9792,2.9792,2.9792,2.9792,2.9792,2.9792,2.9792,2.9792,2.9792,2.9792,2.9792,0.0,0.0,0.0,0.0,0.0,1.9798,0.0,0.0,0.0,1.9798,1.9798,0.0,0.0,0.0,0.0,0.0,0.0,0.0,0.0,1.9736,0.0,1.9798,1.9798,1.9798,1.9798,1.9798,1.9798,1.9798,1.9798,1.9798,1.9798,1.9798,2.0012,2.0489,2.0555,2.0765,2.133,2.133,2.1292,2.1248,2.1935,2.2231,2.2125,2.2628,2.2506,2.1877,2.1753,2.1616,2.1616,2.1037,2.1678,2.2884,2.2884,2.2944,2.3078,2.3078,2.3078,2.3078,2.3078,2.3078,2.3078,2.3078,2.3078,2.3078,2.3078,2.3078,2.3315,2.4506,2.482,2.5071,2.6176,2.6533,2.6533,2.6533,2.6533,2.6533,2.6533,2.6533,2.6533,2.6533,2.6533,2.6533,2.6533,2.6533,2.6533,2.6533,2.6533,2.6533,2.6533,2.6533,2.6533,2.6533,2.6533,2.6533,2.6533,2.6866,2.7406,2.8059,2.8524,2.9076,2.9767,2.9792,2.9792,2.9792,2.9792,2.9792,2.9792,2.9792,2.9792,2.9792,2.9792,2.9792,0.0,0.0,0.0,0.0,1.9798,0.0,0.0,0.0,1.9798,1.9798,0.0,0.0,0.0,0.0,0.0,0.0,0.0,0.0,1.9183,1.951,1.9798,1.9798,1.9798,1.9798,1.9798,1.9798,1.9798,1.9798,1.9798,1.9798,1.9798,1.9798,1.9823,1.9899,1.9899,2.0175,2.0806,2.0806,2.128,2.2122,2.2251,2.2539,2.2944,2.2322,2.2013,2.1877,2.1112,2.0719,2.0782,2.1491,2.1877,2.2075,2.2075,2.2445,2.3078,2.3078,2.3078,2.3078,2.3078,2.3078,2.3078,2.3078,2.3078,2.3078,2.3078,2.3078,2.3315,2.4506,2.482,2.5071,2.6176,2.6533,2.6533,2.6533,2.6533,2.6533,2.6533,2.6533,2.6533,2.6533,2.6533,2.6533,2.6533,2.6533,2.6533,2.6533,2.6533,2.6533,2.6533,2.6533,2.6533,2.6533,2.6533,2.6533,2.6533,2.6584,2.6992,2.8047,2.816,2.8674,2.9754,2.9792,2.9792,2.9792,2.9792,2.9792,2.9792,2.9792,2.9792,2.9792,2.9792,2.9792,0.0,0.0,0.0,0.0,0.0,0.0,1.9798,0.0,1.9798,0.0,0.0,0.0,0.0,0.0,0.0,0.0,1.966,0.0,0.0,0.0,1.9798,0.0,0.0,0.0,1.9798,1.9798,1.9798,1.9798,1.9798,1.9798,1.9798,1.9798,1.9798,1.9798,1.9798,1.9924,2.0162,2.0162,2.0499,2.1107,2.1592,2.1793,2.1678,2.1803,2.1365,2.0398,2.0009,1.9814,1.9814,1.9694,2.0204,2.1175,2.1175,2.1928,2.3065,2.2567,2.2702,2.3078,2.3078,2.3078,2.3078,2.3078,2.3078,2.3078,2.3078,2.3078,2.324,2.4117,2.4569,2.4996,2.5762,2.6214,2.6533,2.6533,2.6533,2.6533,2.6533,2.6533,2.6533,2.6533,2.6533,2.6533,2.6533,2.6533,2.6533,2.6533,2.6533,2.6533,2.6533,2.6533,2.6533,2.6533,2.6533,2.6533,2.6533,2.6533,2.6929,2.8034,2.8725,2.9302,2.9779,2.9792,2.9792,2.9792,2.9792,2.9792,2.9792,2.9792,2.9792,2.9792,2.9792,2.9792,1.9798,0.0,0.0,0.0,0.0,0.0,0.0,0.0,0.0,0.0,0.0,0.0,0.0,0.0,0.0,0.0,0.0,1.9748,0.0,1.971,0.0,0.0,0.0,0.0,0.0,1.9798,1.9695,1.9527,1.9695,1.9695,1.9527,1.9695,1.9798,1.9798,1.9798,1.9798,1.9798,1.9798,2.0032,2.0583,2.1188,2.1338,2.0974,2.1365,2.0719,1.9299,1.9044,1.8911,1.8911,1.8529,1.911,2.0268,2.0268,2.1164,2.2372,2.2002,2.2261,2.2763,2.2763,2.2944,2.3078,2.3078,2.3078,2.3078,2.3078,2.3078,2.3263,2.3841,2.4393,2.4946,2.546,2.6025,2.6533,2.6533,2.6533,2.6533,2.6533,2.6533,2.6533,2.6533,2.6533,2.6533,2.6533,2.6533,2.6533,2.6533,2.6533,2.6533,2.6533,2.6533,2.6533,2.6533,2.6533,2.6533,2.6533,2.6533,2.6929,2.8034,2.9164,2.9792,2.9792,2.9792,2.9792,2.9792,2.9792,2.9792,2.9792,2.9792,2.9792,2.9792,2.9792,2.9792,0.0,0.0,0.0,1.9798,0.0,0.0,0.0,0.0,1.9798,0.0,0.0,0.0,0.0,0.0,0.0,0.0,0.0,0.0,0.0,0.0,0.0,0.0,0.0,0.0,0.0,1.9798,1.9475,1.8768,1.9423,1.9475,1.8768,1.9423,1.9798,1.9798,1.9798,1.9798,1.9798,1.9798,2.0363,2.1493,2.1493,2.1654,2.1815,2.1037,2.0139,1.9233,1.8395,1.8008,1.8076,1.8911,1.9299,1.9365,1.9365,1.9879,2.0782,2.1628,2.1939,2.1939,2.1939,2.2445,2.3078,2.3078,2.3078,2.3078,2.3078,2.3078,2.3263,2.3841,2.4393,2.4946,2.546,2.6025,2.6533,2.6533,2.6533,2.6533,2.6533,2.6533,2.6533,2.6533,2.6533,2.6533,2.6533,2.6533,2.6533,2.6533,2.6533,2.6533,2.6533,2.6533,2.6533,2.6533,2.6533,2.6533,2.6533,2.6533,2.6929,2.8034,2.9164,2.9792,2.9792,2.9792,2.9792,2.9792,2.9792,2.9792,2.9792,2.9792,2.9792,2.9792,2.9792,2.9792,0.0,0.0,1.9798,1.9798,0.0,0.0,0.0,0.0,0.0,0.0,0.0,0.0,0.0,0.0,0.0,0.0,0.0,0.0,0.0,0.0,0.0,0.0,0.0,0.0,0.0,0.0,1.915,1.9423,1.9202,1.9202,1.9423,1.9643,1.9798,1.9798,1.9798,1.9798,1.9798,1.9798,2.0363,2.1481,2.0949,2.0784,2.0974,2.0139,1.9233,1.8395,1.8144,1.8008,1.8008,1.8337,1.8462,1.8529,1.9044,1.911,1.8977,1.9879,2.0526,2.1101,2.169,2.2075,2.2384,2.2944,2.3078,2.3078,2.3078,2.3078,2.3115,2.3376,2.4104,2.4858,2.5034,2.5774,2.6533,2.6533,2.6533,2.6533,2.6533,2.6533,2.6533,2.6533,2.6533,2.6533,2.6533,2.6533,2.6533,2.6533,2.6533,2.6533,2.6533,2.6533,2.6533,2.6533,2.6533,2.6533,2.6533,2.713,2.7708,2.8084,2.9164,2.9792,2.9792,2.9792,2.9792,2.9792,2.9792,2.9792,2.9792,2.9792,2.9792,2.9792,2.9792,2.9792,1.9798,1.9798,0.0,1.9798,1.9798,0.0,1.9798,0.0,1.9798,0.0,0.0,0.0,0.0,0.0,0.0,0.0,0.0,0.0,0.0,1.9798,0.0,0.0,0.0,0.0,0.0,1.9371,1.9202,1.9371,1.9202,1.9202,1.9423,1.9643,1.9798,1.9798,1.9798,1.9798,1.9798,1.9527,1.9978,2.1006,2.0538,2.0234,2.0139,1.9879,1.911,1.8008,1.8008,1.8008,1.8008,1.8008,1.8008,1.8076,1.8586,1.8462,1.8144,1.8977,1.9694,2.0268,2.1175,2.1428,2.1491,2.2051,2.2433,2.2628,2.231,2.2628,2.3092,2.3232,2.399,2.4908,2.531,2.5925,2.6533,2.6533,2.6533,2.6533,2.6533,2.6533,2.6533,2.6533,2.6533,2.6533,2.6533,2.6533,2.6533,2.6533,2.6533,2.6533,2.6533,2.6533,2.6533,2.6533,2.6533,2.6533,2.6533,2.7469,2.8109,2.8109,2.9164,2.9792,2.9792,2.9792,2.9792,2.9792,2.9792,2.9792,2.9792,2.9792,2.9792,2.9792,2.9792,2.9792]},{"header":{"parameterUnit":"m.s-1","parameterCategory":1,"la1":30.6,"la2":29.2853,"lo1":-89.7004,"lo2":-87.6739,"dy":0.0162,"dx":0.0183,"nx":112,"ny":82,"refTime":"2023-09-21T18:00:00:Z","depth":0,"parameterNumber":3,"parameterNumberName":"V-component_of_WINDS"},"data":[0.0,0.0,0.0,0.0,0.0,0.0,0.0,0.0,0.0,0.0,0.0,0.0,0.0,0.0,0.0,0.0,0.0,0.0,0.0,0.0,0.0,0.0,0.0,0.0,0.0,0.0,0.0,0.0,0.0,0.0,0.0,0.0,0.0,0.0,0.0,0.0,0.0,0.0,0.0,0.0,0.0,0.0,0.0,0.0,0.0,0.0,0.0,0.0,0.0,0.0,0.0,0.0,0.0,0.0,0.0,0.0,0.0,0.0,0.0,0.0,0.0,0.0,0.0,0.0,0.0,0.0,0.0,0.0,0.0,0.0,0.0,0.0,0.0,0.0,0.0,0.0,0.0,0.0,0.0,0.0,0.0,0.0,0.0,0.0,0.0,0.0,0.0,0.0,0.0,0.0,1.8239,1.8838,1.9423,1.9798,1.9798,1.9798,1.9798,1.9798,0.0,0.0,0.0,0.0,0.0,0.0,0.0,0.0,0.0,0.0,0.0,0.0,0.0,0.0,0.0,0.0,0.0,0.0,0.0,0.0,0.0,0.0,0.0,0.0,0.0,0.0,0.0,0.0,0.0,0.0,0.0,0.0,0.0,0.0,0.0,0.0,0.0,0.0,0.0,0.0,0.0,0.0,0.0,0.0,0.0,0.0,0.0,0.0,0.0,0.0,0.0,0.0,0.0,0.0,0.0,0.0,0.0,0.0,0.0,0.0,0.0,0.0,0.0,0.0,0.0,0.0,0.0,0.0,0.0,0.0,0.0,0.0,0.0,0.0,0.0,0.0,0.0,0.0,0.0,0.0,0.0,0.0,0.0,0.0,0.0,0.0,0.0,0.0,0.0,0.0,0.0,0.0,0.0,0.0,0.0,0.0,0.0,0.0,0.0,0.0,0.0,0.0,0.0,0.0,1.8205,1.9463,1.9747,1.9798,1.9798,1.9798,1.9798,1.9798,0.0,0.0,0.0,0.0,0.0,0.0,0.0,0.0,0.0,0.0,0.0,0.0,0.0,0.0,0.0,0.0,0.0,0.0,0.0,0.0,0.0,0.0,0.0,0.0,0.0,0.0,0.0,0.0,0.0,0.0,0.0,0.0,0.0,0.0,0.0,0.0,0.0,0.0,0.0,0.0,0.0,0.0,0.0,0.0,0.0,0.0,0.0,0.0,0.0,0.0,0.0,0.0,0.0,0.0,0.0,0.0,0.0,0.0,0.0,0.0,0.0,0.0,0.0,0.0,0.0,0.0,0.0,0.0,0.0,0.0,0.0,0.0,0.0,0.0,0.0,0.0,0.0,0.0,0.0,0.0,0.0,0.0,0.0,0.0,0.0,0.0,0.0,0.0,0.0,0.0,0.0,0.0,0.0,0.0,0.0,0.0,0.0,0.0,0.0,0.0,0.0,0.0,0.0,1.7855,1.8608,1.9695,1.9798,1.9798,1.9798,1.9798,1.9798,1.9798,1.9798,0.0,0.0,0.0,0.0,0.0,0.0,0.0,0.0,0.0,0.0,0.0,0.0,0.0,0.0,0.0,0.0,0.0,0.0,0.0,0.0,0.0,0.0,0.0,0.0,0.0,0.0,0.0,0.0,0.0,0.0,0.0,0.0,0.0,0.0,0.0,0.0,0.0,0.0,0.0,0.0,0.0,0.0,0.0,0.0,0.0,0.0,0.0,0.0,0.0,0.0,0.0,0.0,0.0,0.0,0.0,0.0,0.0,0.0,0.0,0.0,0.0,0.0,0.0,0.0,0.0,0.0,0.0,0.0,0.0,0.0,0.0,0.0,0.0,0.0,0.0,0.0,0.0,0.0,0.0,0.0,0.0,0.0,0.0,0.0,0.0,0.0,0.0,0.0,0.0,0.0,0.0,0.0,0.0,0.0,0.0,0.0,0.0,0.0,0.0,0.0,0.0,0.0,1.8715,1.9202,1.9747,1.9798,1.9861,1.9987,2.0012,2.0062,2.0188,2.02,0.0,0.0,0.0,0.0,0.0,0.0,0.0,0.0,0.0,0.0,0.0,0.0,0.0,0.0,0.0,0.0,0.0,0.0,0.0,0.0,0.0,0.0,0.0,0.0,0.0,0.0,0.0,0.0,0.0,0.0,0.0,0.0,0.0,0.0,0.0,0.0,0.0,0.0,0.0,0.0,0.0,0.0,0.0,0.0,0.0,0.0,0.0,0.0,0.0,0.0,0.0,0.0,0.0,0.0,0.0,0.0,0.0,0.0,0.0,0.0,0.0,0.0,0.0,0.0,0.0,0.0,0.0,0.0,0.0,0.0,0.0,0.0,0.0,0.0,0.0,0.0,0.0,0.0,0.0,0.0,0.0,0.0,0.0,0.0,0.0,0.0,0.0,0.0,0.0,0.0,0.0,0.0,0.0,0.0,0.0,0.0,0.0,0.0,0.0,0.0,0.0,0.0,1.8874,1.9747,1.9798,1.9798,2.0024,2.0618,2.0655,2.0828,2.1343,2.1368,0.0,0.0,0.0,0.0,0.0,0.0,0.0,0.0,0.0,0.0,0.0,0.0,0.0,0.0,0.0,0.0,0.0,0.0,0.0,0.0,0.0,0.0,0.0,0.0,0.0,0.0,0.0,0.0,0.0,0.0,0.0,0.0,0.0,0.0,0.0,0.0,0.0,0.0,0.0,0.0,0.0,0.0,0.0,0.0,0.0,0.0,0.0,0.0,0.0,0.0,0.0,0.0,0.0,0.0,0.0,0.0,0.0,0.0,0.0,0.0,0.0,0.0,0.0,0.0,0.0,0.0,0.0,0.0,0.0,0.0,0.0,0.0,0.0,0.0,0.0,0.0,0.0,0.0,0.0,0.0,0.0,0.0,0.0,0.0,0.0,0.0,0.0,0.0,0.0,0.0,0.0,0.0,0.0,0.0,0.0,0.0,0.0,0.0,0.0,0.0,0.0,0.0,1.8795,1.9834,0.0,2.0652,2.0941,2.1154,2.1179,2.1267,2.1481,0.0,0.0,0.0,0.0,0.0,0.0,0.0,0.0,0.0,0.0,0.0,0.0,0.0,0.0,0.0,0.0,0.0,0.0,0.0,0.0,0.0,0.0,0.0,0.0,0.0,0.0,0.0,0.0,0.0,0.0,0.0,0.0,0.0,0.0,0.0,0.0,0.0,0.0,0.0,0.0,0.0,0.0,0.0,0.0,0.0,0.0,0.0,0.0,0.0,0.0,0.0,0.0,0.0,0.0,0.0,0.0,0.0,0.0,0.0,0.0,0.0,0.0,0.0,0.0,0.0,0.0,0.0,0.0,0.0,0.0,0.0,0.0,0.0,0.0,0.0,0.0,0.0,0.0,0.0,0.0,0.0,0.0,0.0,0.0,0.0,0.0,0.0,0.0,0.0,0.0,0.0,0.0,0.0,0.0,0.0,0.0,0.0,0.0,0.0,0.0,0.0,0.0,1.7968,1.9312,2.041,0.0,2.1267,2.1556,2.1732,2.1744,2.1832,2.1995,0.0,0.0,0.0,0.0,0.0,0.0,0.0,0.0,0.0,0.0,0.0,0.0,0.0,0.0,0.0,0.0,0.0,0.0,0.0,0.0,0.0,0.0,0.0,0.0,0.0,0.0,0.0,0.0,0.0,0.0,0.0,0.0,0.0,0.0,0.0,0.0,0.0,0.0,0.0,0.0,0.0,0.0,0.0,0.0,0.0,0.0,0.0,0.0,0.0,0.0,0.0,0.0,0.0,0.0,0.0,0.0,0.0,0.0,0.0,0.0,0.0,0.0,0.0,0.0,0.0,0.0,0.0,0.0,0.0,0.0,0.0,0.0,0.0,0.0,0.0,0.0,0.0,0.0,0.0,0.0,0.0,0.0,0.0,0.0,0.0,0.0,0.0,0.0,0.0,0.0,0.0,0.0,0.0,0.0,0.0,0.0,0.0,0.0,0.0,0.0,0.0,0.0,1.9056,2.0538,2.1493,2.1493,2.1506,2.1732,2.2272,2.2322,2.2548,0.0,0.0,0.0,0.0,0.0,0.0,0.0,0.0,0.0,0.0,0.0,0.0,0.0,0.0,0.0,0.0,0.0,0.0,0.0,0.0,0.0,0.0,0.0,0.0,0.0,0.0,0.0,0.0,0.0,0.0,0.0,0.0,0.0,0.0,0.0,0.0,0.0,0.0,0.0,0.0,0.0,0.0,0.0,0.0,0.0,0.0,0.0,0.0,0.0,0.0,0.0,0.0,0.0,0.0,0.0,0.0,0.0,0.0,0.0,0.0,0.0,0.0,0.0,0.0,0.0,0.0,0.0,0.0,0.0,0.0,0.0,0.0,0.0,0.0,0.0,0.0,0.0,0.0,0.0,0.0,0.0,0.0,0.0,0.0,0.0,0.0,0.0,0.0,0.0,0.0,0.0,0.0,0.0,0.0,0.0,0.0,0.0,0.0,0.0,0.0,0.0,0.0,0.0,1.9089,2.0863,2.2071,2.2071,2.2422,2.2711,2.2874,2.2827,2.2902,2.3065,0.0,0.0,0.0,0.0,0.0,0.0,0.0,0.0,0.0,0.0,0.0,0.0,0.0,0.0,0.0,0.0,0.0,0.0,0.0,0.0,0.0,0.0,0.0,0.0,0.0,0.0,0.0,0.0,0.0,0.0,0.0,0.0,0.0,0.0,0.0,0.0,0.0,0.0,0.0,0.0,0.0,0.0,0.0,0.0,0.0,0.0,0.0,0.0,0.0,0.0,0.0,0.0,0.0,0.0,0.0,0.0,0.0,0.0,0.0,0.0,0.0,0.0,0.0,0.0,0.0,0.0,0.0,0.0,0.0,0.0,0.0,0.0,0.0,0.0,0.0,0.0,0.0,0.0,0.0,0.0,0.0,0.0,0.0,0.0,0.0,0.0,0.0,0.0,0.0,0.0,0.0,0.0,0.0,0.0,0.0,0.0,0.0,0.0,0.0,0.0,0.0,0.0,1.9672,2.138,2.2636,2.2636,2.2937,2.3078,2.3078,2.3078,2.3078,2.3078,0.0,0.0,0.0,0.0,0.0,0.0,0.0,0.0,0.0,0.0,0.0,0.0,0.0,0.0,0.0,0.0,0.0,0.0,0.0,0.0,0.0,0.0,0.0,0.0,0.0,0.0,0.0,0.0,0.0,0.0,0.0,0.0,0.0,0.0,0.0,0.0,0.0,0.0,0.0,0.0,0.0,0.0,0.0,0.0,0.0,0.0,0.0,0.0,0.0,0.0,0.0,0.0,0.0,0.0,0.0,0.0,0.0,0.0,0.0,0.0,0.0,0.0,0.0,0.0,0.0,0.0,0.0,0.0,0.0,0.0,0.0,0.0,0.0,0.0,0.0,0.0,0.0,0.0,0.0,0.0,0.0,0.0,0.0,0.0,0.0,0.0,0.0,0.0,0.0,0.0,0.0,0.0,0.0,0.0,0.0,0.0,0.0,0.0,0.0,0.0,0.0,0.0,2.0534,2.2051,2.3078,2.3078,2.3078,2.3078,2.3078,2.3078,2.3078,2.3078,0.0,0.0,0.0,0.0,0.0,0.0,0.0,0.0,0.0,0.0,0.0,0.0,0.0,0.0,0.0,0.0,0.0,0.0,0.0,0.0,0.0,0.0,0.0,0.0,0.0,0.0,0.0,0.0,0.0,0.0,0.0,0.0,0.0,0.0,0.0,0.0,0.0,0.0,0.0,0.0,0.0,0.0,0.0,0.0,0.0,0.0,0.0,0.0,0.0,0.0,0.0,0.0,0.0,0.0,0.0,0.0,0.0,0.0,0.0,0.0,1.0423,0.0,0.0,0.0,0.0,0.0,0.0,0.0,0.0,0.0,0.0,0.0,0.0,0.0,0.0,0.0,0.0,0.0,0.0,0.0,0.0,0.0,0.0,0.0,0.0,0.0,0.0,0.0,0.0,0.0,0.0,0.0,0.0,0.0,0.0,0.0,0.0,0.0,0.0,0.0,0.0,0.0,2.0579,2.2051,2.3078,2.3078,2.3078,2.3078,2.3078,2.3078,2.3078,2.3078,2.3078,0.0,0.0,0.0,0.0,0.0,0.0,0.0,0.0,0.0,0.0,0.0,0.0,0.0,0.0,0.0,0.0,0.0,0.0,0.0,0.0,0.0,0.0,0.0,0.0,0.0,0.0,0.0,0.0,0.0,0.0,0.0,0.0,0.0,0.0,0.0,0.0,0.0,0.0,0.0,0.0,0.0,0.0,0.0,0.0,0.0,0.0,0.0,0.0,0.0,0.0,0.0,0.0,0.0,0.0,0.0,0.0,0.0,0.0,0.0,0.0,1.0466,0.0,0.0,0.0,0.0,0.0,0.0,0.0,0.0,0.0,0.0,0.0,0.0,0.0,0.0,0.0,0.0,0.0,0.0,0.0,0.0,0.0,0.0,0.0,0.0,0.0,0.0,0.0,0.0,0.0,0.0,0.0,0.0,0.0,0.0,0.0,0.0,0.0,0.0,0.0,0.0,2.0526,2.1741,2.2689,2.3078,2.3078,2.3078,2.3078,2.3078,2.3078,2.3078,2.3078,0.0,0.0,0.0,0.0,0.0,0.0,0.0,0.0,0.0,0.0,0.0,0.0,0.0,0.0,0.0,0.0,0.0,0.0,0.0,0.0,0.0,0.0,0.0,0.0,0.0,0.0,0.0,0.0,0.0,0.0,0.0,0.0,0.0,0.0,0.0,0.0,0.0,0.0,0.0,0.0,0.0,0.0,0.0,0.0,0.0,0.0,0.0,0.0,0.0,0.0,0.0,0.0,0.0,1.0608,1.1248,1.2427,1.1743,1.2133,1.3213,1.1956,1.1617,1.1948,1.1129,0.0,0.0,0.0,0.0,0.0,0.0,0.0,0.0,0.0,0.0,0.0,0.0,0.0,0.0,0.0,0.0,0.0,0.0,0.0,0.0,0.0,0.0,0.0,0.0,1.4373,1.4951,1.3882,0.0,0.0,0.0,0.0,0.0,0.0,0.0,0.0,0.0,0.0,0.0,2.0526,2.1491,2.2384,2.3005,2.3078,2.3115,2.3276,2.3288,2.3326,2.3366,2.3366,2.3366,0.0,0.0,0.0,0.0,0.0,0.0,0.0,0.0,0.0,0.0,0.0,0.0,0.0,0.0,0.0,0.0,0.0,0.0,0.0,0.0,0.0,0.0,0.0,0.0,0.0,0.0,0.0,0.0,0.0,0.0,0.0,0.0,0.4494,0.448,0.0,0.0,0.0,0.0,0.0,0.0,0.0,0.0,0.0,0.0,0.0,0.0,0.0,0.8564,0.9444,0.9616,1.0413,1.1718,1.1718,1.246,1.3853,1.3746,1.38,1.3961,1.3738,0.0,1.2932,1.277,0.0,0.0,0.0,0.0,0.0,0.0,0.0,0.0,0.0,0.0,0.0,0.0,0.0,0.0,0.0,0.0,0.0,0.0,0.0,0.0,0.0,0.0,1.5785,1.5725,1.6061,1.6432,0.0,1.5806,1.5433,1.5433,1.6448,0.0,0.0,0.0,0.0,0.0,0.0,0.0,2.059,2.199,2.3005,2.3078,2.3078,2.3339,2.3841,2.3891,2.4092,2.4569,2.4607,2.4607,2.4607,2.4607,0.0,0.0,0.0,0.0,0.0,0.0,0.0,0.0,0.0,0.0,0.0,0.0,0.0,0.0,0.0,0.0,0.0,0.0,0.0,0.0,0.0,0.0,0.0,0.0,0.0,0.0,0.0,0.0,0.0,0.4501,0.449,0.4473,0.4525,0.4556,0.0,0.0,0.0,0.0,0.0,0.0,0.0,0.0,0.0,0.838,0.8845,0.9259,0.9686,1.0238,1.1225,1.2639,1.272,1.3716,1.5537,1.5084,1.5153,1.5537,1.5537,1.5409,1.5056,1.3882,1.3197,1.2933,0.0,0.0,0.0,0.0,1.3055,1.3081,1.3362,1.3482,1.3517,1.3614,0.0,0.0,0.0,0.0,0.0,0.0,0.0,0.0,0.0,0.0,1.6436,1.6436,1.6777,1.71,1.71,1.7004,1.6817,0.0,1.7224,1.7734,1.7734,0.0,0.0,0.0,0.0,2.0074,2.0526,2.1678,2.2751,2.3528,2.3615,2.3841,2.4418,2.4456,2.4569,2.4808,2.482,2.482,2.482,2.482,2.482,0.0,0.0,0.0,0.0,0.0,0.0,0.0,0.0,0.0,0.0,0.0,0.0,0.0,0.0,0.0,0.0,0.0,0.0,0.0,0.0,0.0,0.0,0.0,0.0,0.0,0.0,0.0,0.0,0.4374,0.4602,0.4582,0.4579,0.4623,0.0,0.0,0.0,0.0,0.0,0.0,0.6391,0.7046,0.7947,0.9052,0.9734,1.0053,1.0127,1.1059,1.2212,1.3405,1.3798,1.4916,1.6665,1.6055,1.6128,1.6665,1.6665,1.6665,1.6587,1.5008,1.439,1.4359,1.4039,1.3969,1.3969,1.3969,1.3969,1.4031,1.4641,1.4823,1.4823,1.4823,1.4702,1.445,1.3838,0.0,0.0,0.0,0.0,1.5151,1.5706,1.6341,1.6894,1.6894,1.7227,1.7539,1.7539,1.7793,1.792,0.0,1.7793,1.8008,1.8008,0.0,0.0,0.0,0.0,1.9987,2.1016,2.1891,2.2872,2.4079,2.4205,2.4431,2.4971,2.5021,2.5084,2.5234,2.5247,2.5247,2.5247,2.5247,2.5247,2.5247,0.0,0.0,0.0,0.0,0.0,0.0,0.0,0.0,0.0,0.0,0.0,0.0,0.0,0.0,0.0,0.0,0.0,0.0,0.0,0.0,0.0,0.0,0.0,0.0,0.0,0.0,0.0,0.0,0.0,0.4897,0.4897,0.0,0.0,0.0,0.0,0.4918,0.4911,0.5562,0.7171,0.7547,0.8516,1.0438,1.0782,1.1062,1.1336,1.2289,1.3232,1.4098,1.4962,1.5835,1.6665,1.6665,1.6665,1.6665,1.6665,1.6665,1.6665,1.6597,1.6568,1.6568,1.6524,1.6534,1.6534,1.6534,1.6534,1.6534,1.6534,1.6597,1.6597,1.6597,1.6062,1.546,1.5396,1.4806,0.0,0.0,1.5423,1.5625,1.6456,1.6977,1.7344,1.7344,1.7676,1.7978,1.7978,1.7998,1.8008,0.0,1.7998,1.8008,1.8008,0.0,1.8269,1.911,2.0009,2.1016,2.2427,2.3352,2.4104,2.472,2.4782,2.4996,2.5511,2.5548,2.5787,2.6408,2.6445,2.6445,2.6445,2.6445,2.6445,2.6445,2.6445,0.0,0.0,0.0,0.0,0.0,0.0,0.0,0.0,0.0,0.0,0.0,0.0,0.0,0.0,0.0,0.0,0.0,0.0,0.0,0.0,0.0,0.0,0.0,0.0,0.0,0.0,0.0,0.0,0.4921,0.4918,0.0,0.5047,0.5053,0.5138,0.5335,0.5935,0.6832,0.8077,0.8826,0.9789,1.1049,1.1216,1.1323,1.1423,1.2571,1.3629,1.4496,1.5945,1.7033,1.7901,1.8252,1.8379,1.8379,1.8379,1.8379,1.8379,1.8379,1.7725,1.6665,1.6665,1.6665,1.6665,1.6665,1.6665,1.6665,1.6665,1.6665,1.6665,1.6665,1.6529,1.6265,1.6265,1.6064,1.5992,1.6588,1.6739,1.6862,1.7414,1.7666,1.7793,1.7793,1.79,1.8008,1.8008,1.8008,1.8008,1.8008,1.8008,1.8008,1.8008,1.8462,1.9081,1.9697,2.1061,2.2233,2.309,2.398,2.4732,2.5259,2.5322,2.5548,2.6101,2.6151,2.6239,2.6508,2.6533,2.6533,2.6533,2.6533,2.6533,2.6533,2.6533,2.6533,0.0,0.0,0.0,0.0,0.0,0.0,0.0,0.0,0.0,0.0,0.0,0.0,0.0,0.0,0.0,0.0,0.0,0.0,0.0,0.0,0.0,0.0,0.0,0.0,0.0,0.0,0.5147,0.507,0.5114,0.5182,0.5277,0.5328,0.5575,0.6128,0.6761,0.7711,0.9039,0.9833,1.0658,1.1577,1.177,1.2084,1.2424,1.3652,1.4816,1.5816,1.7198,1.8266,1.8867,1.916,1.9287,1.9287,1.9287,1.9287,1.9287,1.9287,1.8623,1.7598,1.7598,1.75,1.7307,1.7307,1.7285,1.7158,1.7158,1.7158,1.7158,1.7158,1.7158,1.7158,1.7158,1.7158,1.7217,1.751,1.7598,1.7656,1.7939,1.8008,1.8008,1.8008,1.8115,1.8223,1.8223,1.834,1.8437,1.8437,1.8203,1.8008,1.8008,1.8843,1.9702,2.0007,2.1731,2.318,2.3637,2.4534,2.5285,2.5824,2.5887,2.605,2.6496,2.6533,2.6533,2.6533,2.6533,2.6533,2.6533,2.6533,2.6533,2.6533,2.6533,2.6533,2.6533,0.0,0.0,0.0,0.0,0.0,0.0,0.0,0.0,0.0,0.0,0.0,0.0,0.0,0.0,0.0,0.0,0.0,0.0,0.0,0.0,0.0,0.0,0.0,0.5379,0.5382,0.5379,0.5435,0.5504,0.5596,0.5596,0.5725,0.6233,0.722,0.7371,0.8155,1.0067,1.0462,1.1037,1.1911,1.254,1.3355,1.4403,1.561,1.6766,1.7933,1.8848,1.9307,1.9307,1.9316,1.9326,1.9326,1.9326,1.9326,1.9326,1.9326,1.9326,1.9326,1.9297,1.9023,1.8652,1.8652,1.8398,1.8047,1.8047,1.8047,1.8047,1.8047,1.8047,1.8047,1.8047,1.8047,1.8047,1.8047,1.8047,1.8047,1.8047,1.8047,1.8047,1.8047,1.8359,1.8652,1.8652,1.8994,1.9287,1.9287,1.8613,1.8115,1.8115,1.9254,2.0149,2.0081,2.2037,0.0,2.4184,2.5074,2.5837,2.6471,2.6533,2.6533,2.6533,2.6533,2.6533,2.6533,2.6533,2.6533,2.6533,2.6533,2.6533,2.6533,2.6533,2.6533,2.6533,0.0,0.0,0.0,0.0,0.0,0.0,0.0,0.0,0.0,0.0,0.0,0.0,0.0,0.0,0.0,0.0,0.0,0.0,0.0,0.0,0.0,0.0,0.5576,0.5396,0.5467,0.5532,0.5528,0.5654,0.5742,0.5742,0.5878,0.6327,0.7342,0.8416,0.9575,1.0796,1.1903,1.2608,1.2846,1.2999,1.3613,1.4667,1.5723,1.6766,1.7933,1.9144,1.9746,1.9756,2.0068,2.0215,2.0215,2.0215,2.0215,2.0215,2.0215,2.0215,2.0156,1.9531,1.9219,1.9111,1.9111,1.9033,1.8936,1.8936,1.8936,1.8936,1.8936,1.8936,1.8936,1.8936,1.8936,1.8936,1.8936,1.8936,1.8936,1.8936,1.8936,1.8936,1.8936,1.9023,1.9111,1.9111,1.9209,1.9287,1.9287,1.9727,2.0038,2.0038,2.0807,2.182,2.2926,2.4225,0.0,2.5797,2.6077,2.6289,2.6508,2.6533,2.6533,2.6533,2.6533,2.6533,2.6533,2.6533,2.6533,2.6533,2.6533,2.6533,2.6533,2.6533,2.6533,0.0,0.0,0.0,0.0,0.0,0.0,0.0,0.0,0.0,0.0,0.0,0.0,0.0,0.0,0.0,0.0,0.0,0.0,0.0,0.0,0.0,0.0,0.5672,0.5727,0.5569,0.5627,0.5677,0.5677,0.5806,0.5922,0.5986,0.6579,0.7383,0.8444,0.9771,1.0959,1.1992,1.2792,1.3213,1.3213,1.3327,1.4085,1.5693,1.6304,1.7476,1.9052,1.9831,2.0185,2.0195,2.0449,2.0566,2.0566,2.0566,2.0566,2.0566,2.0566,2.0566,0.0,0.0,0.0,0.0,0.0,1.9287,1.9287,1.9287,1.9287,1.9287,1.9287,1.9287,1.9287,1.9287,1.9287,1.9287,1.9287,1.9287,1.9287,1.9287,1.9287,1.9287,1.9287,1.9424,1.9551,1.9551,1.9697,1.9824,1.9824,2.0326,0.0,2.1757,2.2484,2.3133,2.3653,2.5018,2.594,2.5906,2.6245,2.6533,2.6533,2.6533,2.6533,2.6533,2.6533,0.0,0.0,0.0,2.6533,2.6533,2.6533,0.0,0.0,0.0,2.6533,2.6533,2.6533,0.0,0.0,2.5073,2.4767,0.0,0.0,0.0,0.0,0.0,0.0,0.0,0.0,0.0,0.0,0.0,0.0,0.0,0.0,0.0,0.0,0.5823,0.5833,0.585,0.5867,0.5871,0.5854,0.6003,0.6235,0.6525,0.7521,0.8706,1.0004,1.1111,1.2197,1.318,0.0,0.0,0.0,0.0,1.4874,1.6909,1.7329,1.855,2.0566,2.0566,2.0566,2.0566,2.0566,2.0566,2.0566,2.0566,2.0566,2.0566,2.0566,2.0566,2.0566,2.0566,2.0332,1.9941,1.957,1.9434,1.9434,1.9434,0.0,0.0,1.9434,1.9434,1.9434,1.9434,1.9434,1.9434,1.9434,1.9434,1.9434,1.9434,1.9434,1.9434,1.9434,1.9717,1.999,1.999,2.0293,2.0566,2.0566,2.0789,2.1451,2.322,2.386,2.399,2.3383,2.5126,2.6176,2.53,2.5943,2.6533,2.6533,0.0,0.0,2.6533,2.6533,2.6533,2.6533,2.6533,2.6533,2.6533,2.6533,2.6533,2.6533,2.6533,2.6533,2.6533,2.6533,2.6533,2.6465,2.5581,2.5664,0.0,0.0,0.0,0.0,0.0,0.0,0.0,0.0,0.0,0.0,0.0,0.0,0.0,0.0,0.0,0.562,0.5971,0.6027,0.6156,0.6271,0.6298,0.6186,0.6407,0.6901,0.789,0.8248,0.9171,1.1163,1.177,1.2474,1.3479,1.3788,1.3921,1.3921,1.4856,1.5934,1.7227,1.8195,1.9353,2.0566,0.0,0.0,2.0566,2.0566,2.0566,2.0566,2.0566,2.0566,2.0566,2.0566,2.0566,2.0566,2.0566,2.0508,2.043,2.0352,2.0312,2.0312,2.0312,2.0312,2.0312,2.0312,2.0312,2.0312,2.0312,2.0312,0.0,2.0312,2.0312,2.0312,2.0312,2.0312,2.0312,2.0312,2.0381,2.0439,2.0439,2.0508,2.0566,2.0566,2.1897,2.3073,2.3441,2.3582,2.4174,2.5563,2.6171,2.6452,2.6233,2.6383,2.6533,2.6533,2.6533,2.6533,2.6533,2.6533,2.6533,2.6533,2.6533,2.6533,2.6533,2.6533,2.6533,2.6533,2.6533,2.6533,2.6533,2.6533,2.6533,2.6533,2.6314,2.6314,0.0,0.0,0.0,0.0,0.0,0.0,0.0,0.0,0.0,0.0,0.0,0.1318,0.0,0.0,0.5073,0.6105,0.6242,0.6305,0.6461,0.6607,0.6647,0.6498,0.661,0.7221,0.8455,0.9036,1.0151,1.1857,1.2671,1.3349,1.3785,1.4008,1.4088,1.4088,1.5137,1.6191,1.7253,1.839,1.952,2.0566,2.0566,2.0684,2.0898,2.0898,2.1016,2.123,2.123,2.123,2.1211,2.0986,2.0762,2.0566,2.0566,2.0566,2.0566,2.0566,2.0566,2.0566,2.0566,2.0566,2.0566,2.0566,2.0566,2.0566,2.0566,2.0566,2.0566,2.0566,2.0566,2.0566,2.0566,2.0566,2.0566,2.0566,2.0566,2.0566,2.0566,2.0566,2.0566,2.0566,2.1745,2.2925,2.3441,2.3891,2.4779,2.6233,2.6533,2.6533,2.6533,2.6533,2.6533,2.6533,2.6533,2.6533,2.6533,2.6533,2.6533,2.6533,2.6533,2.6533,2.6533,2.6533,2.6533,2.6533,2.6533,2.6533,2.6533,2.6533,2.6533,2.6533,2.6533,2.6533,0.0,0.0,0.0,0.0,0.0,0.0,0.0,0.0,0.0211,0.106,0.1203,0.2282,0.5659,0.6332,0.6402,0.6535,0.6589,0.6569,0.6722,0.6851,0.6977,0.7133,0.7119,0.7666,0.8985,1.0085,1.1259,1.2571,1.3555,1.4166,1.4412,1.4412,1.4496,1.4741,1.5786,1.6764,1.7585,1.8709,1.9803,2.0693,2.0693,2.0928,2.1357,2.1357,2.1553,2.1885,2.1885,2.1836,2.1728,2.1387,2.0967,2.0566,2.0566,2.0566,2.0566,2.0566,2.0566,2.0566,2.0566,2.0566,2.0566,2.0566,2.0566,2.0566,2.0566,2.0566,2.0566,2.0566,2.0566,2.0566,2.0566,2.0566,2.0566,2.0566,2.0566,2.0566,2.0566,2.0712,2.0779,2.0644,2.1669,2.2776,2.3368,2.448,2.5581,2.6383,2.6533,2.6533,2.6533,2.6533,2.6533,2.6533,2.6533,2.6533,2.6533,2.6533,2.6533,2.6533,2.6533,2.6533,2.6533,2.6533,2.6533,2.6533,2.6533,2.6533,2.6533,2.6533,2.6533,2.6533,2.6533,2.6533,-0.0404,0.0,0.0,0.0,0.0,0.0,0.0,0.0,0.106,0.4792,0.5627,0.5735,0.6236,0.6467,0.6539,0.651,0.6576,0.6729,0.6881,0.6919,0.7311,0.8554,0.8657,0.9091,1.0312,1.1428,1.2559,1.3822,1.3997,1.4489,1.5455,1.5538,1.5951,1.6935,1.8069,1.8709,1.8798,1.9844,2.0683,2.1162,2.1162,2.1387,2.1816,2.1816,2.1836,2.1885,2.1885,2.167,2.1309,2.125,2.0967,2.0566,2.0566,2.0566,2.0566,2.0566,2.0566,2.0566,2.0566,2.0566,2.0566,2.0566,2.0566,2.0566,2.0566,2.0566,2.0566,2.0566,2.0566,2.0566,2.0566,2.0566,2.0566,2.0566,2.0566,2.0566,2.0566,2.1221,2.1593,2.0789,2.2787,2.4409,2.3661,2.5063,2.6383,2.6452,2.6533,2.6533,2.6533,2.6533,2.6533,2.6533,2.6533,2.6533,2.6533,2.6533,2.6533,2.6533,2.6533,2.6533,2.6533,2.6533,2.6533,2.6533,2.6533,2.6533,2.6533,2.6533,2.6533,2.6533,2.6533,2.6533,-0.0808,0.0,0.0,0.0,0.0,0.0,0.0,0.0,0.1178,0.5461,0.6311,0.6303,0.6437,0.653,0.6645,0.0,0.6793,0.6885,0.7031,0.7657,0.8289,0.8794,1.0096,1.1037,1.1552,1.198,1.2766,1.3997,1.4088,1.4573,1.5621,1.5696,1.6191,1.7253,1.839,1.9145,1.938,2.0372,2.1172,2.1611,2.1611,2.1836,2.2246,2.2246,2.2383,2.2617,2.2617,2.2236,2.1611,2.1611,2.1201,2.0566,2.0566,2.0566,2.0566,2.0566,2.0566,2.0566,2.0566,2.0566,2.0566,2.0566,2.0566,2.0566,2.0566,2.0566,2.0566,2.0566,2.1011,2.1451,2.1451,2.1821,2.2113,2.1517,2.1897,2.2113,2.1517,2.2188,2.2776,2.2339,2.3305,2.4192,2.4337,2.5075,2.5804,2.6383,2.6533,2.6533,2.6533,2.6533,2.6533,2.6533,2.6533,2.6533,2.6533,2.6533,2.6533,2.6533,2.6533,2.6533,2.6533,2.6533,2.6533,2.6533,2.6533,2.6533,2.6533,2.6533,2.6533,2.6533,2.6791,2.6942,-0.0695,0.0,0.0,0.0,0.0,0.0,0.0,0.0896,0.2428,0.4901,0.5917,0.6377,0.6537,0.6613,0.6723,0.6888,0.6963,0.7107,0.7562,0.8364,0.9148,0.9753,1.13,1.2413,1.2766,1.2766,1.3118,1.3997,1.4487,1.519,1.6254,1.6739,1.7458,1.8542,1.9371,1.9922,2.0218,2.0981,2.1631,2.206,2.206,2.2275,2.2685,2.2685,2.2852,2.3135,2.3135,2.2656,2.1885,2.1885,2.1367,2.0566,2.0566,2.0566,2.0566,2.0566,2.0566,2.0566,2.0566,2.0566,2.0566,2.0566,2.0566,2.0644,2.0934,2.1011,2.1011,2.1308,2.1897,2.2403,2.2403,2.2925,2.3294,2.2627,2.2999,2.3294,2.2553,2.322,2.3818,2.3514,2.3963,2.448,2.4933,2.5229,2.5664,2.6383,2.6533,2.6533,2.6533,2.6533,2.6533,2.6533,2.6533,2.6533,2.6533,2.6533,2.6533,2.6533,2.6533,2.6533,2.6533,2.6533,2.6533,2.6533,2.6533,2.6533,2.6533,2.6615,2.6691,2.6703,2.7256,2.7507,-0.0,0.0,0.0,0.0,0.0,0.0,0.0,0.3181,0.5591,0.3577,0.4846,0.6312,0.6451,0.6597,0.6746,0.6902,0.7044,0.7485,0.8715,0.889,0.9753,1.1895,1.2242,1.2766,0.0,1.4082,1.4088,1.4088,1.5418,1.6761,1.7862,1.9283,2.0606,2.1753,2.1763,2.1855,2.1865,2.1865,2.208,2.249,2.249,2.2715,2.3125,2.3125,2.3125,2.3135,2.3135,2.2656,2.1885,2.1885,2.1367,2.0566,2.0566,2.0566,2.0566,2.0566,2.0566,2.0566,2.0566,2.0566,2.0566,2.0566,2.0566,2.0789,2.1669,2.1952,2.2178,2.3147,2.3441,2.3441,2.3441,2.3452,2.3514,2.3441,2.3514,2.3514,2.3441,2.4264,2.4636,2.3661,2.5063,2.6094,2.5158,2.5804,2.6452,2.6533,2.6533,2.6533,2.6533,2.6533,2.6533,2.6533,2.6533,2.6533,2.6533,2.6533,2.6533,2.6533,2.6533,2.6533,2.6533,2.6533,2.6533,2.6533,2.6533,2.6533,2.6533,2.6992,2.7256,2.7268,2.7821,2.8084,0.0,0.0,0.0,0.0,0.0,0.0752,0.3555,0.5303,0.6099,0.5401,0.5877,0.6551,0.66,0.6749,0.6898,0.7044,0.772,0.8452,0.8803,1.0183,1.1466,1.2242,1.3027,0.0,0.0,0.0,0.0,1.551,1.6037,1.7202,1.9318,1.9955,2.0727,2.1885,2.1885,2.2021,2.2305,2.2305,2.251,2.293,2.293,2.2998,2.3135,2.3135,2.3135,2.3125,2.2842,2.2402,2.1865,2.1572,2.1103,2.0566,2.0566,2.0566,2.0566,2.0566,2.0566,2.0566,2.0566,2.0566,2.0712,2.1298,2.1517,2.1735,2.2702,2.2999,2.3073,2.3368,2.3963,2.4492,2.4492,2.4992,2.5358,2.4636,2.4992,2.5288,2.4636,2.5288,2.5984,2.6031,2.602,2.6273,2.6954,2.6773,2.6773,2.7473,2.6929,2.6533,2.6533,2.6533,2.6533,2.6533,2.6533,2.6533,2.6533,2.6533,2.6533,2.6533,2.6533,2.6533,2.6533,2.6533,2.6533,2.6533,2.6533,2.671,2.7005,2.7193,2.7469,2.7846,2.8398,2.8649,0.0,0.0,0.0,0.0,0.0,0.1078,0.5349,0.6322,0.6312,0.6285,0.6434,0.6541,0.6597,0.6698,0.6831,0.7034,0.7672,0.8471,0.9396,1.0783,1.1986,1.2851,1.3646,1.425,0.0,0.0,0.0,1.6244,1.7328,1.8683,2.0404,2.0985,2.1608,2.2334,2.2334,2.2461,2.2734,2.2734,2.2871,2.3135,2.3551,2.3464,2.3135,2.3135,2.3135,2.3115,2.2695,2.2275,2.1846,2.1416,2.0967,2.0566,2.0566,2.0566,2.0566,2.0566,2.0566,2.0566,2.0566,2.0779,2.1231,2.1811,2.2253,2.2702,2.3745,2.4036,2.4108,2.4469,2.5063,2.5523,2.5523,2.6025,2.6314,2.5664,2.6025,2.6314,2.5664,2.6173,2.6854,2.7218,2.6892,2.6907,2.7961,2.7545,2.7385,2.8024,2.7507,2.7042,2.7042,2.7042,2.7042,2.7042,2.7042,2.7042,2.7042,2.7042,2.7042,2.7042,2.7042,2.7042,2.7042,2.7042,2.7042,2.7042,2.7042,2.7218,2.7582,2.777,2.8059,2.8411,2.8976,2.9239,0.0,0.0,0.0,0.0,0.0,0.1099,0.5207,0.623,0.6291,0.6281,0.6274,0.6312,0.0,0.0,0.6661,0.6953,0.709,0.7994,1.0307,1.0692,1.1649,0.0,0.0,0.0,0.0,0.0,0.0,1.6537,0.0,2.0898,2.1012,2.237,2.3135,2.3135,2.3135,2.3135,2.3135,2.3135,2.3222,2.3222,2.4286,2.4211,2.3222,2.3135,2.3125,2.3086,2.2656,2.2246,2.1816,2.1377,2.0947,2.0566,2.0566,2.0566,2.0566,2.0566,2.0566,2.0566,2.0566,2.1221,2.2027,2.2027,2.2776,2.3734,2.4779,2.5075,2.53,2.6245,2.6533,2.6533,2.6533,2.6533,2.6533,2.6533,2.6533,2.6533,2.6559,2.6917,2.7306,2.7356,2.7808,2.8197,2.8197,2.8197,2.8197,2.8197,2.8197,2.8172,2.8109,2.8109,2.8109,2.8109,2.8109,2.8109,2.8109,2.8109,2.8109,2.8109,2.8109,2.8109,2.8109,2.8109,2.8109,2.8109,2.8109,2.8122,2.8147,2.8674,2.895,2.8988,2.9528,2.9792,0.0,0.0,0.0,0.0,0.0,0.0706,0.3288,0.5179,0.6291,0.6271,0.6346,0.643,0.0,0.0,0.0,0.7895,0.9424,0.0,1.145,1.2475,0.0,1.4004,0.0,1.5379,1.5696,1.7565,0.0,0.0,2.0256,2.1383,2.2505,2.2902,2.3135,2.3135,2.3135,2.3135,2.3135,2.3963,2.4382,2.4372,2.4617,2.4628,2.4382,2.3474,2.2969,2.2646,2.2227,2.1797,2.1367,2.0918,2.0674,2.0566,2.0566,2.0566,2.0566,2.0566,2.0566,2.0566,2.0566,2.1221,2.2103,2.285,2.3818,2.4779,2.5804,2.6094,2.6164,2.6452,2.6533,2.6533,2.6533,2.6533,2.6533,2.6533,2.6533,2.6647,2.6979,2.718,2.7532,2.8348,2.8976,2.9365,2.9365,2.9365,2.9365,2.9365,2.9365,2.9063,2.821,2.8109,2.8109,2.8109,2.8109,2.8109,2.8109,2.8109,2.8109,2.8109,2.8109,2.8109,2.8109,2.8109,2.8109,2.8109,2.8109,2.831,2.8725,2.8863,2.9151,2.9578,2.9729,2.9792,0.0,0.0,0.0,0.0,0.1414,0.2826,0.3049,0.4776,0.6285,0.6264,0.6325,0.0,0.638,0.7311,0.0,0.0,0.0,0.0,1.1828,1.2588,1.3574,0.0,1.5296,0.0,1.7082,1.865,1.9953,0.0,2.1381,2.2054,2.3028,2.3135,2.3135,2.3135,2.3135,2.3299,2.38,2.4967,2.5546,2.5546,2.6036,2.6036,2.5546,2.4588,2.4033,2.3836,0.0,2.2766,2.2486,2.1568,2.1451,2.1821,2.1375,2.1451,2.1897,2.1897,2.1603,2.1221,2.1221,2.1811,2.2776,2.3294,2.448,2.5734,2.6314,2.6533,2.6533,2.6533,2.6533,2.6533,2.6533,2.6533,2.6533,2.6533,2.6533,2.6684,2.7168,2.7469,2.7971,2.9089,2.9566,2.9792,2.9792,2.9792,2.9792,2.9792,2.9792,2.9566,2.8925,2.885,2.885,2.885,2.885,2.885,2.885,2.885,2.885,2.885,2.885,2.885,2.885,2.885,2.885,2.885,2.885,2.9001,2.9302,2.9302,2.9478,2.9792,2.9792,2.9792,0.0,0.0,0.0157,0.0707,0.3618,0.5839,0.3912,0.4929,0.6268,0.6237,0.0,0.6224,0.6203,0.7179,0.7995,0.8099,0.0,1.0342,1.1857,1.2234,1.3181,1.5352,1.5921,1.6919,1.8789,1.9425,2.0326,2.1763,2.2217,2.2637,2.3115,2.3135,2.3135,2.3135,2.3222,2.38,2.4787,2.6047,2.6719,2.6719,2.7683,2.7602,2.6707,2.5945,2.5596,2.5485,2.458,2.4145,2.398,2.2724,2.2702,2.3441,2.2553,2.2702,2.3514,2.3514,2.2925,2.2178,2.2178,2.285,2.3672,2.3514,2.4838,2.6533,2.6533,2.6533,2.6533,2.6533,2.6533,2.6533,2.6533,2.6533,2.6533,2.6533,2.6533,2.6697,2.7256,2.7883,2.8624,2.9603,2.9792,2.9792,2.9792,2.9792,2.9792,2.9792,2.9792,2.9792,2.9792,2.9792,2.9792,2.9792,2.9792,2.9792,2.9792,2.9792,2.9792,2.9792,2.9792,2.9792,2.9792,2.9792,2.9792,2.9792,2.9792,2.9792,2.9792,2.9792,2.9792,2.9792,2.9792,2.9792,0.0,0.0,0.0864,0.4332,0.5767,0.624,0.5808,0.6038,0.0,0.0,0.6071,0.603,0.5905,0.7313,0.8529,0.8891,0.0,0.0,0.0,0.0,1.4904,0.0,0.0,0.0,0.0,0.0,0.0,0.0,0.0,2.2324,2.3096,2.3135,2.3135,2.3135,2.4049,2.4628,2.4787,2.6778,2.7844,2.7844,2.8016,2.8004,2.7752,2.6256,2.5418,2.5094,2.4435,0.0,2.3564,2.3338,2.3368,2.3514,2.3294,2.3368,2.3514,2.3514,2.3368,2.322,2.322,2.3891,2.4636,2.3745,2.4838,2.6533,2.6533,2.6533,2.6533,2.6533,2.6533,2.6533,2.6533,2.6533,2.6533,2.6533,2.6533,2.6741,2.7745,2.8775,2.9553,2.9754,2.9792,2.9792,2.9792,2.9792,2.9792,2.9792,2.9792,2.9792,2.9792,2.9792,2.9792,2.9792,2.9792,2.9792,2.9792,2.9792,2.9792,2.9792,2.9792,2.9792,2.9792,2.9792,2.9792,2.9792,2.9792,2.9792,2.9792,2.9792,2.9792,2.9792,2.9792,2.9792,0.2673,0.327,0.3459,0.4399,0.5506,0.6278,0.6179,0.0,0.0,0.0,0.5911,0.6033,0.6384,0.7641,0.0,0.9406,1.1352,1.2963,1.3209,0.0,0.0,0.0,0.0,0.0,0.0,0.0,0.0,0.0,0.0,2.2875,2.3096,2.3627,2.4221,2.4808,2.5389,2.5953,2.6521,2.7591,2.8426,2.8937,2.8937,2.879,2.8484,2.7387,2.6633,2.6196,2.5599,2.529,2.4992,2.448,2.4624,2.4992,2.448,2.4624,2.5063,2.5063,2.4696,2.4264,2.4264,2.4564,2.4933,2.442,2.5288,2.6533,2.6533,2.6533,2.6533,2.6533,2.6533,2.6533,2.6533,2.6533,2.6533,2.6533,2.6904,2.7457,2.7996,2.9001,2.9792,2.9792,2.9792,2.9792,2.9792,2.9792,2.9792,2.9792,2.9792,2.9792,2.9792,2.9792,2.9792,2.9792,2.9792,2.9792,2.9792,2.9792,2.9792,2.9792,2.9792,2.9792,2.9792,2.9792,2.9792,2.9792,2.9792,2.9792,2.9792,2.9792,2.9792,2.9792,2.9792,2.9792,0.4638,0.5825,0.5748,0.4085,0.4934,0.6149,0.6023,0.5986,0.0,0.0,0.5755,0.6026,0.683,0.0,0.8774,0.0,1.155,1.3057,1.3524,1.5078,1.6632,0.0,0.0,0.0,0.0,0.0,0.0,0.0,2.3026,2.3927,2.3846,2.4713,2.5546,2.6483,2.6719,2.729,2.8096,2.8347,2.8937,2.9792,2.9666,2.9365,2.89,2.8235,2.7695,2.7256,2.6703,2.6533,2.6452,2.5664,2.5804,2.6383,2.5664,2.5804,2.6533,2.6533,2.6025,2.53,2.53,2.53,2.53,2.53,2.5873,2.6533,2.6533,2.6533,2.6533,2.6533,2.6533,2.6533,2.6533,2.6533,2.6533,2.6533,2.7306,2.8109,2.8109,2.9001,2.9792,2.9792,2.9792,2.9792,2.9792,2.9792,2.9792,2.9792,2.9792,2.9792,2.9792,2.9792,2.9792,2.9792,2.9792,2.9792,2.9792,2.9792,2.9792,2.9792,2.9792,2.9792,2.9792,2.9792,2.9792,2.9792,2.9792,2.9792,2.9792,2.9792,2.9792,2.9792,2.9792,2.9792,0.2896,0.4395,0.5818,0.5507,0.5577,0.5791,0.583,0.0,0.0,0.564,0.561,0.5837,0.6606,0.7428,0.8417,0.0,0.0,1.1978,1.3189,1.4792,1.6326,1.7784,0.0,0.0,2.0527,2.0566,0.0,2.2465,2.4339,2.5647,2.6202,2.6307,2.6389,2.6483,2.7441,2.8004,2.8096,2.9118,2.9714,2.9779,2.9252,2.8976,2.89,2.7846,2.7331,2.7256,2.6703,2.6533,0.0,2.6383,2.6383,2.6465,2.6383,2.6383,2.6533,2.6533,2.6452,2.6383,2.6383,2.6383,2.6383,2.6383,2.6383,2.6533,2.6533,2.6533,2.6533,2.6533,2.6533,2.6533,2.6533,2.6533,2.6533,2.6533,2.7306,2.8109,2.8109,2.9001,2.9792,2.9792,2.9792,2.9792,2.9792,2.9792,2.9792,2.9792,2.9792,2.9792,2.9792,2.9792,2.9792,2.9792,2.9792,2.9792,2.9792,2.9792,2.9792,2.9792,2.9792,2.9792,2.9792,2.9792,2.9792,2.9792,2.9792,2.9792,2.9792,2.9792,2.9792,2.9792,2.9792,2.9792,0.4464,0.5114,0.5765,0.5748,0.5741,0.5718,0.5694,0.0,0.5766,0.621,0.6242,0.6685,0.8047,0.8549,0.9104,0.0,0.0,0.0,1.2991,1.5002,1.6767,1.7777,1.9042,0.0,0.0,0.0,2.2303,2.4423,2.5562,2.6675,2.7855,2.7611,2.7787,2.8462,2.887,2.9106,2.9106,2.9197,2.9277,2.9264,2.8699,2.826,2.7921,2.7482,2.7105,2.6848,2.6553,2.6533,0.0,2.6533,2.6533,2.6533,2.6533,2.6533,2.6533,2.6533,2.6533,2.6533,2.6533,2.6533,2.6533,2.6533,2.6533,2.6533,2.6533,2.6533,2.6533,2.6533,2.6533,2.6533,2.6533,2.6533,2.6533,2.6533,2.7306,2.8109,2.8109,2.9001,2.9792,2.9792,2.9792,2.9792,2.9792,2.9792,2.9792,2.9792,2.9792,2.9792,2.9792,2.9792,2.9792,2.9792,2.9792,2.9792,2.9792,2.9792,2.9792,2.9792,2.9792,2.9792,2.9792,2.9792,2.9792,2.9792,2.9792,2.9792,2.9792,2.9792,2.9792,2.9792,2.9792,2.9792,0.5607,0.5613,0.5621,0.5674,0.5671,0.5644,0.0,0.0,0.5759,0.6552,0.6719,0.7242,0.9005,0.9274,0.9594,1.0428,0.0,1.2204,1.2796,1.4763,1.6616,0.0,0.0,0.0,0.0,2.2553,2.3716,2.5621,2.6468,2.7385,2.8575,2.8317,2.8607,2.9779,2.9628,2.9528,2.9528,2.8963,2.8687,2.8687,2.8122,2.7657,2.7268,2.7118,2.6829,2.6533,2.6533,2.6533,0.0,2.6533,2.6533,2.6533,2.6533,2.6533,2.6533,2.6533,2.6533,2.6533,2.6533,2.6533,2.6533,2.6533,2.6533,2.6533,2.6533,2.6533,2.6533,2.6533,2.6533,2.6533,2.6533,2.6533,2.6533,2.6533,2.718,2.7908,2.8072,2.8863,2.9591,2.9767,2.9792,2.9792,2.9792,2.9792,2.9792,2.9792,2.9792,2.9792,2.9792,2.9792,2.9792,2.9792,2.9792,2.9792,2.9792,2.9792,2.9792,2.9792,2.9792,2.9792,2.9792,2.9792,2.9792,2.9792,2.9792,2.9792,2.9792,2.9792,2.9792,2.9792,2.9792,2.9792,0.5428,0.5432,0.5432,0.5432,0.5432,0.5432,0.0,0.5428,0.5624,0.6527,0.6719,0.7242,0.9005,0.9274,0.9594,1.0428,1.0802,0.0,1.2729,1.393,0.0,0.0,0.0,2.0052,2.1793,2.3818,2.5218,2.5779,2.6744,0.0,2.8084,2.8109,2.8637,2.9754,2.9239,2.8938,2.8938,2.8398,2.8109,2.8109,2.7557,2.7293,2.7268,2.6716,2.6533,2.6533,2.6533,2.6533,0.0,2.6533,2.6533,2.6533,2.6533,2.6533,2.6533,2.6533,2.6533,2.6533,2.6533,2.6533,2.6533,2.6533,2.6533,2.6533,2.6533,2.6533,2.6533,2.6533,2.6533,2.6533,2.6533,2.6533,2.6533,2.6533,2.6892,2.7444,2.7996,2.8549,2.9114,2.9679,2.9792,2.9792,2.9792,2.9792,2.9792,2.9792,2.9792,2.9792,2.9792,2.9792,2.9792,2.9792,2.9792,2.9792,2.9792,2.9792,2.9792,2.9792,2.9792,2.9792,2.9792,2.9792,2.9792,2.9792,2.9792,2.9792,2.9792,2.9792,2.9792,2.9792,2.9792,2.9792,0.5428,0.5428,0.5428,0.5428,0.5428,0.5428,0.5428,0.5881,0.6527,0.7437,0.8091,0.8812,0.9977,1.0174,1.0301,1.0561,1.0698,0.0,0.0,0.0,0.0,1.8461,2.1456,2.3406,0.0,0.0,2.6087,2.626,2.6914,2.7356,2.7532,2.7896,2.8273,2.8624,2.8461,2.836,2.836,2.7821,2.7544,2.7544,2.6979,2.6716,2.6716,2.6609,2.6533,2.6533,2.6533,2.6533,2.6533,2.6533,2.6533,2.6533,2.6533,2.6533,2.6533,2.6533,2.6533,2.6533,2.6533,2.6533,2.6533,2.6533,2.6533,2.6533,2.6533,2.6533,2.6533,2.6533,2.6533,2.6533,2.6533,2.6533,2.6533,2.6533,2.6879,2.7331,2.7507,2.8273,2.8988,2.9164,2.9528,2.9792,2.9792,2.9792,2.9792,2.9792,2.9792,2.9792,2.9792,2.9792,2.9792,2.9792,2.9792,2.9792,2.9792,2.9792,2.9792,2.9792,2.9792,2.9792,2.9792,2.9792,2.9792,2.9792,2.9792,2.9792,2.9792,2.9792,2.9792,2.9792,2.9792,2.9792,0.0,0.5428,0.5495,0.5815,0.5881,0.0,0.6338,0.6789,0.7437,0.8291,0.8941,0.9594,1.0428,1.0624,1.0624,1.0624,1.0863,0.0,0.0,0.0,0.0,1.9918,0.0,0.0,0.0,2.5873,2.6533,2.6533,2.6779,2.6967,2.6967,2.7293,2.7494,2.7494,2.7682,2.7795,2.7795,2.7256,2.6967,2.6967,2.6697,2.6533,2.6533,2.6533,2.6533,2.6533,2.6533,2.6533,0.0,2.6533,2.6533,2.6533,2.6533,2.6533,2.6533,2.6533,2.6533,2.6533,2.6533,2.6533,2.6533,2.6533,2.6533,2.6533,2.6533,2.6533,2.6533,2.6533,2.6533,2.6533,2.6533,2.6533,2.6533,2.6533,2.6798,2.703,2.7243,2.7821,2.8436,2.885,2.9214,2.9528,2.9754,2.9792,2.9792,2.9792,2.9792,2.9792,2.9792,2.9792,2.9792,2.9792,2.9792,2.9792,2.9792,2.9792,2.9792,2.9792,2.9792,2.9792,2.9792,2.9792,2.9792,2.9792,2.9792,2.9792,2.9792,2.9792,2.9792,2.9792,2.9792,2.9792,0.0,0.5557,0.5752,0.0,0.0,0.0,0.7827,0.8027,0.0,0.9139,0.9338,0.9658,1.0434,1.0624,1.0688,1.0688,1.1351,0.0,0.0,1.5395,0.0,0.0,2.3328,0.0,2.4957,2.5873,2.6533,2.6533,2.6533,2.6533,2.6533,2.6533,2.6533,2.6533,2.7024,2.7289,2.7218,2.6716,2.6533,2.6533,2.6533,2.6533,2.6533,2.6589,2.6589,0.0,2.6658,2.6658,2.6589,2.6589,2.6589,2.6589,2.6521,2.6589,2.6658,2.6589,2.6589,2.6589,2.6658,2.6658,2.6589,2.6589,2.6521,2.6533,2.6533,2.6533,2.6533,2.6533,2.6533,2.6533,2.6533,2.6533,2.6533,2.6533,2.6533,2.6672,2.7118,2.7256,2.7582,2.8612,2.8875,2.9101,2.9641,2.9767,2.9792,2.9792,2.9792,2.9792,2.9792,2.9792,2.9792,2.9792,2.9792,2.9792,2.9792,2.9792,2.9792,2.9792,2.9792,2.9792,2.9792,2.9792,2.9792,2.9792,2.9792,2.9792,2.9792,2.9792,2.9792,2.9792,2.9792,2.9792,0.7442,0.0,0.7442,0.7637,0.7697,0.7767,0.0,0.8484,0.9075,0.0,0.0,1.0364,1.0561,1.1108,1.1531,1.1531,0.0,0.0,1.469,0.0,0.0,2.1866,2.3943,2.5191,2.5028,2.5873,2.6533,2.6533,2.6533,2.6533,2.6533,2.6533,2.6533,2.6533,2.7237,2.7288,2.6722,2.6596,2.6533,2.6533,2.6533,2.6533,2.6521,2.7162,2.7417,2.7484,2.8117,2.8051,2.7417,2.7417,2.7417,2.7351,2.6714,2.7297,2.8298,2.767,2.7417,2.7484,2.8182,2.7986,2.7417,2.7417,2.6973,2.6533,2.6533,2.6533,2.6533,2.6533,2.6533,2.6533,2.6533,2.6533,2.6533,2.6533,2.6533,2.6559,2.6697,2.6979,2.7356,2.762,2.8348,2.8976,2.9114,2.9503,2.9792,2.9792,2.9792,2.9792,2.9792,2.9792,2.9792,2.9792,2.9792,2.9792,2.9792,2.9792,2.9792,2.9792,2.9792,2.9792,2.9792,2.9792,2.9792,2.9792,2.9792,2.9792,2.9792,2.9792,2.9792,2.9792,2.9792,2.9792,0.9029,0.8608,0.8091,0.8484,0.8613,0.8678,0.9128,0.0,0.0,0.0,0.0,1.1163,1.1163,1.1841,0.0,0.0,1.3202,0.0,0.0,0.0,0.0,2.2536,2.4022,2.5122,0.0,2.6164,2.6533,2.6533,2.6533,2.6658,2.704,2.6714,2.685,2.7604,2.767,2.7484,2.704,2.7484,2.767,2.767,2.767,2.7417,2.7095,2.792,2.8051,2.7736,2.862,2.8748,2.8298,2.8298,2.8298,2.8247,2.7802,2.8182,2.8939,2.8492,2.8298,2.8363,2.8812,2.8684,2.8247,2.7868,2.7417,2.6973,2.6589,2.6533,2.6533,2.6533,2.6533,2.6533,2.6533,2.6533,2.6533,2.6533,2.6533,2.6533,2.6533,2.6703,2.6979,2.7231,2.777,2.8335,2.8837,2.9189,2.949,2.9754,2.9792,2.9792,2.9792,2.9792,2.9792,2.9792,2.9792,2.9792,2.9792,2.9792,2.9792,2.9792,2.9792,2.9792,2.9792,2.9792,2.9792,2.9792,2.9792,2.9792,2.9792,2.9792,2.9792,2.9792,2.9792,2.9792,1.0227,0.9545,0.8731,0.9332,0.953,0.9722,1.0428,0.0,0.0,0.0,0.0,0.0,0.0,1.2634,0.0,0.0,0.0,0.0,1.8659,1.9726,2.1006,2.3219,2.3974,0.0,2.6102,2.6383,2.6533,2.6533,2.6589,2.6973,2.767,2.7162,2.755,2.8939,2.8427,2.8117,2.8117,2.8684,2.9002,2.9002,2.9002,2.862,2.792,2.8812,2.8812,2.8117,0.0,0.0,2.9192,2.9192,2.9192,2.9192,2.9066,2.9192,2.938,2.9254,2.9192,2.9192,2.9192,2.9192,2.9066,2.8182,2.7802,2.7537,2.6714,2.6533,2.6533,2.6533,2.6533,2.6533,2.6533,2.6533,2.6533,2.6533,2.6533,2.6533,2.6533,2.6533,2.6603,2.7067,2.7218,2.7582,2.8511,2.8812,2.9089,2.9591,2.9729,2.9792,2.9792,2.9792,2.9792,2.9792,2.9792,2.9792,2.9792,2.9792,2.9792,2.9792,2.9792,2.9792,2.9792,2.9792,2.9792,2.9792,2.9792,2.9792,2.9792,2.9792,2.9792,2.9792,2.9792,2.9792,1.0113,1.0712,1.108,1.0548,1.0428,1.0428,1.0561,0.0,0.0,0.0,0.0,0.0,0.0,0.0,0.0,0.0,0.0,1.8294,0.0,0.0,2.2022,2.3171,0.0,2.4858,2.5204,2.6025,2.6533,2.6533,2.7095,2.7537,2.767,2.8298,2.8748,2.9002,2.9566,2.9889,2.9889,2.9317,2.9002,2.9002,2.9002,2.8939,2.8812,2.969,3.0011,2.995,0.0,3.0718,3.0072,3.0072,3.0072,3.0011,2.9317,2.9889,3.1029,3.0329,3.0072,3.0072,3.0072,3.0072,2.995,2.9066,2.8298,2.7537,2.6714,2.6533,2.6533,2.6533,2.6533,2.6533,2.6533,2.6533,2.6533,2.6533,2.6533,2.6533,2.6533,2.6533,2.6546,2.6634,2.6967,2.7344,2.7507,2.831,2.895,2.9051,2.9478,2.9792,2.9792,2.9792,2.9792,2.9792,2.9792,2.9792,2.9792,2.9792,2.9792,2.9792,2.9792,2.9792,2.9792,2.9792,2.9792,2.9792,2.9792,2.9792,2.9792,2.9792,2.9792,2.9792,2.9792,2.9792,1.0147,1.1105,1.198,1.1432,1.16,1.1911,1.1911,0.0,0.0,0.0,0.0,0.0,0.0,0.0,1.5134,1.6117,0.0,1.9437,2.0676,2.1256,2.1974,0.0,0.0,2.481,2.573,2.662,2.7162,2.7162,2.792,2.862,2.9066,2.9066,2.9442,3.0329,3.0329,3.0524,3.097,3.0524,3.0329,3.0329,3.0329,3.0133,2.9752,3.0584,3.0703,3.0329,0.0,3.1278,3.097,3.097,3.097,3.0896,3.0524,3.0837,3.1467,3.1087,3.097,3.097,3.097,3.097,3.0837,2.995,2.9129,2.8247,2.7417,2.685,2.6533,2.6533,2.6533,2.6533,2.6533,2.6533,2.6533,2.6533,2.6533,2.6533,2.6533,2.6533,2.6533,2.6533,2.6666,2.6929,2.7231,2.7946,2.8586,2.8888,2.9415,2.9792,2.9792,2.9792,2.9792,2.9792,2.9792,2.9792,2.9792,2.9792,2.9792,2.9792,2.9792,2.9792,2.9792,2.9792,2.9792,2.9792,2.9792,2.9792,2.9792,2.9792,2.9792,2.9792,2.9792,2.9792,1.0272,1.147,1.2622,1.2417,0.0,1.3009,1.3009,0.0,0.0,0.0,0.0,0.0,0.0,1.5234,0.0,1.803,1.9343,2.0453,2.1083,2.1422,2.2166,2.3628,2.4152,2.4932,2.6389,2.7229,2.767,2.767,2.8684,2.9566,3.0269,2.9827,3.0147,3.1467,3.0896,3.0896,3.1482,3.1482,3.1482,3.1482,3.1482,3.1161,3.0584,3.1219,3.1161,3.0644,3.1219,3.1482,3.1482,3.1482,3.1482,3.1482,3.1482,3.1482,3.1482,3.1482,3.1482,3.1482,3.1482,3.1482,3.1351,3.0584,2.9827,2.9129,2.8233,2.7417,2.685,2.704,2.6905,2.6782,2.6782,2.6782,2.6782,2.6782,2.6658,2.6533,2.6533,2.6533,2.6533,2.6533,2.6533,2.6659,2.7017,2.786,2.8515,2.8674,2.9543,3.0075,2.9869,2.9792,2.9792,2.9792,2.9792,2.9792,2.9792,2.9792,2.9792,2.9792,2.9792,2.9934,3.0139,2.9934,2.9792,2.9792,2.9792,2.9792,2.9792,2.9792,2.9792,2.9792,2.9998,3.0139,1.0733,1.2143,1.3611,1.3927,0.0,0.0,1.3009,1.3009,0.0,0.0,0.0,0.0,0.0,1.6361,1.768,1.8974,2.0273,2.1512,2.2737,0.0,2.3405,2.4553,2.4716,2.5231,2.6364,2.7229,2.767,2.767,2.9254,3.0208,3.0329,3.097,3.1409,3.1482,3.1409,3.1409,3.1482,3.1482,3.1482,3.1482,3.1482,3.1467,3.1409,3.1467,3.1467,3.1409,3.1467,3.1482,3.1482,3.1482,3.1482,3.1482,3.1482,3.1482,3.1482,3.1482,3.1482,3.1482,3.1482,3.1482,3.1351,3.0584,3.0269,3.0011,2.9192,2.8298,2.7802,2.862,2.8247,2.7604,2.7604,2.7604,2.7604,2.7604,2.704,2.6533,2.6533,2.6533,2.6533,2.6533,2.6533,2.6546,2.6584,2.8131,2.9138,2.8293,2.9848,3.0758,2.9934,2.9792,2.9792,2.9792,2.9792,2.9792,2.9792,2.9792,2.9792,2.9792,2.9792,3.0216,3.1044,3.0279,2.9792,2.9792,2.9792,2.9792,2.9792,2.9792,2.9792,2.9792,3.0696,3.1106,1.115,1.2497,1.3922,1.3868,0.0,0.0,0.0,0.0,0.0,0.0,0.0,0.0,0.0,0.0,1.9353,1.9614,2.1223,2.2515,2.304,2.3078,2.3427,2.4217,2.4619,2.5291,2.6621,2.7838,2.8748,2.9254,3.0389,3.1029,3.1029,3.1351,3.1482,3.1482,3.1482,3.1482,3.1482,3.1482,3.1482,3.1482,3.1482,3.1482,3.1482,3.1482,3.1482,3.1482,3.1482,3.1482,3.1482,3.1482,3.1482,3.1482,3.1482,3.1482,3.1482,3.1482,3.1482,3.1482,3.1482,3.1482,3.1467,3.1161,3.0703,3.0269,2.9889,2.9192,2.8556,2.8939,2.9129,2.9192,2.862,2.8492,2.8363,2.7868,2.7484,2.7095,2.6589,2.6533,2.6533,2.6533,2.6533,2.6533,2.6533,2.8161,2.9394,2.9054,3.0223,3.1254,3.1476,3.1057,3.0696,3.0696,3.0139,2.9792,2.9792,2.9792,3.0075,3.062,3.0139,2.9934,3.0279,3.0011,2.9792,2.9792,3.0343,3.0696,3.0696,3.1267,3.1549,3.1549,3.1901,3.1742,1.1687,1.2885,1.4067,0.0,0.0,0.0,0.0,0.0,0.0,0.0,0.0,0.0,0.0,0.0,0.0,0.0,2.1898,2.3078,2.3078,2.3305,2.3688,2.4274,2.4857,2.5735,2.7103,2.8353,2.9417,3.0254,3.1029,3.1482,3.1482,3.1482,3.1482,3.1482,3.1482,3.1482,3.1482,3.1482,3.1482,3.1482,3.1482,3.1482,3.1482,3.1482,3.1482,3.1482,3.1482,3.1482,3.1482,3.1482,3.1482,3.1482,3.1482,3.1482,3.1482,3.1482,3.1482,3.1482,3.1482,3.1482,3.1482,3.1482,3.1146,3.0703,3.0703,3.0072,2.9442,2.969,3.0011,3.0208,2.9889,2.9566,2.9254,2.8684,2.8298,2.7986,2.7417,2.7095,2.6905,2.6905,2.6658,2.6533,2.6533,2.8281,2.9642,2.9495,3.077,3.1973,3.2508,3.2033,3.1683,3.1683,3.1057,3.0709,3.0709,3.0709,3.0983,3.1609,3.1057,3.0709,3.0709,3.0432,3.0355,3.0709,3.1328,3.1683,3.1683,3.2321,3.2593,3.2593,3.2593,3.2249,1.2389,1.3274,0.0,0.0,0.0,0.0,0.0,0.0,0.0,0.0,0.0,0.0,1.8222,0.0,0.0,2.1093,2.2284,2.3078,2.3078,2.3767,2.4503,2.5011,2.5729,2.6648,2.7905,2.8771,2.9577,3.0271,3.1014,3.1467,3.1482,3.1482,3.1482,3.1482,3.1482,3.1482,3.1482,3.1482,3.1482,3.1482,3.1482,3.1482,3.1482,3.1482,3.1482,3.1482,3.1482,3.1482,3.1482,3.1482,3.1482,3.1467,3.1467,3.1467,3.1452,3.1467,3.1467,3.1467,3.1482,3.1482,3.1482,3.1482,3.1482,3.1482,3.1482,3.097,3.0464,3.1278,3.0896,3.0524,3.1278,3.0896,3.0329,3.0329,2.9628,2.9002,2.9002,2.8298,2.7736,2.7736,2.7095,2.6521,2.6533,2.8465,2.991,2.9568,3.1541,3.3001,3.2666,3.2593,3.2593,3.2593,3.2593,3.2593,3.2593,3.2593,3.2593,3.2593,3.2593,3.2593,3.2593,3.1669,3.1669,3.2593,3.2593,3.2593,3.2593,3.2593,3.2593,3.2593,3.2593,3.2593,1.2721,0.0,0.0,0.0,0.0,0.0,0.0,0.0,0.0,0.0,0.0,1.8115,1.8823,0.0,0.0,2.1643,2.2457,2.3078,2.3078,2.3767,2.4358,2.453,2.553,2.6549,2.7556,2.8226,2.9102,3.0334,3.0678,3.1016,3.1452,3.1482,3.1482,3.1482,3.1482,3.1482,3.1482,3.1482,3.1482,3.1482,3.1482,3.1482,3.1482,3.1482,3.1482,3.1482,3.1482,3.1482,3.1482,3.1482,3.124,3.0806,3.0806,3.0552,3.0208,3.0657,3.0806,3.0881,3.136,3.1482,3.1482,3.1482,3.1482,3.1482,3.1482,3.1351,3.1219,3.1409,3.1351,3.1219,3.1409,3.1351,3.1029,3.045,3.0072,2.9766,2.9129,2.8812,2.862,2.862,2.8427,2.8051,2.7484,2.9292,3.0807,3.0567,3.2027,3.3217,3.3516,3.3602,3.3602,3.3602,3.2961,3.2593,3.2593,3.2593,3.2593,3.2593,3.2593,3.2593,3.2593,3.2321,3.2321,3.2593,3.3241,3.3602,3.3602,3.4259,3.4624,3.4624,3.4624,3.4259,1.3573,0.0,0.0,0.0,0.0,0.0,0.0,0.0,0.0,0.0,0.0,1.8844,1.9842,2.0764,0.0,2.2238,2.3053,2.3603,2.3603,2.4509,2.5175,2.5175,2.6105,2.7049,2.7881,2.8261,2.8925,3.0033,3.0133,3.0313,3.0731,3.0761,3.0761,3.0761,3.0761,3.0761,3.0761,3.0761,3.0761,3.0761,3.0761,3.0761,3.0761,3.1016,3.112,3.1106,3.0866,3.0761,3.0761,3.0761,3.0507,3.0133,3.0133,2.9909,2.9624,2.9998,3.0133,3.0193,3.0612,3.0911,3.112,3.112,3.13,3.1482,3.1482,3.1482,3.1482,3.1482,3.1482,3.1482,3.1482,3.1482,3.1409,3.0896,3.0777,3.0644,3.0133,2.9766,2.9504,2.9504,2.9254,2.8812,2.8298,2.9673,3.0979,3.1401,3.2933,3.42,3.4566,3.461,3.461,3.461,3.4109,3.3754,3.3754,3.3754,3.3754,3.3754,3.3754,3.3754,3.3754,3.3394,3.331,3.3754,3.4327,3.461,3.461,3.5213,3.5504,3.5504,3.5067,3.461,1.4468,0.0,0.0,0.0,0.0,0.0,0.0,0.0,0.0,0.0,0.0,1.9044,2.1145,2.1226,2.1488,2.2965,2.3826,2.435,2.4408,2.5618,2.651,2.651,2.7152,2.7814,2.8442,2.8502,2.8786,2.9445,2.949,2.952,2.9579,2.9579,2.9579,2.9579,2.9579,2.9579,2.9579,2.9579,2.9579,2.9579,2.9579,2.9579,2.9609,3.0163,3.0417,3.0387,2.9819,2.9579,2.9579,2.9579,2.9549,2.949,2.949,2.9445,2.9415,2.9475,2.949,2.9505,2.9564,2.9953,3.0432,3.0477,3.0926,3.1392,3.1452,3.1482,3.1482,3.1482,3.1482,3.1482,3.1482,3.1482,3.1482,3.1482,3.1482,3.1482,3.1482,3.0896,3.0389,3.0389,2.9766,2.9192,2.9129,2.9827,3.0823,3.2159,3.4144,3.5504,3.5504,3.5504,3.5504,3.5504,3.5504,3.5504,3.5504,3.5504,3.5504,3.5504,3.5504,3.5504,3.5504,3.461,3.4543,3.5504,3.5504,3.5504,3.5504,3.5504,3.5504,3.5504,3.4543,3.4163,0.0,1.5171,0.0,0.0,0.0,0.0,0.0,0.0,0.0,1.8768,1.9129,1.9904,2.1237,2.1456,2.1958,2.3774,2.4176,2.4509,2.5063,2.596,2.651,2.651,2.7152,2.7685,2.7784,2.785,2.8068,2.8757,2.8816,2.9041,2.9549,2.9579,2.9579,2.9579,2.9579,2.9579,2.9579,2.9579,2.9579,2.9579,2.9579,2.9579,2.9579,2.9714,2.9774,2.9774,2.9639,2.9579,2.9579,2.9579,2.928,2.8816,2.8816,2.8472,2.8068,2.8607,2.8816,2.8891,2.94,2.9669,2.9864,3.0342,3.0612,3.0821,3.1317,3.1482,3.1482,3.1482,3.1482,3.1482,3.1482,3.1482,3.1482,3.1482,3.1482,3.1482,3.1482,3.1351,3.1219,3.1219,3.1087,3.0777,3.0133,3.0703,3.1664,3.303,3.4509,3.5504,3.5504,3.5504,3.5504,3.5504,3.5504,3.5504,3.5504,3.5504,3.5504,3.5504,3.5504,3.5504,3.5504,3.5279,3.5279,3.5504,3.5504,3.5504,3.5504,3.5504,3.5504,3.5504,3.5279,3.5213,0.0,0.0,0.0,0.0,0.0,0.0,0.0,0.0,1.9695,1.9319,1.9527,2.0062,2.0928,2.1623,2.2444,2.3655,2.4705,2.5508,2.5837,2.6549,2.7049,2.7049,2.7357,2.7625,2.7625,2.7625,2.7724,2.8083,2.8113,2.8248,2.8592,2.8622,2.8622,2.8622,2.8622,2.8622,2.8622,2.8622,2.8622,2.8622,2.8622,2.8622,2.8637,2.8966,2.8936,2.8622,2.8622,2.8622,2.8622,2.8622,2.8412,2.8113,2.8113,2.7889,2.767,2.7979,2.8113,2.8158,2.8502,2.8831,2.916,2.949,2.9998,3.0567,3.0926,3.127,3.1482,3.1482,3.1482,3.1482,3.1482,3.1482,3.1482,3.1482,3.1482,3.1482,3.1482,3.1482,3.1482,3.1482,3.1482,3.1351,3.097,3.1738,3.2706,3.3395,3.4637,3.5504,3.5504,3.5504,3.5504,3.5504,3.5504,3.5504,3.5504,3.5504,3.5504,3.5504,3.5504,3.5504,3.5504,3.5504,3.5504,3.5504,3.5504,3.5504,3.5504,3.5504,3.5504,3.5504,3.5504,3.5504,0.0,0.0,0.0,0.0,0.0,0.0,0.0,0.0,1.9991,2.0093,1.994,2.0026,2.0711,2.1705,2.2697,2.3648,2.5224,2.6433,2.6654,2.7203,2.7625,2.7625,2.7625,2.7625,2.7625,2.7625,2.7625,2.7625,2.7625,2.7625,2.7625,2.7625,2.7625,2.7625,2.7625,2.7625,2.7625,2.7625,2.7625,2.7625,2.7625,2.7625,2.764,2.8158,2.8113,2.7625,2.7625,2.7625,2.7625,2.7625,2.7625,2.7625,2.7625,2.7625,2.7625,2.7625,2.7625,2.7625,2.7625,2.7949,2.8442,2.8562,2.931,3.0208,3.0432,3.0911,3.1317,3.1437,3.1482,3.1482,3.1482,3.1482,3.1482,3.1482,3.1482,3.1482,3.1482,3.1482,3.1482,3.1482,3.1482,3.1482,3.1482,3.2527,3.3365,3.3484,3.4532,3.537,3.5489,3.5504,3.5504,3.5504,3.5504,3.5504,3.5504,3.5504,3.5504,3.5504,3.5504,3.5504,3.5504,3.5504,3.5504,3.5504,3.5504,3.5504,3.5504,3.5504,3.5504,3.5504,3.5504,3.5504,0.0,0.0,0.0,0.0,0.0,0.0,0.0,0.0,2.0832,0.0,2.0557,2.0117,2.1251,2.1629,2.2481,2.4841,2.5435,2.6054,2.7268,2.7524,2.7625,2.7625,2.7625,2.7625,2.7625,2.7625,2.7625,2.7625,2.7625,2.7625,2.7625,2.7625,2.7625,2.7625,2.7625,2.7625,2.7625,2.7625,2.7625,2.7625,2.7625,2.7625,2.7625,2.7715,2.7664,2.7625,2.7625,2.7625,2.7625,2.7625,2.7625,2.7625,2.7625,2.7625,2.7625,2.7625,2.7625,2.7625,2.7625,2.7685,2.7814,2.8412,2.8727,2.9056,3.0178,3.0567,3.0761,3.136,3.1482,3.1482,3.1482,3.1482,3.1482,3.1482,3.1482,3.1482,3.1482,3.1482,3.1482,3.1482,3.1482,3.1482,3.1482,3.2153,3.2841,3.341,3.4143,3.4831,3.5429,3.5504,3.5504,3.5504,3.5504,3.5504,3.5504,3.5504,3.5504,3.5504,3.5504,3.5504,3.5504,3.5504,3.5504,3.5504,3.5504,3.5504,3.5504,3.5504,3.5504,3.5504,3.5504,3.5504,1.6823,0.0,0.0,0.0,0.0,0.0,0.0,0.0,2.139,2.1663,2.1232,2.1019,2.1583,2.2267,2.3175,2.4316,2.5418,2.6317,2.6976,2.7335,2.7625,2.7625,2.7625,2.7625,2.7625,2.7625,2.7625,2.7625,2.7625,2.7625,2.7625,2.7625,2.7625,2.7625,2.7625,2.7625,2.7625,2.7625,2.7625,2.7625,2.7625,2.7625,2.7625,2.7625,2.7625,2.7625,2.7625,2.7625,2.7625,2.7625,2.7625,2.7625,2.7625,2.7625,2.7625,2.7625,2.7625,2.7625,2.7625,2.7625,2.767,2.7919,2.8278,2.8771,2.9699,3.0223,3.0657,3.1345,3.1482,3.1482,3.1482,3.1482,3.1482,3.1482,3.1482,3.1482,3.1482,3.1482,3.1482,3.1482,3.1482,3.1482,3.1482,3.2078,3.2617,3.2901,3.3814,3.4592,3.4891,3.5265,3.5504,3.5504,3.5504,3.5504,3.5504,3.5504,3.5504,3.5504,3.5504,3.5504,3.5504,3.5504,3.5504,3.5504,3.5504,3.5504,3.5504,3.5504,3.5504,3.5504,3.5504,3.5504,0.0,0.0,0.0,0.0,0.0,0.0,0.0,0.0,2.1993,0.0,2.2179,2.2179,2.2179,2.2869,2.3551,2.3865,2.5139,2.6153,2.6318,2.6767,2.7126,2.7355,2.732,2.738,2.761,2.7625,2.7625,2.7625,2.7625,2.7625,2.7625,2.7625,2.7625,2.7625,2.7625,2.7625,2.7625,2.7625,2.7625,2.7625,2.7625,2.7625,2.7625,2.7625,2.7625,2.7625,2.7625,2.7625,2.7625,2.7625,2.7625,2.7625,2.7625,2.7625,2.7625,2.7625,2.7625,2.7625,2.7625,2.7625,2.7625,2.7625,2.7919,2.8457,2.9131,2.9774,3.0417,3.1091,3.1405,3.1482,3.1482,3.1482,3.1482,3.1482,3.1482,3.1482,3.1482,3.1482,3.1482,3.1482,3.1482,3.1482,3.1482,3.1943,3.2317,3.2482,3.3499,3.4292,3.4457,3.5085,3.5504,3.5504,3.5504,3.5504,3.5504,3.5504,3.5504,3.5504,3.5504,3.5504,3.5504,3.5504,3.5504,3.5504,3.5504,3.5504,3.5504,3.5504,3.5504,3.5504,3.5504,3.5504,0.0,0.0,0.0,0.0,0.0,0.0,0.0,0.0,0.0,2.3363,2.3508,2.3508,2.3508,2.3083,2.3136,2.4342,2.4642,2.4956,2.557,2.5689,2.5944,2.6572,2.6632,2.6886,2.7565,2.7625,2.7625,2.7625,2.7625,2.7625,2.7625,2.7625,2.7625,2.7625,2.7625,2.7625,2.7625,2.7625,2.7625,2.7625,2.7625,2.7625,2.7625,2.7625,2.7625,2.7625,2.7625,2.7625,2.7625,2.7625,2.7625,2.7625,2.7625,2.7625,2.7625,2.7625,2.7625,2.7625,2.7625,2.7625,2.7625,2.7625,2.764,2.7754,2.8442,2.9116,2.9759,3.0372,3.1031,3.1482,3.1482,3.1482,3.1482,3.1482,3.1482,3.1482,3.1482,3.1482,3.1482,3.1482,3.1482,3.1482,3.1482,3.1497,3.1794,3.2422,3.3095,3.3769,3.4397,3.5085,3.5504,3.5504,3.5504,3.5504,3.5504,3.5504,3.5504,3.5504,3.5504,3.5504,3.5504,3.5504,3.5504,3.5504,3.5504,3.5504,3.5504,3.5504,3.5504,3.5504,3.5504,3.5504,0.0,0.0,0.0,0.0,0.0,0.0,0.0,2.3421,2.3334,2.3551,2.3595,2.3595,2.3595,2.3421,2.3408,2.388,2.4343,2.4672,2.4896,2.5345,2.5689,2.5929,2.5959,2.6213,2.6871,2.6946,2.7126,2.7595,2.7625,2.7625,2.7625,2.7625,2.7625,2.7625,2.7625,2.7625,2.7625,2.7625,2.7625,2.7625,2.7625,2.7625,2.7625,2.7625,2.7625,2.7625,2.7625,2.7625,2.7625,2.7625,2.7625,2.7625,2.7625,2.7625,2.7625,2.7625,2.7625,2.7625,2.7625,2.7625,2.7625,2.7625,2.7625,2.7745,2.8397,2.9056,2.9714,3.0328,3.1001,3.1482,3.1482,3.1482,3.1482,3.1482,3.1482,3.1482,3.1482,3.1482,3.1482,3.1482,3.1482,3.1482,3.1482,3.1482,3.1556,3.1795,3.2437,3.2946,3.3185,3.4173,3.4846,3.4846,3.5235,3.5504,3.5504,3.5504,3.5504,3.5504,3.5504,3.5504,3.5504,3.5504,3.5504,3.5504,3.5504,3.5504,3.5504,3.5504,3.5504,3.5504,3.5504,3.5504,1.8687,0.0,0.0,0.0,0.0,2.3069,2.3508,0.0,2.3595,2.3595,2.3595,2.3595,2.3595,2.3595,2.3595,2.3595,2.3984,2.4283,2.4283,2.4657,2.5016,2.5255,2.527,2.554,2.6198,2.6258,2.6437,2.6886,2.7126,0.0,2.7245,2.7505,2.7625,2.7625,2.7625,2.7625,2.7625,2.7625,2.7625,2.7625,2.7625,2.7625,2.7625,2.7625,2.7625,2.7625,2.7625,2.7625,2.7625,2.7625,2.7625,2.7625,2.7625,2.7625,2.7625,2.7625,2.7625,2.7625,2.7625,2.7625,2.7625,2.7625,2.7625,2.77,2.8113,2.8727,2.9385,3.0013,3.0672,3.124,3.1422,3.1482,3.1482,3.1482,3.1482,3.1482,3.1482,3.1482,3.1482,3.1482,3.1482,3.1482,3.1482,3.1482,3.1482,3.1482,3.2093,3.2512,3.2512,3.3469,3.4233,3.4457,3.4891,3.525,3.5489,3.5504,3.5504,3.5504,3.5504,3.5504,3.5504,3.5504,3.5504,3.5504,3.5504,3.5504,3.5504,3.5504,3.5504,3.5504,3.5504,3.5504,0.0,0.0,0.0,0.0,0.0,0.0,2.3319,0.0,2.3595,2.3595,2.3595,2.3595,2.3595,2.3595,2.3595,2.3595,2.3595,2.3595,2.3595,2.3595,2.3849,2.4462,2.4552,2.4852,2.551,2.5585,2.5585,2.5615,2.6198,2.6557,2.6557,2.7235,2.7595,2.7625,2.7625,2.7625,2.7625,2.7625,2.7625,2.7625,2.7625,2.7625,2.7625,2.7625,2.7625,2.7625,2.7625,2.7625,2.7625,2.7625,2.7625,2.7625,2.7625,2.7625,2.7625,2.7625,2.7625,2.7625,2.7625,2.7625,2.7625,2.7625,2.7625,2.7625,2.7625,2.8053,2.8742,2.94,3.0028,3.0657,3.136,3.1482,3.1482,3.1482,3.1482,3.1482,3.1482,3.1482,3.1482,3.1482,3.1482,3.1482,3.1482,3.1482,3.1482,3.1482,3.2078,3.2482,3.2482,3.3066,3.3709,3.4352,3.4457,3.4741,3.5415,3.5489,3.5504,3.5504,3.5504,3.5504,3.5504,3.5504,3.5504,3.5504,3.5504,3.5504,3.5504,3.5504,3.5504,3.5504,3.5504,3.5504,1.8792,0.0,0.0,0.0,0.0,0.0,0.0,0.0,0.0,2.3595,2.3595,2.3595,2.3595,2.3595,2.3595,2.3595,2.3595,2.3595,2.3595,2.3595,2.367,2.3864,2.3879,2.4148,2.4837,2.4896,2.5091,0.0,2.5779,2.5884,2.5884,2.6497,2.7081,2.761,2.7625,2.7625,2.7625,2.7625,2.7625,2.7625,2.7625,2.7625,2.7625,2.7625,2.7625,2.7625,2.7625,2.7625,2.7625,2.7625,2.7625,2.7625,2.7625,2.7625,2.7625,2.7625,2.7625,2.7625,2.7625,2.7625,2.7625,2.7625,2.7625,2.7625,2.7625,2.8053,2.8742,2.94,3.0028,3.0657,3.136,3.1482,3.1482,3.1482,3.1482,3.1482,3.1482,3.1482,3.1482,3.1482,3.1482,3.1482,3.1482,3.1482,3.1482,3.1482,3.1631,3.1809,3.1809,3.2377,3.2856,3.3036,3.3903,3.4562,3.4741,3.522,3.5504,3.5504,3.5504,3.5504,3.5504,3.5504,3.5504,3.5504,3.5504,3.5504,3.5504,3.5504,3.5504,3.5504,3.5504,3.5504,0.0,0.0,0.0,0.0,0.0,0.0,2.3551,2.3595,2.3595,0.0,2.3595,2.3595,2.3595,2.3595,2.3595,2.3595,2.3595,2.3595,2.3595,2.3595,2.3595,2.3595,2.3595,2.3759,2.4163,2.4193,2.4358,2.4747,2.5031,2.5315,2.56,2.5974,2.6482,2.7141,2.7156,2.734,2.7625,2.7625,2.7625,2.7625,2.7625,2.7625,2.7625,2.7625,2.7625,2.7625,2.7625,2.7625,2.7625,2.7625,2.7625,2.7625,2.7625,2.7625,2.7625,2.7625,2.7625,2.7625,2.7625,2.7625,2.7625,2.7625,2.7625,2.7625,2.7625,2.7859,2.8308,2.8981,2.9819,3.0657,3.136,3.1482,3.1482,3.1482,3.1482,3.1482,3.1482,3.1482,3.1482,3.1482,3.1482,3.1482,3.1482,3.1482,3.1482,3.1482,3.1482,3.1482,3.1482,3.1869,3.2213,3.2482,3.32,3.3769,3.4038,3.4681,3.507,3.507,3.5355,3.5504,3.5504,3.5504,3.5504,3.5504,3.5504,3.5504,3.5504,3.5504,3.5504,3.5504,3.5504,3.5504,0.0,0.0,0.0,0.0,0.0,0.0,2.3465,2.3595,2.3595,0.0,2.3595,2.3595,2.3595,2.3595,2.3595,2.3595,2.3595,2.3595,2.3595,2.3595,2.3595,2.3595,2.3595,2.3595,2.3595,2.3595,2.3595,2.3595,2.4163,2.4761,2.5465,2.5495,2.5809,2.6452,2.6482,2.6797,2.7455,2.7505,2.755,2.7625,2.7625,2.7625,2.7625,2.7625,2.7625,2.7625,2.7625,2.7625,2.7625,2.7625,2.7625,2.7625,2.7625,2.7625,2.7625,2.7625,2.7625,2.7625,2.7625,2.7625,2.7625,2.7625,2.7625,2.7625,2.7625,2.7625,2.779,2.8487,2.9579,3.0657,3.136,3.1482,3.1482,3.1482,3.1482,3.1482,3.1482,3.1482,3.1482,3.1482,3.1482,3.1482,3.1482,3.1482,3.1482,3.1482,3.1482,3.1482,3.1482,3.1482,3.1764,3.2347,3.2467,3.2751,3.3335,3.3978,3.4397,3.4472,3.5055,3.5429,3.5504,3.5504,3.5504,3.5504,3.5504,3.5504,3.5504,3.5504,3.5504,3.5504,3.5504,3.5504,0.0,0.0,0.0,0.0,0.0,0.0,2.3551,2.3595,2.3595,0.0,2.3595,2.3595,2.3595,2.3595,2.3595,2.3595,2.3595,2.3595,2.3595,2.3595,2.3595,2.3595,2.3595,2.3595,2.3595,2.3595,2.3595,2.3595,2.3729,2.4103,2.4777,2.4776,2.5121,2.5779,2.5809,2.6123,2.6782,2.6782,2.7051,2.7625,2.7625,2.7625,2.7625,2.7625,2.7625,2.7625,2.7625,2.7625,2.7625,2.7625,2.7625,2.7625,2.7625,2.7625,2.7625,2.7625,2.7625,2.7625,2.7625,2.7625,2.7625,2.7625,2.7625,2.7625,2.7625,2.7625,2.7829,2.9041,2.9924,3.0657,3.136,3.1482,3.1482,3.1482,3.1482,3.1482,3.1482,3.1482,3.1482,3.1482,3.1482,3.1482,3.1482,3.1482,3.1482,3.1482,3.1482,3.1482,3.1482,3.1482,3.1526,3.1704,3.2198,3.2557,3.2691,3.3305,3.3918,3.4442,3.4607,3.4921,3.5489,3.5504,3.5504,3.5504,3.5504,3.5504,3.5504,3.5504,3.5504,3.5504,3.5504,3.5504,0.0,0.0,0.0,2.3508,0.0,0.0,0.0,2.3595,2.3595,2.3595,2.3595,2.3595,2.3595,2.3595,2.3595,2.3595,2.3595,2.3595,2.3595,2.3595,2.3595,2.3595,2.3595,2.3595,2.3595,2.3595,2.3595,2.3595,2.3595,2.3744,2.4088,2.4118,2.4418,2.5091,2.5121,2.5435,2.6093,2.6093,2.66,2.7573,2.7263,2.7444,2.8042,2.771,2.776,2.8042,2.8042,2.8042,2.8091,2.8352,2.8125,2.7625,2.7625,2.7625,2.7625,2.7625,2.7625,2.7625,2.7625,2.7625,2.7625,2.7625,2.7625,2.7625,2.7625,2.7625,2.791,2.9205,2.9804,3.0268,3.127,3.1482,3.1482,3.1482,3.1482,3.1482,3.1482,3.1482,3.1482,3.1482,3.1482,3.1482,3.1482,3.1482,3.1482,3.1482,3.1482,3.1482,3.1482,3.1482,3.1482,3.1482,3.1824,3.2018,3.2018,3.2632,3.329,3.3948,3.4292,3.4786,3.5474,3.5504,3.5504,3.5504,3.5504,3.5504,3.5504,3.5504,3.5504,3.5504,3.5504,3.5504,0.0,0.0,0.0,0.0,0.0,2.3595,0.0,0.0,0.0,2.3595,2.3595,0.0,0.0,0.0,0.0,0.0,0.0,0.0,0.0,2.352,0.0,2.3595,2.3595,2.3595,2.3595,2.3595,2.3595,2.3595,2.3595,2.3595,2.3595,2.3595,2.3849,2.4418,2.4388,2.4747,2.542,2.542,2.606,2.7319,2.6847,2.721,2.8319,2.7944,2.8042,2.8511,2.8606,2.8685,2.8685,2.9088,2.8638,2.776,2.776,2.771,2.7625,2.7625,2.7625,2.7625,2.7625,2.7625,2.7625,2.7625,2.7625,2.7625,2.7625,2.7625,2.791,2.9205,2.9579,2.9879,3.1195,3.1482,3.1482,3.1482,3.1482,3.1482,3.1482,3.1482,3.1482,3.1482,3.1482,3.1482,3.1482,3.1482,3.1482,3.1482,3.1482,3.1482,3.1482,3.1482,3.1482,3.1482,3.1482,3.1482,3.1482,3.2018,3.2662,3.344,3.3993,3.4651,3.5474,3.5504,3.5504,3.5504,3.5504,3.5504,3.5504,3.5504,3.5504,3.5504,3.5504,3.5504,0.0,0.0,0.0,0.0,2.3595,0.0,0.0,0.0,2.3595,2.3595,0.0,0.0,0.0,0.0,0.0,0.0,0.0,0.0,2.2862,2.3251,2.3595,2.3595,2.3595,2.3595,2.3595,2.3595,2.3595,2.3595,2.3595,2.3595,2.3595,2.3595,2.3625,2.3714,2.3714,2.4044,2.4686,2.4686,2.536,2.6717,2.6636,2.698,2.771,2.8189,2.8431,2.8511,2.9058,2.9316,2.9271,2.8779,2.8511,2.8383,2.8383,2.8091,2.7625,2.7625,2.7625,2.7625,2.7625,2.7625,2.7625,2.7625,2.7625,2.7625,2.7625,2.7625,2.791,2.9205,2.9579,2.9879,3.1195,3.1482,3.1482,3.1482,3.1482,3.1482,3.1482,3.1482,3.1482,3.1482,3.1482,3.1482,3.1482,3.1482,3.1482,3.1482,3.1482,3.1482,3.1482,3.1482,3.1482,3.1482,3.1482,3.1482,3.1482,3.1541,3.2168,3.3425,3.3559,3.4173,3.5459,3.5504,3.5504,3.5504,3.5504,3.5504,3.5504,3.5504,3.5504,3.5504,3.5504,3.5504,0.0,0.0,0.0,0.0,0.0,0.0,2.3595,0.0,2.3595,0.0,0.0,0.0,0.0,0.0,0.0,0.0,2.343,0.0,0.0,0.0,2.3595,0.0,0.0,0.0,2.3595,2.3595,2.3595,2.3595,2.3595,2.3595,2.3595,2.3595,2.3595,2.3595,2.3595,2.3744,2.4029,2.4029,2.4867,2.6535,2.6193,2.6912,2.8638,2.8543,2.8873,2.954,2.9805,2.9935,2.9935,3.0038,2.9673,2.9012,2.9012,2.8448,2.761,2.7993,2.791,2.7625,2.7625,2.7625,2.7625,2.7625,2.7625,2.7625,2.7625,2.7625,2.782,2.8742,2.928,2.9789,3.0702,3.124,3.1482,3.1482,3.1482,3.1482,3.1482,3.1482,3.1482,3.1482,3.1482,3.1482,3.1482,3.1482,3.1482,3.1482,3.1482,3.1482,3.1482,3.1482,3.1482,3.1482,3.1482,3.1482,3.1482,3.1482,3.2093,3.341,3.4233,3.4921,3.5489,3.5504,3.5504,3.5504,3.5504,3.5504,3.5504,3.5504,3.5504,3.5504,3.5504,3.5504,2.3595,0.0,0.0,0.0,0.0,0.0,0.0,0.0,0.0,0.0,0.0,0.0,0.0,0.0,0.0,0.0,0.0,2.3535,0.0,2.349,0.0,0.0,0.0,0.0,0.0,2.3595,2.3681,2.3794,2.3681,2.3681,2.3794,2.3681,2.3595,2.3595,2.3595,2.3595,2.3595,2.3595,2.4517,2.6227,2.5817,2.6826,2.9134,2.8873,2.9316,3.0293,3.0477,3.0559,3.0559,3.0838,3.0435,2.9629,2.9629,2.8996,2.8125,2.8415,2.8238,2.786,2.786,2.771,2.7625,2.7625,2.7625,2.7625,2.7625,2.7625,2.7724,2.8412,2.9071,2.9729,3.0342,3.1016,3.1482,3.1482,3.1482,3.1482,3.1482,3.1482,3.1482,3.1482,3.1482,3.1482,3.1482,3.1482,3.1482,3.1482,3.1482,3.1482,3.1482,3.1482,3.1482,3.1482,3.1482,3.1482,3.1482,3.1482,3.2093,3.341,3.4756,3.5504,3.5504,3.5504,3.5504,3.5504,3.5504,3.5504,3.5504,3.5504,3.5504,3.5504,3.5504,3.5504,0.0,0.0,0.0,2.3595,0.0,0.0,0.0,0.0,2.3595,0.0,0.0,0.0,0.0,0.0,0.0,0.0,0.0,0.0,0.0,0.0,0.0,0.0,0.0,0.0,0.0,2.3595,2.3837,2.4348,2.3879,2.3837,2.4348,2.3879,2.3595,2.3595,2.3595,2.3595,2.3595,2.3595,2.4268,2.5615,2.5615,2.6622,2.8559,2.9088,2.9717,3.0335,3.0918,3.119,3.1151,3.0559,3.0293,3.0251,3.0251,2.9892,2.9271,2.8701,2.8463,2.8463,2.8463,2.8091,2.7625,2.7625,2.7625,2.7625,2.7625,2.7625,2.7724,2.8412,2.9071,2.9729,3.0342,3.1016,3.1482,3.1482,3.1482,3.1482,3.1482,3.1482,3.1482,3.1482,3.1482,3.1482,3.1482,3.1482,3.1482,3.1482,3.1482,3.1482,3.1482,3.1482,3.1482,3.1482,3.1482,3.1482,3.1482,3.1482,3.2093,3.341,3.4756,3.5504,3.5504,3.5504,3.5504,3.5504,3.5504,3.5504,3.5504,3.5504,3.5504,3.5504,3.5504,3.5504,0.0,0.0,2.3595,2.3595,0.0,0.0,0.0,0.0,0.0,0.0,0.0,0.0,0.0,0.0,0.0,0.0,0.0,0.0,0.0,0.0,0.0,0.0,0.0,0.0,0.0,0.0,2.4074,2.3879,2.4032,2.4032,2.3879,2.3724,2.3595,2.3595,2.3595,2.3595,2.3595,2.3595,2.4268,2.56,2.5986,2.7208,2.9134,2.9717,3.0335,3.0918,3.1112,3.119,3.119,3.0975,3.0878,3.0838,3.0477,3.0435,3.0518,2.9892,2.9451,2.9042,2.8654,2.8383,2.814,2.771,2.7625,2.7625,2.7625,2.7625,2.767,2.7859,2.8727,2.9624,2.9834,3.0717,3.1482,3.1482,3.1482,3.1482,3.1482,3.1482,3.1482,3.1482,3.1482,3.1482,3.1482,3.1482,3.1482,3.1482,3.1482,3.1482,3.1482,3.1482,3.1482,3.1482,3.1482,3.1482,3.1482,3.2332,3.3021,3.3469,3.4756,3.5504,3.5504,3.5504,3.5504,3.5504,3.5504,3.5504,3.5504,3.5504,3.5504,3.5504,3.5504,3.5504,2.3595,2.3595,0.0,2.3595,2.3595,0.0,2.3595,0.0,2.3595,0.0,0.0,0.0,0.0,0.0,0.0,0.0,0.0,0.0,0.0,2.3595,0.0,0.0,0.0,0.0,0.0,2.3921,2.4032,2.3921,2.4032,2.4032,2.3879,2.3724,2.3595,2.3595,2.3595,2.3595,2.3595,2.3794,2.4561,2.594,2.6287,2.7595,2.9717,2.9892,3.0435,3.119,3.119,3.119,3.119,3.119,3.119,3.1151,3.0781,3.0878,3.1112,3.0518,3.0038,2.9629,2.9012,2.8826,2.8779,2.8352,2.8076,2.7944,2.8174,2.7944,2.7765,2.8435,2.9102,2.9684,3.0163,3.0896,3.1482,3.1482,3.1482,3.1482,3.1482,3.1482,3.1482,3.1482,3.1482,3.1482,3.1482,3.1482,3.1482,3.1482,3.1482,3.1482,3.1482,3.1482,3.1482,3.1482,3.1482,3.1482,3.1482,3.2736,3.3499,3.3499,3.4756,3.5504,3.5504,3.5504,3.5504,3.5504,3.5504,3.5504,3.5504,3.5504,3.5504,3.5504,3.5504,3.5504]}]]